GFSSGP_sfc_temp_000.txt.gz
Temp
74 78 81 74 59 59 55 60 67 65 62 67 72 68 63 66 64 54 65 70 72 71 73 71 72 73 73 74 73 73 74 75 75 75 75 74 74 74 75 74 74 75 76 76 77 77 76 75 75
75 85 75 69 56 53 57 65 62 66 67 69 69 67 63 61 68 63 62 70 71 71 71 69 71 72 72 72 72 72 73 74 74 74 74 73 72 73 73 73 72 73 74 75 75 75 74 73 73
78 84 66 62 58 56 56 63 66 66 67 64 61 63 65 63 68 65 65 69 70 68 69 69 70 71 72 71 71 71 72 71 72 72 71 71 71 71 71 71 71 71 72 72 73 73 72 71 72
77 72 69 57 57 64 63 65 69 65 63 66 64 59 63 65 66 68 68 69 67 67 67 68 70 71 71 70 71 71 71 70 71 70 70 70 70 70 70 70 70 70 70 71 71 70 70 70 70
73 69 58 57 61 63 68 69 70 66 65 65 63 60 60 65 68 66 66 68 65 64 63 64 68 69 69 69 69 69 69 69 69 68 68 68 68 68 68 68 68 69 69 69 70 69 69 69 69
65 68 56 54 61 66 67 69 67 67 68 64 63 61 61 65 64 64 65 64 66 63 62 62 64 66 67 67 67 67 67 67 66 66 66 66 65 66 66 66 66 67 67 67 67 67 67 67 68
62 60 57 59 62 64 68 72 65 66 67 64 65 59 58 60 64 65 64 64 64 62 61 59 59 61 63 64 65 65 65 65 64 63 63 63 64 64 63 63 64 65 65 65 66 66 66 66 66
65 63 59 60 60 61 66 68 65 67 66 68 69 59 56 62 65 64 63 63 62 61 60 59 57 58 56 55 61 62 63 62 62 61 61 61 63 64 61 59 61 63 63 64 65 65 65 65 66
69 56 55 61 60 62 67 63 66 63 60 62 67 61 61 66 63 60 58 59 59 61 60 59 57 58 57 55 57 59 60 60 60 59 60 59 55 55 57 59 61 62 63 65 65 65 65 65 63
62 56 60 65 67 63 66 66 65 60 61 62 63 64 64 63 59 57 56 56 56 56 57 57 57 57 57 64 53 53 55 53 54 54 55 54 54 54 57 57 60 61 61 62 63 63 62 59 55
65 58 68 67 69 69 66 65 68 63 59 65 64 66 60 59 57 58 58 58 59 57 57 58 57 56 55 55 53 52 51 51 51 52 52 53 53 51 50 49 49 49 55 51 53 52 52 52 52
59 68 70 68 66 63 62 66 64 64 66 67 64 64 61 60 59 59 59 60 58 58 58 57 57 56 55 52 52 52 51 51 49 50 52 50 48 48 48 47 48 47 47 47 47 47 50 50 52
62 65 69 69 65 62 66 62 61 63 68 71 71 66 61 60 61 61 62 61 60 59 58 57 56 55 55 53 52 52 49 50 50 49 50 49 47 46 47 46 46 46 46 45 45 46 47 48 50
63 63 64 67 66 65 61 59 60 63 69 68 69 63 62 62 62 61 60 61 61 61 58 57 56 55 55 52 52 51 51 50 50 48 48 49 47 45 46 45 46 45 45 45 44 45 45 46 48
63 56 62 65 64 62 61 55 57 66 66 65 66 65 64 64 63 63 64 62 63 62 58 57 55 55 53 53 52 51 50 51 48 47 48 47 47 46 45 44 43 44 44 44 44 45 45 44 47
56 56 50 62 65 59 58 50 62 67 65 65 62 62 64 64 65 65 63 63 62 59 58 56 60 55 52 52 51 51 49 48 47 46 46 47 47 46 44 43 43 43 43 42 42 42 42 42 42
56 48 52 58 64 58 54 50 63 64 61 62 61 62 64 65 66 64 63 60 59 58 57 55 54 52 51 51 50 48 48 46 46 45 45 46 46 46 44 42 42 42 41 40 41 41 40 39 40
49 50 56 54 58 56 51 51 59 63 62 62 65 66 66 66 67 65 62 61 60 58 56 54 53 51 50 49 48 46 45 45 44 43 44 45 45 45 42 41 41 41 40 39 40 39 39 39 40
59 55 53 60 63 55 53 55 59 62 63 63 65 66 65 64 66 66 64 59 57 56 55 53 51 50 51 48 44 42 43 42 42 43 45 44 45 44 42 40 40 40 38 38 39 39 38 37 39
54 52 53 60 61 53 51 52 58 59 61 64 64 65 64 61 62 58 57 56 56 55 54 53 52 51 51 49 46 44 44 42 42 43 43 44 43 42 41 39 38 38 36 37 37 37 36 36 38
53 49 51 52 56 51 47 45 49 55 61 62 63 65 61 61 61 55 55 54 54 54 54 53 52 52 51 48 46 43 42 41 40 40 39 41 41 40 40 39 38 37 37 35 36 35 35 33 35
49 56 53 52 46 38 48 40 49 53 57 57 61 64 58 59 60 57 54 52 53 53 53 53 52 51 51 48 45 43 40 38 39 41 39 39 40 40 40 39 38 37 36 35 35 38 35 34 31
50 49 47 46 42 39 41 38 45 54 52 56 60 64 60 61 58 55 54 54 53 52 52 52 51 51 50 48 45 42 38 40 42 40 37 36 37 38 38 38 37 35 34 35 35 34 34 33 32
50 46 45 42 40 32 43 43 41 48 53 55 59 62 62 54 53 54 53 52 52 50 49 50 50 50 49 46 43 42 41 39 39 35 35 34 35 35 36 37 35 34 34 34 34 34 33 32 32
46 42 30 28 26 34 47 40 51 53 57 59 59 61 60 54 51 51 50 50 49 48 48 48 48 48 47 44 42 42 41 41 39 38 36 34 33 33 34 34 34 33 33 33 33 32 31 31 30
42 45 31 24 32 40 34 35 47 58 62 61 62 61 56 53 52 50 50 50 50 49 47 47 46 47 45 43 41 42 40 41 40 38 37 34 33 33 34 33 32 32 32 31 31 30 30 30 30
44 38 47 34 27 28 43 48 54 56 57 57 57 55 53 52 52 51 50 50 48 47 47 47 46 46 45 43 41 41 41 38 37 35 34 33 32 35 32 31 30 30 30 30 29 28 28 29 29
44 46 35 35 23 21 40 41 47 54 58 54 51 52 52 52 51 50 50 49 49 49 48 47 46 45 44 42 41 41 39 36 35 33 32 31 31 31 30 29 29 29 28 28 27 27 28 27 28
37 38 40 43 36 28 31 42 50 52 52 52 52 53 53 53 52 51 50 49 49 47 47 45 44 43 42 40 39 37 35 34 33 33 31 30 30 29 28 28 27 27 26 26 25 25 25 22 23
48 46 47 39 36 34 40 42 58 53 54 54 55 57 57 55 55 53 51 49 48 47 45 44 43 42 41 39 37 36 34 33 32 31 30 29 28 27 26 26 25 25 25 24 23 22 21 20 20

GFSSGP_sfc_temp_003.txt.gz
Temp
69 70 66 66 55 51 47 54 57 58 57 59 63 63 62 59 60 52 61 66 68 66 68 69 73 74 75 75 76 76 76 77 76 76 75 76 76 76 75 75 75 75 76 76 76 75 75 74 74
68 76 67 59 49 44 47 54 57 58 61 62 65 61 62 56 61 59 60 67 69 67 67 67 71 73 73 73 73 74 76 75 75 74 74 73 73 73 73 72 72 73 73 74 74 74 73 72 73
72 75 60 54 47 46 49 56 56 58 60 59 58 59 58 60 58 60 62 66 66 64 66 68 71 72 72 72 72 73 72 73 73 72 72 72 72 72 71 71 71 71 72 73 73 72 71 71 71
67 65 60 51 49 54 56 56 59 59 59 60 61 55 58 62 63 62 64 65 63 63 64 68 71 72 72 72 72 72 71 72 71 71 71 71 70 70 70 70 70 70 70 71 71 70 70 70 70
64 58 51 47 51 56 58 63 61 59 58 59 59 56 57 59 61 63 63 64 61 59 61 64 70 71 71 71 71 71 71 71 70 69 69 69 68 68 68 69 69 69 69 69 69 69 69 69 69
58 57 48 45 51 59 60 66 63 60 59 58 57 54 58 60 59 59 61 60 61 58 59 61 66 68 69 69 70 69 69 69 68 68 67 67 67 67 66 67 67 67 67 68 68 67 67 68 68
55 52 48 49 54 58 60 62 60 61 59 59 61 57 52 55 59 59 60 59 59 59 57 56 58 62 65 67 67 68 67 67 66 66 66 65 65 64 63 63 65 66 66 67 67 67 67 68 68
59 55 49 49 53 56 61 62 62 61 62 61 65 58 56 56 59 59 58 58 56 57 56 54 54 55 54 56 63 64 65 64 64 64 63 63 64 62 61 60 64 65 66 67 67 66 66 65 65
62 50 47 53 55 56 60 59 60 61 58 60 65 60 59 59 58 56 54 55 54 57 56 54 53 53 52 53 57 60 62 62 62 61 61 58 52 53 55 60 63 63 64 64 65 64 63 62 60
56 47 53 60 58 58 60 60 61 57 57 58 59 56 58 58 57 55 53 54 53 53 54 55 54 53 52 59 52 51 54 51 51 52 52 51 51 52 54 56 59 60 60 61 61 61 59 56 51
57 52 59 62 62 61 61 58 62 58 55 59 60 60 56 54 55 55 55 56 57 55 54 54 55 53 52 53 49 47 48 47 48 49 50 50 50 48 47 46 47 47 51 47 49 48 49 49 49
55 62 63 63 65 61 58 61 60 60 66 66 64 63 57 53 55 55 55 55 54 53 57 54 54 54 51 50 50 48 48 46 46 47 49 47 45 45 45 44 44 44 44 44 44 44 46 47 49
58 59 63 63 62 62 61 59 57 58 62 64 65 63 57 57 56 57 57 56 56 55 55 55 53 53 53 50 49 48 47 46 46 46 48 46 45 44 44 44 43 43 43 43 43 43 44 45 46
57 59 58 60 62 61 59 55 57 60 62 62 64 62 57 58 58 55 53 55 55 58 55 55 55 54 52 50 48 48 47 47 45 44 45 46 44 43 43 43 43 42 42 42 42 42 42 43 44
58 55 56 62 59 58 58 54 54 65 60 61 60 61 60 58 57 58 59 58 58 58 56 54 54 53 52 50 49 48 47 47 44 44 45 45 45 44 42 41 41 41 41 42 42 42 42 41 43
51 48 45 57 56 57 59 50 59 61 57 58 61 58 58 58 60 61 61 59 58 55 54 55 58 54 51 50 48 49 46 44 43 43 43 45 45 44 41 40 40 40 40 40 40 40 40 39 39
45 42 44 52 58 54 52 49 57 60 57 58 56 56 60 63 58 63 60 59 58 58 55 53 54 51 50 47 47 45 45 43 43 42 41 43 44 43 41 40 39 40 39 39 40 38 38 37 37
41 41 47 47 52 50 47 51 58 57 55 56 56 56 56 61 64 63 60 60 60 58 55 54 53 50 49 48 44 43 42 41 41 40 41 42 42 42 40 39 39 39 38 38 38 37 37 37 37
49 46 45 54 58 53 54 53 58 60 55 54 56 60 63 61 64 60 60 60 57 54 52 51 50 50 50 47 44 42 42 39 39 40 41 41 41 41 39 38 39 38 37 37 39 37 37 35 36
49 47 47 55 56 51 51 52 56 53 57 60 60 61 63 59 58 58 54 53 54 52 52 51 51 50 51 49 48 42 42 38 39 40 40 41 40 40 39 38 37 37 36 37 37 36 34 34 35
51 47 50 48 52 49 46 43 48 53 54 59 61 62 63 58 56 53 49 51 52 51 49 50 50 50 50 48 45 40 39 38 37 37 39 39 39 38 39 37 36 36 35 34 35 34 34 32 33
49 52 52 47 41 41 43 39 46 49 51 53 57 61 57 53 55 52 51 47 50 51 51 51 50 49 49 46 46 42 44 40 42 43 40 38 38 37 37 37 36 35 34 34 34 36 33 33 31
51 49 46 42 39 36 39 36 41 49 48 54 60 63 61 54 55 52 52 54 51 50 50 50 48 48 48 46 47 43 42 43 38 38 37 36 35 36 36 36 35 34 33 34 34 34 33 32 31
48 43 42 39 36 32 38 40 43 44 50 52 59 62 63 55 53 53 52 49 48 48 49 48 47 47 47 46 45 44 42 37 37 37 36 36 35 34 34 35 33 33 33 33 33 33 32 31 31
43 40 28 27 23 32 43 35 49 50 53 56 59 61 62 53 50 48 47 48 47 45 47 47 46 45 46 45 43 44 42 41 39 38 38 35 34 31 32 32 32 31 31 32 32 32 31 31 30
40 42 30 23 29 39 30 32 45 54 58 57 60 63 56 50 50 49 48 48 46 46 45 47 44 45 44 44 42 42 40 42 40 39 38 37 36 35 33 31 31 31 31 30 31 30 30 30 30
41 37 47 32 19 25 41 44 51 53 54 54 56 49 52 49 47 48 46 47 45 45 45 46 45 46 44 43 42 41 40 41 40 38 37 36 35 35 32 31 30 29 29 30 29 28 28 29 30
43 44 33 32 24 21 38 34 45 51 57 58 52 50 49 48 48 47 46 46 46 47 46 45 46 45 44 42 42 41 40 41 40 36 35 33 33 33 31 29 29 28 28 28 28 27 28 27 28
40 38 40 40 34 34 32 40 50 46 53 56 51 49 49 50 48 48 47 48 47 46 44 44 43 42 41 40 40 39 38 38 36 36 35 33 33 31 30 29 28 28 27 27 26 26 25 23 23
45 42 43 37 33 32 36 40 57 49 49 50 51 53 49 51 52 48 48 46 43 45 43 43 43 42 42 40 37 38 35 35 35 35 32 31 31 30 29 28 27 26 26 25 24 22 22 21 22

GFSSGP_sfc_temp_006.txt.gz
Temp
68 68 64 64 55 49 45 52 55 56 55 57 61 60 60 59 59 51 59 63 65 65 68 70 73 75 75 75 75 75 76 76 76 75 76 76 75 75 74 73 74 74 75 76 75 74 73 73 74
66 72 64 56 48 42 46 52 57 58 59 59 59 59 56 58 58 57 58 64 66 65 66 67 72 74 74 74 74 75 76 76 77 75 74 74 73 73 72 72 72 73 74 74 73 73 72 71 72
69 71 60 53 44 43 47 54 56 56 57 58 56 57 59 59 57 58 61 64 64 63 64 66 71 73 73 73 73 75 74 73 73 73 73 73 72 72 71 71 71 71 72 72 72 71 71 70 71
66 63 58 50 46 52 54 57 56 56 56 57 56 54 57 60 60 60 62 63 62 61 63 68 71 73 72 72 73 73 73 73 72 72 72 71 71 70 70 70 70 70 70 71 70 70 69 69 69
61 56 49 45 47 53 58 59 57 57 55 57 58 55 56 59 59 60 63 62 60 59 61 64 70 71 72 72 72 72 72 71 71 71 70 70 69 69 69 69 69 69 69 69 69 68 68 68 69
57 54 46 43 48 55 57 59 57 57 55 55 55 52 57 55 57 58 59 57 60 58 59 62 67 69 70 71 71 71 71 70 70 69 69 68 68 67 67 68 67 68 68 68 68 68 68 68 68
54 50 45 44 50 54 59 61 56 57 55 58 57 56 54 51 57 57 57 56 56 57 57 57 59 63 67 68 69 69 70 69 68 68 68 67 66 65 65 66 66 67 68 68 67 67 66 66 66
56 52 45 45 49 54 57 58 59 60 60 58 63 57 56 55 57 56 55 54 53 54 55 54 55 56 56 58 65 66 67 67 67 66 65 64 63 63 62 62 65 67 67 66 66 65 64 63 63
58 48 44 49 51 56 57 56 58 58 56 57 62 58 58 56 55 53 52 51 52 54 54 52 52 53 53 54 58 62 64 64 64 62 62 57 51 52 54 61 63 64 64 64 64 63 61 59 59
54 45 50 57 55 56 58 58 58 54 56 56 58 57 55 55 55 54 52 52 52 52 52 53 52 51 50 57 53 52 54 52 51 51 51 50 49 49 53 56 60 59 60 61 61 60 57 53 48
54 50 55 60 61 60 59 56 60 56 55 58 60 61 54 51 53 55 55 56 55 56 54 53 53 51 50 53 48 47 47 47 47 48 48 48 49 47 46 45 45 45 50 45 47 46 46 47 46
51 58 60 61 61 58 57 57 57 57 67 64 62 59 53 52 53 54 54 55 54 52 54 54 53 52 49 48 48 47 47 45 45 46 47 45 44 44 43 43 43 42 42 42 42 42 45 45 46
54 56 60 61 60 57 59 58 57 57 61 62 62 59 55 55 55 56 57 56 53 52 54 53 53 53 52 49 47 46 45 46 45 45 46 45 43 42 42 42 41 41 42 41 41 42 43 43 44
55 57 57 58 59 58 58 56 57 65 59 60 60 60 56 55 56 55 51 55 53 56 54 54 53 53 52 49 48 48 46 45 44 43 44 45 43 42 42 41 41 40 41 40 41 41 41 41 42
55 54 54 58 57 57 55 52 51 66 57 59 59 58 58 56 57 56 59 57 57 56 56 53 54 52 52 51 49 47 46 46 44 43 43 44 43 42 41 40 39 40 40 41 40 40 40 40 42
48 46 44 55 53 55 56 50 58 61 56 59 58 56 56 58 58 61 61 59 57 56 54 54 57 52 52 52 49 48 46 45 43 42 42 43 43 42 40 39 39 39 39 39 39 38 38 38 38
41 40 41 49 55 52 51 49 57 56 55 56 58 56 57 60 59 59 60 58 56 57 55 53 54 52 51 49 49 46 44 44 43 41 40 42 42 42 39 38 38 39 38 38 39 37 37 36 37
40 38 42 45 50 48 46 49 58 59 55 54 56 54 53 56 61 66 58 59 58 57 55 55 54 52 50 48 43 41 42 40 42 40 40 41 40 41 38 37 38 38 37 36 37 37 36 36 36
44 42 42 48 56 48 48 51 56 62 55 50 55 59 62 64 69 62 57 57 55 54 53 52 51 50 50 47 44 43 44 41 38 39 41 40 40 39 38 37 37 37 36 36 37 36 35 34 35
47 46 46 52 54 47 50 50 57 56 60 62 61 61 60 62 66 55 55 51 52 53 52 51 51 49 51 51 50 46 44 38 42 40 41 41 39 38 38 36 36 36 35 35 35 35 33 33 34
46 44 47 46 48 45 43 46 46 52 56 60 55 60 63 65 66 58 52 49 48 49 49 50 51 50 51 50 45 39 38 37 36 37 38 38 38 37 38 36 35 34 34 33 34 33 34 32 32
46 50 49 45 39 40 42 39 45 49 52 54 55 58 58 61 60 58 51 46 46 49 49 50 50 50 50 48 45 42 46 43 42 42 38 36 37 37 36 36 35 34 33 33 33 34 32 32 31
49 48 46 41 36 34 34 33 41 48 46 52 60 58 62 65 55 54 50 51 48 46 47 49 48 49 48 46 47 44 44 45 37 35 35 36 34 36 35 35 34 33 32 33 33 32 32 32 31
46 43 41 36 35 33 39 38 42 41 48 51 57 61 62 65 57 53 50 47 44 43 45 46 46 46 44 45 45 44 44 38 37 36 37 36 35 34 34 34 32 32 32 32 32 32 31 31 30
44 41 29 26 22 29 41 33 50 50 55 54 59 61 62 63 51 48 47 45 44 43 43 44 44 44 43 43 44 44 44 40 41 38 38 36 35 34 34 33 32 31 31 31 31 31 30 30 30
41 43 34 22 28 39 30 32 45 53 56 57 56 57 57 55 51 50 47 47 46 45 43 45 43 44 44 43 44 44 44 40 42 39 39 38 37 37 35 33 31 31 31 30 30 29 29 29 30
38 35 47 33 17 21 40 43 51 47 53 52 53 53 53 52 50 48 45 44 43 42 44 45 44 44 44 43 43 42 43 40 41 38 38 38 36 34 32 32 31 30 30 30 29 28 28 29 29
43 45 33 31 25 22 34 34 44 48 50 50 51 54 53 49 45 45 45 45 42 43 44 44 45 45 43 42 42 41 41 40 40 35 35 35 33 33 31 31 30 29 29 28 28 27 28 27 27
38 39 39 39 34 33 31 38 46 47 45 48 52 56 48 49 48 47 46 45 43 42 41 42 42 40 39 40 41 40 38 38 36 35 34 33 33 33 32 32 30 29 28 28 26 26 26 25 24
43 44 46 37 33 32 33 37 55 56 55 56 55 57 52 49 50 49 48 45 42 42 41 43 43 42 43 41 40 38 38 36 35 35 34 33 33 32 32 31 30 28 28 26 26 24 24 22 22

GFSSGP_sfc_temp_009.txt.gz
Temp
66 66 63 63 54 48 43 50 52 54 53 55 59 58 58 57 58 50 58 62 63 66 67 70 74 75 76 76 75 75 76 76 76 76 76 76 76 76 75 74 74 75 75 75 74 73 72 72 73
65 69 63 55 47 40 45 49 54 57 56 57 57 55 55 58 56 56 57 63 64 65 66 67 72 74 75 75 75 75 76 76 76 75 74 74 74 73 73 73 73 73 74 74 73 72 71 71 71
67 68 59 51 42 42 45 52 55 55 54 54 54 56 56 59 55 56 60 62 63 63 64 66 71 74 74 74 75 75 75 76 74 75 74 73 73 73 71 71 71 72 72 72 71 71 70 70 70
64 62 56 49 44 50 52 57 56 53 54 57 55 55 57 60 60 60 61 61 60 61 62 67 71 73 74 73 74 75 75 76 75 74 73 72 71 71 70 70 70 71 71 70 70 69 69 69 69
59 55 48 42 45 51 54 58 56 56 53 55 56 54 55 58 57 59 60 61 60 59 61 64 70 73 73 73 74 74 74 74 73 72 72 71 70 70 70 69 69 69 69 69 69 69 69 69 68
55 53 45 41 45 52 56 58 56 54 53 53 52 50 57 53 56 56 58 57 59 58 59 62 67 69 71 72 73 73 73 72 71 71 70 70 69 69 69 69 69 69 69 69 68 68 67 67 67
53 49 44 41 47 51 56 56 53 54 53 57 55 53 56 51 56 55 55 55 56 57 58 59 61 64 67 69 70 70 71 71 70 70 69 68 67 67 67 67 68 68 68 68 67 66 66 66 65
53 51 42 43 46 51 55 55 56 57 59 55 61 56 56 54 55 54 53 53 53 54 55 55 57 59 59 60 66 67 68 68 68 68 66 65 64 64 65 64 67 67 67 66 65 64 64 63 63
54 47 42 47 48 53 55 54 57 56 54 55 60 56 55 52 53 52 49 50 51 53 53 53 54 54 55 56 59 63 65 66 65 63 62 59 51 53 54 60 65 66 65 65 63 62 61 58 59
53 44 49 53 53 52 55 56 57 54 54 54 57 56 52 52 52 52 49 51 50 51 52 52 51 52 52 57 54 54 55 54 53 52 52 49 48 48 52 56 61 62 62 62 61 59 57 51 46
51 49 52 58 58 57 56 54 58 53 54 56 59 61 52 50 50 53 53 54 54 55 53 52 52 50 50 51 49 48 48 48 48 48 48 47 48 47 45 45 44 44 49 45 47 46 45 45 45
49 55 56 58 58 56 55 57 55 56 66 62 62 59 53 50 51 53 53 54 53 51 54 52 51 51 48 47 48 47 47 45 44 45 46 45 43 43 43 42 42 42 41 41 41 41 43 43 45
51 53 58 58 57 56 56 55 55 56 64 60 61 58 55 52 54 55 56 55 54 52 54 52 52 51 51 48 46 45 45 47 45 44 45 44 43 42 41 41 40 40 40 41 40 41 42 42 43
53 55 56 55 56 56 57 60 54 62 59 60 57 57 55 53 55 52 50 54 53 55 54 53 52 52 51 50 48 48 47 45 44 43 44 44 43 41 41 40 40 39 40 40 40 40 40 40 41
53 52 52 53 53 54 53 52 49 63 56 59 56 56 56 54 54 54 58 56 56 56 55 52 53 52 51 51 49 48 47 46 44 44 43 43 43 41 40 39 38 39 39 39 39 39 39 39 41
48 44 42 53 51 52 54 48 64 59 55 57 57 56 55 57 57 59 61 58 57 56 54 54 56 53 52 51 49 49 46 46 45 43 42 42 42 41 39 38 38 38 38 38 38 38 38 38 38
40 38 40 46 54 53 50 47 58 56 53 55 55 56 57 59 58 57 60 60 57 57 55 52 54 52 52 51 50 47 45 45 44 41 41 41 42 41 40 38 37 37 37 37 38 36 37 36 37
39 35 40 41 52 45 44 46 54 59 53 54 57 58 60 62 64 68 59 58 58 55 55 55 53 53 52 50 46 42 43 41 41 42 41 41 42 40 39 37 37 37 36 36 36 36 35 35 35
42 41 40 46 53 44 47 49 53 59 58 59 53 57 61 61 67 68 58 54 53 51 52 53 51 51 50 46 44 44 45 42 40 40 42 41 40 39 38 36 36 35 35 35 36 35 35 34 34
43 43 43 50 53 45 47 48 52 54 56 60 62 62 63 64 65 65 54 51 50 53 52 51 51 50 51 50 51 46 48 39 41 39 39 40 39 38 37 37 35 35 34 35 35 35 33 32 32
43 41 46 45 45 44 42 45 49 50 52 58 61 62 63 62 62 64 53 50 48 47 49 50 51 49 51 50 45 37 37 36 35 35 38 39 38 37 37 36 35 35 34 34 34 34 34 32 31
44 47 47 43 37 37 41 37 42 52 54 55 56 59 58 59 61 59 53 48 48 50 47 49 49 48 50 48 46 43 45 43 43 44 41 38 37 37 36 36 35 34 33 33 32 34 33 32 31
46 46 44 38 34 33 34 31 37 46 48 50 54 56 59 59 59 60 51 51 49 44 44 46 47 47 48 47 47 45 46 46 38 36 35 36 34 36 35 35 33 33 32 32 33 32 32 31 31
45 41 38 33 34 28 37 36 40 41 48 48 52 57 57 57 62 54 51 48 43 40 42 44 44 45 45 46 46 45 46 40 38 36 37 36 36 34 35 34 33 32 32 32 32 31 32 31 31
42 37 28 25 22 28 37 32 49 52 57 53 58 54 56 55 54 59 50 46 42 39 40 42 43 43 42 43 44 44 45 42 41 38 39 36 35 34 34 34 32 33 32 32 31 31 31 30 30
38 39 28 20 25 36 30 31 48 52 53 49 51 52 51 51 54 49 51 46 41 41 40 43 41 43 42 43 43 43 43 42 41 39 40 38 38 38 36 35 33 32 32 31 31 30 30 29 30
38 34 43 32 21 23 39 42 51 47 50 47 49 47 50 55 53 48 47 43 41 39 39 41 42 42 42 42 43 42 42 39 40 37 38 38 37 37 33 35 33 32 31 31 30 30 29 29 29
42 43 32 29 22 23 32 38 42 47 54 53 49 50 52 52 50 47 45 44 41 40 41 41 41 42 41 41 42 42 41 40 40 36 36 36 36 35 33 33 33 32 31 30 30 29 28 28 28
35 35 36 37 33 31 29 34 53 50 47 48 49 50 51 51 53 50 47 46 45 41 40 41 41 39 39 39 40 41 40 39 39 37 37 36 35 34 33 33 32 31 30 30 29 28 27 27 26
41 39 39 32 32 36 37 38 56 57 55 52 51 55 53 52 54 52 50 49 46 45 43 41 42 40 41 41 40 40 39 37 38 37 36 36 34 33 33 33 33 32 31 30 29 27 26 25 25

GFSSGP_sfc_temp_012.txt.gz
Temp
65 65 62 62 53 47 42 48 49 52 52 54 58 56 56 56 57 51 57 61 62 64 66 69 74 76 76 76 76 75 76 76 77 76 76 76 76 75 75 74 75 75 75 74 74 73 73 72 73
64 67 62 54 46 39 43 47 52 55 55 54 54 54 53 57 56 58 55 62 63 65 66 67 72 75 76 75 75 75 76 76 76 76 76 75 74 74 74 74 74 75 75 74 72 72 71 71 71
66 65 58 49 40 41 44 50 52 53 53 53 52 54 55 58 55 56 59 62 62 63 65 66 72 75 75 75 75 75 75 75 76 75 75 76 75 75 73 72 72 73 72 72 72 71 70 70 70
63 61 55 48 43 48 50 53 53 52 53 54 53 54 57 60 60 59 60 61 61 61 63 67 72 74 74 74 75 75 75 76 77 76 74 74 74 72 71 71 71 71 71 71 70 70 70 70 69
58 54 47 41 43 48 51 54 55 53 52 52 54 54 55 57 56 57 58 60 60 59 61 64 71 73 74 73 74 74 75 75 76 74 73 73 71 71 70 70 70 70 70 70 70 70 69 68 67
55 51 43 40 43 50 53 55 52 51 51 51 51 50 57 52 53 54 57 57 59 58 59 62 67 69 73 72 73 74 74 75 73 72 72 71 70 70 70 69 69 69 69 69 69 68 67 67 66
52 48 42 39 44 50 53 52 50 51 51 56 53 51 57 54 56 54 55 55 56 57 58 59 62 65 68 69 70 71 72 73 72 71 71 70 69 69 69 68 69 69 69 68 67 67 66 66 65
52 50 40 40 43 49 53 51 54 55 57 53 57 55 56 53 53 52 52 53 54 55 57 57 58 60 61 62 66 68 70 69 70 69 68 66 66 67 66 66 68 68 68 66 66 65 65 64 63
53 46 41 45 46 51 52 51 54 54 52 52 59 56 55 50 50 50 48 50 51 53 54 55 55 57 57 58 60 64 66 66 66 64 63 58 52 54 55 59 66 67 66 65 64 63 61 60 60
51 43 47 51 50 52 53 54 55 52 53 54 56 57 51 50 48 50 49 51 50 52 53 53 53 54 54 57 56 56 57 56 55 53 52 49 48 49 53 57 63 64 64 64 63 61 57 51 45
49 48 50 55 56 54 54 52 55 52 53 55 58 61 53 49 48 49 51 53 55 55 53 53 52 52 52 53 51 51 51 50 50 49 48 47 47 47 46 46 45 45 50 45 47 45 44 44 44
47 53 54 55 57 54 54 55 53 55 65 62 61 60 53 50 49 51 51 52 52 51 54 53 51 51 50 50 51 49 50 47 47 46 46 44 43 43 43 42 41 41 41 41 41 41 42 43 44
48 51 55 56 54 55 54 55 53 53 62 60 59 57 56 53 51 53 54 54 52 51 53 52 51 52 51 49 48 48 49 48 46 45 45 44 43 41 41 41 40 40 40 40 40 40 41 42 43
50 52 53 53 55 55 55 59 52 58 56 60 56 56 54 53 54 50 49 53 51 54 53 53 52 53 52 51 49 50 49 46 45 43 45 43 42 41 40 40 39 39 39 39 39 40 40 40 41
51 50 50 50 51 51 51 50 48 61 53 58 57 55 54 54 53 54 59 56 56 56 55 52 53 53 51 52 50 50 48 46 45 45 42 42 42 41 40 39 38 38 38 39 38 39 38 39 41
45 42 42 49 48 50 53 45 61 59 51 56 56 56 56 57 55 57 58 58 57 56 53 54 55 52 52 52 51 50 47 47 46 44 44 43 42 41 39 39 38 37 37 37 37 37 37 37 38
39 37 38 45 52 50 48 45 56 53 51 54 55 57 57 63 62 57 58 59 57 56 56 53 53 52 51 52 51 49 47 47 46 43 43 42 42 41 41 39 37 37 36 36 38 36 37 36 37
38 34 37 39 50 44 44 45 53 56 53 52 58 61 62 62 64 70 62 55 56 55 56 55 52 53 51 51 47 43 41 44 40 43 43 41 42 41 39 37 37 36 35 35 35 36 34 35 35
40 39 39 43 50 43 50 51 53 55 54 57 60 59 60 60 65 66 60 56 52 49 51 52 50 52 50 48 44 43 45 42 41 43 43 42 42 40 40 38 36 35 36 35 36 35 35 34 33
41 41 42 47 50 43 44 46 53 55 57 59 59 61 61 62 63 64 57 52 49 51 50 50 50 50 50 50 49 46 49 42 45 41 41 42 40 40 40 38 37 36 34 34 34 34 32 32 32
40 38 44 42 43 42 40 41 42 49 50 56 58 60 57 59 60 62 55 52 49 46 46 49 50 49 51 49 45 36 37 35 35 35 38 38 40 39 40 38 37 36 36 35 34 33 34 33 31
42 46 45 42 37 32 40 35 42 48 51 50 54 53 53 56 55 54 53 49 50 51 46 47 47 47 49 48 45 46 46 44 44 45 43 40 39 38 38 38 37 36 35 33 34 34 33 34 32
43 44 42 37 34 31 31 30 37 42 45 49 52 53 53 52 52 54 55 52 50 47 43 43 45 45 48 47 46 46 47 48 40 39 39 38 37 37 37 37 36 35 34 33 33 32 32 33 32
44 39 37 32 32 27 35 35 38 39 45 46 54 54 56 54 55 55 53 49 47 41 39 40 42 43 44 45 45 46 47 38 39 36 38 36 35 35 35 36 36 35 34 33 33 32 32 31 32
40 36 27 24 21 27 33 30 44 47 52 52 53 54 54 52 51 49 51 48 46 40 38 39 39 40 40 42 44 44 45 40 42 38 40 37 35 36 36 36 35 34 35 33 32 32 31 31 31
37 38 28 22 22 35 28 31 45 49 52 52 51 51 49 48 49 48 48 44 42 40 38 39 38 39 38 40 41 41 42 41 42 39 40 38 38 39 37 35 35 34 33 33 32 32 31 30 31
36 34 40 33 26 24 37 40 50 48 46 46 48 48 48 48 49 49 49 45 42 39 39 39 38 39 38 38 38 38 39 38 39 36 37 38 39 38 35 36 34 33 33 33 31 32 30 30 30
41 42 32 30 24 20 31 33 39 47 49 51 52 51 47 51 57 53 50 47 43 40 39 39 38 39 38 38 40 41 40 40 39 36 37 37 37 36 33 35 34 33 33 32 31 31 30 30 29
36 36 36 37 33 27 26 34 52 50 49 46 47 48 50 55 51 46 45 45 44 42 40 38 37 37 36 36 37 37 36 36 37 36 37 37 36 35 33 35 34 33 33 32 32 31 29 30 28
40 42 40 32 29 30 33 33 50 52 54 55 48 45 38 39 40 41 41 41 42 43 44 43 40 38 38 37 36 35 36 35 35 35 36 36 35 34 35 35 34 34 34 32 32 30 29 28 27

GFSSGP_sfc_temp_015.txt.gz
Temp
70 68 67 66 58 53 50 54 58 59 62 64 62 63 63 65 63 61 65 66 67 69 70 74 75 76 76 76 76 76 76 77 77 77 77 76 76 76 75 75 75 75 76 75 74 73 73 73 73
68 70 65 59 52 47 50 55 56 60 64 63 63 63 64 65 66 67 66 66 67 70 70 72 73 75 76 76 75 75 76 76 77 77 76 76 76 76 75 74 75 76 75 74 73 73 72 72 71
69 68 62 54 47 47 50 57 60 62 62 63 63 65 66 67 67 67 67 67 67 69 70 71 72 75 76 75 75 75 75 76 76 76 76 76 77 76 74 73 73 74 73 73 72 71 71 71 71
66 64 59 53 48 52 55 60 60 62 62 61 63 63 66 69 69 68 66 66 66 67 69 70 72 75 75 75 75 75 75 76 76 76 77 75 74 74 72 72 72 72 72 72 71 71 71 70 69
60 58 51 48 48 53 55 58 61 60 61 62 62 63 63 68 64 64 64 65 66 66 68 70 71 73 74 74 75 75 75 75 77 76 75 73 73 72 71 71 71 71 71 71 71 70 69 68 68
57 55 48 46 49 54 56 59 61 60 61 61 61 61 64 65 63 64 62 64 66 65 65 67 68 70 73 73 74 74 74 75 76 75 73 72 72 71 71 71 70 70 70 70 69 69 68 67 66
55 51 48 46 48 51 58 59 59 61 60 62 63 61 66 66 64 61 61 62 63 64 64 65 68 69 69 70 71 72 73 73 74 73 72 71 70 70 70 70 70 70 70 69 68 68 67 66 65
54 53 47 46 48 53 59 58 60 61 64 61 64 62 64 68 58 57 58 60 61 62 63 64 65 67 68 71 66 68 70 71 71 69 69 67 67 68 68 67 69 69 69 68 67 66 66 65 64
57 49 44 49 48 55 58 57 60 61 62 60 62 63 66 56 54 56 56 57 58 58 60 61 62 64 65 66 65 65 67 67 67 66 64 63 64 65 65 63 67 68 67 66 65 65 63 61 60
54 46 49 54 53 56 58 58 60 60 61 58 61 63 59 54 54 56 55 58 56 58 59 60 61 62 62 62 64 66 65 66 65 64 62 60 60 60 61 61 64 65 65 65 64 62 58 55 56
52 50 53 56 57 57 56 55 59 58 57 60 61 65 60 55 53 55 57 59 61 61 60 59 59 60 60 61 61 62 62 62 61 60 58 57 56 58 58 58 58 58 56 58 58 55 55 54 55
50 54 55 57 57 55 56 56 56 57 66 66 63 65 62 57 55 55 56 58 58 57 60 59 58 57 58 59 60 60 60 59 58 57 55 54 53 54 54 55 54 54 53 52 52 52 52 52 52
50 52 56 55 55 55 55 56 55 56 63 63 61 59 60 59 58 57 58 59 58 56 58 57 57 58 58 56 58 58 58 57 57 55 54 54 53 52 52 52 51 51 51 51 51 51 51 51 51
52 53 53 54 56 54 55 59 55 60 60 61 58 60 57 57 60 57 53 57 55 58 58 58 57 58 58 57 57 58 58 57 55 54 54 52 53 52 51 50 50 50 50 50 50 51 51 50 50
52 51 52 51 53 52 52 51 49 62 56 58 61 59 58 57 57 58 63 59 59 59 60 57 57 58 57 57 56 57 56 54 54 53 51 51 51 51 50 49 48 49 48 48 48 48 48 50 50
47 45 43 51 49 51 54 48 60 61 55 59 59 62 60 63 60 60 62 61 61 59 57 58 58 56 57 57 57 57 55 54 55 53 52 50 50 50 49 49 48 47 47 48 48 48 48 49 50
41 39 40 45 52 50 49 47 55 56 54 56 60 63 64 64 67 66 60 61 60 59 59 56 56 56 56 57 57 56 54 54 54 52 51 50 49 49 49 48 47 46 46 47 47 46 48 48 48
40 36 38 41 52 46 46 45 54 57 57 59 61 61 61 62 65 69 65 60 59 58 59 58 55 57 55 56 55 53 51 53 52 51 50 49 50 48 48 47 46 45 45 45 45 46 44 47 47
42 40 39 44 50 44 50 50 53 56 56 57 60 62 62 62 66 63 61 60 58 54 54 55 53 54 54 53 50 48 48 50 48 50 50 49 50 48 47 47 45 44 44 45 45 44 44 43 44
42 40 41 45 49 43 44 47 54 56 57 59 59 61 58 59 62 61 58 58 56 56 53 52 53 53 53 54 53 54 53 51 50 50 48 49 48 47 47 46 45 44 43 43 43 43 42 43 42
39 39 43 41 42 43 40 41 43 53 50 53 57 56 56 55 56 59 58 56 55 54 52 51 52 52 53 53 52 43 44 43 44 44 44 45 46 45 47 45 45 43 44 43 43 43 43 43 41
40 45 43 40 37 34 42 34 40 50 53 50 53 54 54 54 56 56 54 56 53 52 51 49 50 50 51 52 49 49 50 47 47 49 47 46 45 45 46 45 44 43 43 43 42 43 44 43 42
42 42 40 38 35 33 34 32 39 44 46 51 54 55 55 54 53 53 54 53 52 47 45 46 47 48 50 49 49 49 49 51 48 49 45 44 43 44 43 43 43 43 42 42 42 41 41 43 43
44 40 38 33 34 28 36 35 37 41 47 48 56 55 54 53 53 58 54 50 48 45 42 43 44 44 46 47 47 48 48 45 45 44 43 42 41 41 41 42 42 43 42 41 41 42 41 42 42
41 38 29 27 23 28 34 31 41 47 50 52 54 55 52 51 51 52 52 48 47 44 41 42 42 43 43 44 45 46 47 44 45 44 44 41 40 39 40 40 41 41 42 41 41 40 41 40 41
39 40 34 22 24 34 28 32 43 48 50 51 48 50 50 51 50 48 46 45 44 44 43 42 41 41 42 42 42 43 43 43 44 44 44 43 42 42 42 40 42 41 40 39 40 41 41 41 41
37 36 43 33 28 25 36 40 51 47 49 48 49 46 41 41 41 42 43 43 43 43 43 41 40 40 41 41 41 41 41 41 42 40 41 42 42 43 41 40 40 39 39 39 38 38 37 38 39
42 43 33 31 24 23 32 31 38 43 43 44 36 35 37 39 40 41 42 42 43 43 44 44 43 41 40 40 40 41 40 40 40 39 39 39 40 40 38 38 39 38 39 39 38 38 37 37 37
35 35 37 38 33 25 26 32 43 40 35 33 35 36 37 38 39 40 41 42 43 43 43 42 42 42 41 42 40 39 39 39 38 37 38 39 38 38 37 37 38 38 37 37 37 38 36 36 35
40 40 39 31 28 29 31 31 50 38 37 35 34 36 37 38 39 40 41 41 41 41 41 41 41 40 40 40 40 39 39 37 37 38 38 38 37 37 37 37 37 37 37 36 36 36 35 35 33

GFSSGP_sfc_temp_018.txt.gz
Temp
79 83 87 84 71 69 65 66 70 69 71 75 75 74 74 75 74 69 76 80 78 81 82 79 75 77 77 76 76 76 76 77 77 77 77 77 76 76 76 75 75 76 76 75 74 74 73 73 72
84 82 85 80 67 63 68 70 67 72 74 74 74 73 73 75 80 80 79 78 79 81 81 81 73 76 76 76 75 75 76 77 77 77 77 76 76 76 75 75 75 76 76 74 73 73 72 72 71
81 81 79 73 67 65 66 70 73 73 74 74 73 76 76 77 80 81 79 79 78 81 81 81 73 75 76 76 75 75 76 76 77 77 76 76 76 76 74 73 74 75 74 73 72 72 71 71 70
83 83 78 67 64 69 68 74 74 74 73 73 75 73 78 82 80 80 77 79 78 80 80 76 73 75 75 75 75 75 75 76 76 76 76 77 75 75 73 72 73 73 73 72 72 71 71 69 69
83 79 69 63 64 68 72 73 72 72 73 74 73 75 76 79 78 77 77 78 78 79 80 79 72 74 75 75 75 75 75 75 76 76 75 75 74 73 72 72 72 72 71 71 71 70 69 68 68
76 76 65 63 65 69 72 73 72 72 74 73 72 74 78 79 76 79 77 78 80 79 77 78 70 71 72 74 74 74 75 75 75 75 74 74 73 73 71 71 71 71 71 71 70 69 68 67 67
72 70 65 63 64 65 71 72 72 74 73 75 77 73 81 81 78 75 76 79 78 80 76 77 78 74 68 70 71 72 73 74 74 74 73 72 72 71 71 70 70 71 71 70 69 68 67 67 65
75 73 61 64 66 65 72 71 74 74 76 74 77 75 78 81 72 72 73 75 76 76 76 76 77 78 78 77 67 68 70 71 72 71 70 68 68 68 68 67 69 70 70 69 68 67 66 65 64
71 67 62 64 62 70 73 71 73 75 75 74 76 78 84 71 69 71 70 70 72 72 74 76 75 76 78 78 73 66 67 68 67 68 65 65 73 72 70 68 68 69 68 68 67 66 64 62 61
70 64 66 71 72 71 73 71 74 72 75 76 74 80 78 70 71 73 73 74 71 72 72 74 74 75 75 75 76 75 74 75 75 75 68 72 72 72 71 66 64 66 66 66 65 63 60 60 68
66 65 71 70 72 71 70 70 72 71 70 77 77 81 82 75 73 72 75 77 78 77 75 72 73 74 74 73 74 75 75 75 75 73 71 71 70 68 68 69 69 69 63 68 66 62 65 64 67
62 67 68 69 68 67 67 70 68 71 75 82 82 81 79 78 76 75 74 76 76 75 76 74 73 72 72 74 73 74 74 74 72 71 69 68 67 66 67 68 68 66 66 65 63 63 62 62 61
61 67 68 69 66 67 68 66 68 71 78 80 80 75 73 76 77 79 77 76 76 74 74 74 72 71 71 70 73 73 72 72 72 70 68 68 67 65 66 66 66 66 64 63 63 62 61 60 60
66 64 66 67 67 67 63 69 67 73 77 76 76 75 78 75 76 78 76 73 72 73 73 74 72 71 72 70 71 71 71 72 71 69 67 66 67 65 65 64 64 64 63 63 63 62 61 61 60
64 60 66 68 66 64 64 61 61 75 75 72 76 79 78 77 78 76 79 77 75 74 74 73 72 71 70 69 70 71 70 70 69 68 67 65 65 65 64 63 62 62 62 60 61 60 60 60 59
60 59 56 69 60 62 64 59 72 78 72 72 75 78 78 80 81 82 80 78 79 76 74 73 70 69 69 69 70 69 70 68 68 68 66 64 63 64 63 62 61 61 60 60 60 60 59 60 59
59 54 55 57 64 60 60 59 70 72 71 70 73 75 76 77 78 80 81 79 78 78 76 72 71 68 68 69 69 69 68 67 68 68 66 63 62 62 63 62 61 59 59 59 59 59 60 58 58
57 55 55 53 65 62 59 58 63 68 67 66 70 72 74 75 76 78 77 77 77 77 75 74 71 69 68 67 67 68 66 66 67 66 65 63 62 60 61 60 59 57 57 57 57 57 57 59 58
58 56 54 59 64 57 58 59 63 67 67 67 68 70 72 73 75 76 74 73 72 72 71 70 69 68 67 65 63 63 62 62 63 65 63 63 61 60 59 60 59 56 55 56 56 56 53 53 56
55 52 53 59 62 54 57 56 62 65 65 68 69 69 70 71 73 72 70 69 67 67 67 66 66 67 65 65 65 65 64 64 63 63 61 62 60 59 58 58 57 55 55 55 54 53 53 55 54
55 51 54 53 57 57 53 55 56 67 67 68 66 68 67 67 67 67 66 64 62 60 59 61 62 64 64 64 64 63 61 62 60 59 58 58 58 57 57 58 56 55 56 54 53 53 53 52 52
49 59 54 50 48 47 53 44 57 63 64 66 66 67 67 66 64 62 59 58 56 55 57 57 58 60 60 62 60 58 58 57 59 58 57 56 56 56 57 57 56 55 54 54 53 54 55 56 51
53 53 50 48 47 45 49 44 56 57 57 64 66 65 63 61 59 56 55 54 55 53 53 55 56 56 57 58 58 57 56 60 61 59 56 54 53 54 55 55 55 54 53 53 52 51 52 54 56
53 52 49 47 47 39 51 48 52 57 58 61 63 58 56 55 54 53 53 53 52 53 52 53 54 53 54 55 55 55 55 56 55 55 54 53 52 52 53 53 54 54 53 52 51 51 51 52 54
50 48 41 38 39 39 46 44 50 59 60 58 55 51 51 52 51 50 50 50 50 49 50 50 51 50 52 52 53 53 53 54 54 54 53 53 51 50 51 51 51 52 52 52 51 50 50 50 51
47 49 41 28 33 39 43 40 51 62 57 53 50 49 49 48 50 49 49 49 49 49 50 50 49 48 49 49 49 51 51 52 53 54 54 54 53 52 52 50 50 51 51 51 50 49 49 49 50
47 43 51 39 37 34 43 50 57 56 51 49 48 48 46 47 47 47 48 49 49 49 49 49 49 48 48 49 49 49 49 49 49 51 51 52 53 53 52 50 48 49 49 49 49 48 47 48 48
48 53 40 40 28 28 37 41 45 47 45 45 45 44 44 45 46 47 48 48 48 49 49 49 49 47 47 47 47 47 47 48 48 48 47 48 50 50 48 49 47 48 48 47 47 46 47 47 47
45 42 43 42 37 28 28 39 51 46 44 41 41 41 42 43 44 46 47 48 47 48 48 48 47 46 45 45 46 46 46 46 46 46 46 46 47 47 46 46 45 46 45 46 45 46 46 44 44
46 44 45 35 32 37 35 37 46 42 41 40 38 39 41 43 44 45 46 45 45 45 45 45 45 45 44 44 44 44 45 44 44 44 45 45 44 45 45 45 43 43 44 44 43 43 43 42 42

GFSSGP_sfc_temp_021.txt.gz
Temp
82 91 92 86 72 72 68 70 77 74 76 80 80 78 77 79 76 69 82 86 85 86 86 78 75 77 77 76 76 76 76 77 77 77 77 77 76 76 76 76 76 76 76 75 75 74 73 73 72
91 89 88 82 69 66 69 75 72 76 79 80 80 79 78 77 85 85 84 84 85 86 86 82 73 76 76 76 76 76 76 77 77 77 77 77 76 76 76 75 75 76 75 74 74 73 72 72 71
87 88 81 75 70 67 67 75 76 79 81 79 78 81 80 80 86 86 84 85 85 85 86 83 73 76 76 76 75 75 76 76 77 77 77 76 76 76 74 74 74 75 74 73 73 72 72 71 70
87 86 83 70 67 73 73 78 80 79 80 79 80 77 84 88 85 86 83 85 84 85 85 75 74 75 76 75 75 75 76 76 76 76 76 76 76 75 74 73 73 73 73 73 72 72 71 70 69
87 83 71 68 69 74 78 80 78 76 78 79 79 78 81 86 87 84 83 84 83 84 84 81 73 74 75 75 75 75 75 75 76 76 76 76 75 75 73 72 72 72 72 72 72 71 69 69 68
79 80 68 67 70 76 78 79 78 78 79 80 76 79 82 86 83 85 84 84 85 84 82 82 71 71 73 74 74 74 75 75 75 75 75 75 74 75 73 72 72 71 71 71 71 69 68 68 67
74 73 68 68 70 72 76 79 77 78 79 80 83 75 85 86 85 83 83 85 84 85 81 81 79 74 68 71 71 72 73 74 74 74 73 73 73 73 71 71 71 71 71 71 70 68 68 67 66
78 75 68 71 70 69 78 77 80 79 79 81 83 77 80 83 80 80 81 83 83 83 82 80 81 79 78 77 67 69 71 71 72 71 70 68 69 69 69 68 69 71 71 70 69 68 67 66 64
78 69 66 69 69 74 79 75 79 83 78 82 83 81 86 81 78 78 77 78 79 79 80 80 79 80 79 79 75 66 67 68 68 68 66 65 74 72 70 68 68 70 69 69 68 67 65 63 61
72 68 70 78 78 75 79 77 77 77 78 80 83 87 87 86 79 78 78 79 77 77 78 79 79 79 79 80 80 76 74 75 75 75 73 74 73 74 72 67 65 67 66 67 67 65 62 60 67
73 66 76 77 78 78 75 74 79 74 72 80 81 85 87 86 83 80 80 82 83 82 80 78 78 79 78 78 79 78 74 72 76 76 74 74 73 73 71 70 68 68 63 67 65 62 64 67 68
65 73 73 75 76 71 71 77 73 74 76 82 83 85 84 82 82 83 82 82 82 83 83 81 79 77 77 78 77 77 77 74 75 76 75 72 71 69 68 69 69 68 67 67 66 64 64 64 64
66 70 75 75 74 72 72 70 72 73 80 84 84 83 82 82 81 84 84 84 82 81 82 82 79 77 77 75 77 76 76 76 76 76 74 72 70 68 68 69 69 68 67 67 64 63 62 62 62
73 69 70 73 72 72 67 69 73 76 82 82 81 81 84 83 84 84 83 82 81 80 80 81 80 77 77 76 75 76 76 77 75 75 73 71 70 68 68 67 67 67 67 66 64 63 62 61 61
68 62 69 71 74 71 70 64 67 78 81 78 78 81 83 84 86 83 85 84 84 83 81 79 80 78 76 75 74 75 75 75 74 73 72 70 69 69 67 66 66 66 65 64 63 63 63 61 61
63 66 58 71 68 68 66 59 73 78 76 75 78 79 80 82 84 86 86 85 86 83 81 80 78 77 75 75 74 74 75 74 74 73 72 69 68 69 67 65 64 65 63 62 62 61 60 60 60
64 56 60 64 73 66 63 60 71 75 73 72 74 76 77 79 82 83 82 81 81 82 81 80 79 76 74 74 75 73 73 73 73 73 71 70 67 67 66 65 64 63 61 61 61 60 60 59 59
58 60 62 61 69 68 64 63 69 73 73 73 74 76 77 77 77 77 75 74 75 76 77 77 77 76 74 73 72 72 72 71 72 71 70 69 67 65 65 64 63 61 59 59 59 58 60 59 58
62 59 58 62 68 63 61 61 65 71 72 72 74 76 77 75 75 72 69 68 67 67 67 70 71 73 72 70 68 68 67 68 69 69 69 68 66 64 63 62 62 59 57 57 58 58 56 56 57
59 56 56 62 66 62 60 58 63 67 70 73 73 73 73 72 69 67 65 63 61 61 61 64 66 69 70 69 68 69 69 69 69 68 67 67 65 63 61 61 60 58 57 57 56 55 53 55 55
58 56 56 56 60 61 58 55 63 68 73 74 74 71 67 65 62 61 60 59 58 57 58 60 62 64 66 67 67 66 65 63 64 64 64 63 63 61 61 60 59 57 57 55 55 54 53 51 52
51 61 56 54 51 48 57 43 57 65 68 68 68 64 62 60 59 58 57 56 55 55 57 59 59 60 61 63 62 61 61 59 63 63 62 61 60 60 60 59 59 57 56 55 53 55 54 54 49
55 56 55 53 50 50 53 48 56 65 61 62 60 58 57 56 56 55 54 54 55 54 54 57 57 57 57 59 59 59 57 59 62 62 58 58 58 57 58 58 57 56 55 54 53 52 52 54 53
57 54 55 54 51 41 53 51 53 58 59 60 58 56 56 56 55 55 55 55 54 54 54 54 54 54 54 55 56 55 55 55 56 57 55 56 56 55 55 55 56 56 55 53 52 51 51 52 54
53 50 41 40 41 39 54 47 53 61 63 61 55 53 54 54 53 53 52 52 52 51 52 52 52 51 53 53 53 53 53 53 54 54 54 55 55 54 54 54 52 53 54 53 52 50 50 50 50
53 52 41 31 35 41 48 42 52 63 58 56 54 53 52 51 51 50 51 51 51 50 51 51 49 49 50 51 51 51 51 51 52 53 53 54 54 55 56 54 53 52 52 53 51 50 49 50 50
52 45 54 40 39 35 43 51 60 61 53 53 52 51 49 49 50 50 51 50 50 50 50 50 49 48 48 48 49 49 49 48 48 49 50 51 52 53 53 53 51 50 50 50 50 48 47 48 48
51 52 41 43 27 28 39 43 48 54 52 50 47 46 47 48 49 50 50 49 49 49 50 49 49 47 47 47 47 48 47 48 48 48 46 46 48 49 49 49 49 48 48 48 47 46 46 46 47
48 44 46 45 40 30 29 39 50 48 49 45 43 44 44 45 46 47 48 48 48 48 48 47 47 45 45 45 45 45 45 45 45 44 45 44 44 45 45 45 44 45 45 46 45 45 45 44 44
50 45 46 35 32 38 35 34 51 46 44 44 42 43 44 44 45 46 47 46 46 46 46 46 46 44 43 43 43 43 43 43 42 42 42 41 42 43 43 43 42 42 43 44 43 43 42 42 42

GFSSGP_sfc_temp_027.txt.gz
Temp
69 72 66 67 56 52 48 54 57 61 59 62 66 63 60 62 63 55 67 73 73 72 74 74 75 77 77 76 76 76 76 77 77 77 77 77 77 77 77 77 76 76 76 76 75 75 74 73 72
68 77 68 59 50 45 49 55 59 63 65 64 63 63 60 61 69 67 67 74 74 73 74 74 73 76 76 76 76 76 76 77 77 77 77 77 77 76 76 76 75 75 75 75 74 74 72 72 71
72 75 61 54 48 47 50 55 56 63 64 62 61 64 62 64 67 68 69 74 74 72 73 74 73 75 76 76 75 75 76 76 77 77 77 77 76 76 75 75 75 75 74 74 74 73 72 71 70
69 66 61 52 48 53 55 56 61 61 62 63 61 59 66 69 69 69 73 74 72 71 74 72 73 75 76 75 75 75 75 76 76 77 77 76 76 75 74 74 75 75 74 73 73 72 71 70 69
66 59 51 48 51 55 58 63 63 61 61 62 63 60 63 68 69 70 71 72 70 70 71 71 73 74 75 75 75 75 75 75 76 76 76 76 75 74 73 74 75 73 73 73 72 71 70 69 68
59 57 48 45 51 58 58 63 61 61 63 61 59 57 60 65 66 67 70 69 71 70 69 71 70 71 73 74 74 74 75 75 75 75 75 75 75 73 72 73 74 73 72 72 71 70 69 68 67
55 52 47 47 53 58 60 62 58 58 61 60 62 57 59 62 65 69 67 67 70 70 68 69 70 71 69 71 71 72 73 74 74 74 74 73 73 73 72 72 72 72 72 72 70 69 68 67 66
58 54 47 48 52 55 61 61 64 60 63 65 64 57 57 65 68 68 67 66 67 68 67 67 68 69 69 70 68 69 70 71 71 71 70 69 69 69 69 68 70 71 71 71 69 68 67 66 65
61 49 46 51 55 56 62 61 65 65 61 62 67 65 68 64 66 62 60 63 63 67 66 65 66 67 68 67 67 65 67 68 68 67 66 65 64 65 65 64 68 70 70 70 69 68 66 64 62
55 47 52 58 55 55 59 57 58 61 61 61 64 66 67 66 61 62 60 61 61 63 65 65 64 66 66 71 68 66 67 67 67 66 67 65 62 62 63 61 65 67 67 68 68 67 64 59 52
56 51 57 62 62 60 60 61 61 58 55 62 62 65 67 66 64 62 61 61 62 63 63 65 65 64 65 68 65 66 68 66 65 66 66 64 62 60 59 57 58 58 60 58 60 58 53 52 51
52 61 61 62 63 61 58 60 59 58 63 66 66 66 64 67 67 64 62 63 63 63 65 65 64 66 64 67 64 66 67 66 66 67 66 66 64 61 56 55 55 54 53 53 51 50 50 50 52
55 57 62 62 62 61 61 58 58 59 66 65 66 68 65 65 66 66 66 66 65 64 65 63 64 65 67 63 62 64 65 65 65 66 66 67 65 62 58 54 54 53 52 51 49 49 49 50 51
56 56 58 60 62 60 59 57 57 62 62 65 65 64 64 65 64 60 61 61 62 63 64 63 64 66 64 66 63 62 62 63 63 62 64 66 64 61 58 54 54 53 53 50 49 48 47 48 48
57 53 55 58 58 58 58 53 56 62 61 63 63 59 64 62 58 56 57 56 57 58 61 62 62 62 63 62 62 61 61 62 61 62 62 62 63 61 57 55 53 53 51 50 48 48 47 46 48
52 47 44 56 57 56 56 47 59 63 60 62 63 58 61 56 55 54 55 55 55 56 56 59 62 61 62 61 61 61 61 60 60 60 60 60 62 61 56 54 52 52 50 49 47 46 45 44 45
45 41 44 51 58 55 52 47 58 63 59 59 58 57 55 53 53 53 53 52 53 53 54 56 57 57 60 59 59 60 61 59 59 59 60 61 60 59 58 53 52 51 49 47 49 44 45 42 42
41 41 46 45 55 52 48 48 54 58 59 60 56 51 51 50 50 52 51 52 52 52 53 54 56 56 56 56 56 56 56 57 57 58 61 61 61 58 56 54 51 49 47 46 45 45 43 43 43
46 44 42 48 55 49 50 48 53 57 56 56 51 50 49 49 50 50 50 49 49 50 50 51 52 53 54 52 52 52 53 54 55 59 61 60 59 58 55 54 53 48 48 47 46 44 44 42 41
47 43 43 48 53 49 48 47 53 56 54 53 51 48 47 47 47 48 47 47 46 47 47 48 50 51 52 52 50 51 50 50 51 54 56 60 58 57 55 53 51 47 45 45 44 44 41 42 42
45 43 43 45 47 48 44 42 49 54 51 51 49 49 48 46 45 45 45 44 45 45 45 47 48 49 49 50 52 50 49 49 49 50 51 54 56 55 55 53 51 49 49 48 45 44 44 41 41
42 48 48 46 40 35 43 31 42 48 46 46 45 43 43 44 45 45 44 43 44 43 45 46 47 47 48 47 46 44 45 43 44 45 46 48 50 51 54 53 52 50 48 47 44 45 44 41 39
46 47 45 43 38 34 38 31 39 44 40 41 41 42 42 43 43 43 42 44 43 42 42 43 45 45 46 45 44 43 42 42 43 44 44 45 46 48 48 48 50 49 48 46 45 44 42 40 41
49 44 43 39 37 27 36 36 36 42 44 41 42 42 43 42 42 42 43 43 41 41 40 42 43 43 43 44 43 42 40 41 40 40 40 41 42 44 45 46 45 45 46 45 44 44 43 44 42
45 38 28 26 23 26 37 34 40 46 46 45 40 39 40 40 40 40 40 40 41 40 40 42 40 40 41 41 41 40 40 39 39 39 38 38 39 39 41 41 41 41 43 42 41 41 40 40 43
41 41 29 19 22 25 37 30 38 41 43 43 42 40 41 40 40 39 39 39 39 39 39 38 38 38 38 39 38 38 39 38 38 38 38 37 38 39 40 39 39 39 40 41 40 38 37 37 38
41 37 42 32 20 21 30 38 41 41 40 40 39 39 39 40 39 39 40 39 39 38 38 38 37 37 37 37 37 37 37 38 38 38 37 37 36 40 38 37 37 37 37 37 37 36 35 35 35
43 44 32 30 16 16 27 30 33 36 36 38 37 37 39 39 41 41 41 41 41 40 38 38 38 36 36 37 36 36 36 36 36 36 34 34 35 36 35 35 35 35 36 36 35 34 34 34 34
39 37 38 37 31 21 19 28 39 38 38 35 36 38 38 39 39 39 39 39 39 38 38 39 39 38 37 36 36 36 35 35 34 35 34 33 32 34 34 33 32 33 33 33 33 33 33 33 33
43 39 39 28 26 27 29 32 41 39 38 38 38 39 39 39 39 39 40 39 39 39 39 37 36 36 36 37 36 36 36 35 34 32 34 32 32 32 33 33 32 31 31 31 31 32 33 32 32

GFSSGP_sfc_temp_030.txt.gz
Temp
67 68 64 65 56 50 46 51 54 57 56 60 63 60 58 59 60 53 65 70 70 70 73 74 75 77 77 76 76 76 76 77 77 77 77 77 77 77 77 76 76 76 76 76 75 75 73 72 72
66 73 65 56 49 44 47 53 55 59 62 61 61 60 59 57 64 64 65 71 71 71 73 73 73 76 76 76 75 76 76 77 77 77 77 77 77 77 77 76 76 75 75 75 74 73 72 72 72
70 71 60 52 45 45 48 53 54 59 60 60 58 61 59 61 63 66 68 70 69 70 72 73 73 75 76 75 75 75 76 76 77 77 77 77 77 76 76 75 75 75 74 74 74 73 72 71 70
67 64 58 51 46 50 55 56 58 58 60 61 59 56 63 66 66 69 70 69 68 68 71 71 73 75 76 75 75 75 76 76 76 77 77 76 76 75 74 74 74 76 74 74 73 72 71 70 69
62 56 49 46 47 52 54 60 59 58 58 59 59 56 60 66 65 65 67 68 67 67 69 71 73 74 75 75 75 75 75 75 76 76 76 76 75 74 74 74 75 73 73 73 72 71 70 69 68
58 54 46 43 48 54 56 59 59 57 57 59 58 56 59 63 63 65 67 66 67 67 68 70 69 71 73 74 74 74 74 75 75 75 75 75 74 74 73 74 74 74 73 72 71 70 69 68 67
54 49 44 43 48 53 57 59 56 56 55 57 60 55 59 62 67 65 64 63 65 66 67 68 70 70 69 70 71 72 73 73 74 74 74 73 72 72 72 72 73 73 72 72 70 69 68 67 67
55 52 44 44 49 51 60 62 60 58 58 64 64 56 56 62 65 62 60 63 62 65 66 67 68 69 70 70 68 69 70 71 71 71 70 69 69 69 69 68 70 72 71 71 69 68 67 66 65
57 48 44 48 50 52 59 59 63 60 57 59 63 60 64 62 62 59 58 61 61 64 63 65 67 68 68 68 68 67 68 68 68 67 66 65 65 65 65 64 68 70 70 70 69 68 67 64 63
53 45 50 55 54 52 58 55 57 57 57 59 58 62 63 60 59 61 59 60 59 61 62 62 64 66 67 69 67 68 69 70 69 67 66 67 65 62 63 61 65 67 67 69 68 67 64 58 50
52 49 54 57 58 57 57 57 57 54 54 59 62 59 63 60 60 60 59 59 60 60 61 62 64 65 66 67 67 66 68 67 66 65 64 65 64 62 59 58 59 58 60 58 61 58 52 50 49
50 58 58 60 59 57 55 59 58 56 62 62 63 61 60 62 61 59 59 60 57 59 61 62 62 63 64 65 65 66 68 68 67 63 63 64 62 61 59 57 56 55 54 53 52 50 49 49 50
52 54 59 61 59 57 58 57 56 58 62 62 62 63 60 59 58 55 55 55 55 55 57 60 60 63 64 63 63 65 67 68 67 65 63 65 63 62 60 58 56 53 52 51 49 48 48 47 49
53 54 57 58 59 58 56 53 56 61 57 63 62 60 56 53 52 51 52 52 53 55 55 56 60 62 62 63 62 64 65 66 64 64 63 64 65 62 60 58 54 52 51 50 49 48 46 46 47
55 52 54 56 55 55 55 51 53 61 58 60 59 55 52 51 51 48 50 50 50 52 53 54 57 59 60 63 61 61 62 61 62 61 61 62 62 63 60 57 55 53 51 50 48 46 45 44 46
49 46 43 54 54 54 54 47 58 61 57 57 53 48 49 49 49 48 49 49 50 50 51 53 56 55 58 59 59 60 60 59 60 60 60 60 60 61 59 57 57 56 53 49 47 45 44 43 43
43 40 42 50 56 53 50 46 56 61 56 54 50 46 47 46 47 47 48 48 48 48 49 51 53 52 55 58 58 58 59 58 58 59 61 61 61 60 59 57 57 55 53 47 48 44 44 42 41
40 39 42 43 51 49 49 48 53 57 54 51 45 44 44 44 44 47 47 47 47 47 48 49 51 51 52 53 54 54 55 56 56 58 60 60 59 58 57 55 54 53 51 45 45 45 42 42 42
44 42 41 45 52 46 47 46 52 54 54 48 44 44 44 44 46 46 46 46 46 46 46 47 48 48 50 48 48 50 50 51 55 58 59 59 59 57 56 54 53 51 51 51 47 44 43 41 40
44 41 41 46 49 46 46 47 52 51 47 46 44 42 42 42 43 44 44 44 43 43 45 46 46 46 47 48 46 47 47 48 48 53 55 55 57 56 55 54 53 51 48 48 47 47 41 41 40
43 41 41 43 45 45 42 41 46 44 46 46 44 43 43 41 40 41 42 41 42 41 41 44 45 45 45 46 48 48 47 47 47 47 49 51 52 53 54 53 51 50 49 47 47 46 46 43 39
40 47 46 43 39 35 41 30 40 42 41 41 40 38 38 39 40 41 40 40 40 39 41 43 44 44 45 44 43 41 41 40 40 41 43 45 46 47 49 50 51 49 48 47 46 47 46 45 42
45 46 44 41 36 33 34 31 36 40 37 37 37 38 38 39 39 39 39 40 40 39 38 40 42 42 42 42 42 41 39 39 40 40 40 40 41 42 43 43 45 47 47 46 45 45 43 44 45
48 43 40 36 34 26 34 34 34 39 40 37 38 38 39 38 38 39 40 40 38 37 37 38 40 39 40 40 40 39 37 38 37 37 37 38 39 40 40 41 40 41 41 42 44 44 43 43 44
43 38 29 25 23 26 35 30 37 38 41 41 37 36 37 37 37 37 37 37 37 36 36 39 37 37 38 38 38 37 36 36 36 35 35 35 36 37 38 37 37 38 38 38 38 40 41 41 42
39 39 28 19 21 25 32 29 35 37 38 39 39 38 38 37 38 37 37 37 37 37 36 36 35 35 36 36 36 36 36 35 36 35 35 35 35 36 37 37 36 36 37 37 36 35 35 38 39
39 35 39 31 16 20 29 31 36 37 35 36 36 37 36 37 37 37 37 38 38 37 37 37 35 34 34 34 34 35 34 34 35 34 35 35 36 37 36 36 35 36 36 35 34 32 32 33 34
41 43 32 29 17 17 26 28 30 32 33 35 35 36 37 37 37 37 37 37 37 38 37 37 36 35 35 35 35 35 33 34 32 31 30 30 32 32 32 32 34 35 35 34 33 32 33 31 32
36 35 35 34 28 18 15 26 36 37 37 35 37 38 37 37 37 37 37 39 39 37 37 36 35 35 35 34 34 34 33 33 33 32 32 30 30 30 30 30 30 31 32 31 32 33 32 31 31
39 37 37 26 24 24 26 30 40 40 39 38 37 38 37 37 37 35 35 35 35 34 34 34 34 34 34 35 34 34 33 31 30 30 30 31 30 31 29 30 30 30 30 30 30 30 31 31 31

GFSSGP_sfc_temp_033.txt.gz
Temp
66 66 63 63 55 50 44 49 52 55 54 57 60 58 56 58 58 52 64 67 68 68 72 73 75 77 77 76 76 76 76 77 77 77 77 77 77 77 77 76 75 76 76 76 76 74 73 72 72
65 70 64 55 48 42 46 50 53 56 58 59 59 58 56 55 62 62 62 68 68 69 72 73 73 76 76 76 75 75 76 77 77 77 77 77 76 77 77 76 75 75 75 75 74 73 72 72 72
68 68 59 50 43 44 46 51 52 57 58 57 56 59 57 59 62 62 66 69 68 68 71 72 72 75 76 75 75 75 76 76 77 77 77 77 77 76 76 75 75 74 74 74 74 72 71 71 70
65 63 56 50 44 48 49 52 55 56 58 59 56 54 60 62 63 64 66 67 66 67 69 71 73 75 75 75 75 75 75 76 76 76 77 77 77 75 75 74 75 75 73 73 73 72 70 70 69
60 55 48 45 45 49 52 56 56 56 55 56 56 55 58 63 63 63 64 66 65 66 68 69 72 74 75 75 75 75 75 75 76 76 76 76 75 74 74 74 74 75 75 73 72 71 69 68 68
56 52 46 42 45 52 54 55 56 55 55 57 55 54 58 62 61 62 64 63 65 66 67 69 69 71 73 74 74 74 75 75 75 75 75 75 75 74 74 74 74 74 74 72 71 70 68 67 67
53 48 43 40 46 51 55 59 53 53 54 56 57 53 59 62 66 63 62 61 62 65 66 67 69 69 68 71 73 72 73 73 74 74 74 73 72 72 72 72 73 74 73 72 70 69 68 67 67
53 50 42 41 46 48 57 58 57 55 57 62 61 55 54 60 61 60 58 59 59 62 65 66 67 69 69 69 67 68 70 71 71 71 69 68 69 69 69 68 70 72 72 71 69 68 67 66 66
54 47 43 45 47 50 56 57 57 58 55 57 60 58 62 62 59 57 56 60 59 62 62 64 65 68 71 71 68 66 67 68 68 67 65 64 65 65 65 64 68 71 70 70 69 68 67 65 63
51 44 48 52 51 50 56 53 55 56 58 54 56 63 63 60 56 56 57 58 58 59 60 61 64 66 68 70 70 68 69 69 69 68 66 65 66 65 63 61 65 67 67 69 69 68 65 57 49
49 48 52 55 57 55 54 53 54 52 50 57 58 59 60 60 59 57 56 55 56 58 59 61 62 64 66 69 69 68 66 66 67 67 66 65 64 62 62 61 60 59 60 58 61 58 51 50 48
48 55 54 57 57 54 53 56 56 54 61 59 58 57 56 55 52 51 50 50 50 52 55 56 59 61 63 65 68 69 68 65 65 64 64 63 62 61 60 59 59 57 55 54 53 51 50 48 49
49 52 56 58 57 55 55 55 54 57 61 59 59 56 52 50 49 49 50 50 50 50 51 52 53 59 62 62 62 66 68 68 66 65 63 61 61 61 60 59 58 57 56 52 51 49 48 47 47
53 52 55 56 57 54 54 51 52 59 57 58 57 50 48 47 47 47 48 48 48 50 50 52 53 55 60 61 60 63 67 68 66 65 64 61 60 59 60 58 57 56 55 51 50 49 47 45 45
53 51 53 54 53 53 54 49 52 59 57 55 52 46 46 46 46 44 46 46 46 47 49 50 53 54 58 59 59 60 64 65 63 64 62 61 61 61 61 58 56 57 55 51 49 47 46 44 45
47 45 42 51 51 52 52 47 57 58 55 51 45 42 44 45 45 45 45 45 46 46 47 50 52 51 55 58 58 59 59 59 60 60 61 61 61 61 59 57 56 56 54 53 51 49 44 44 43
42 38 39 47 52 50 49 46 55 57 55 48 42 42 43 43 44 44 45 44 45 45 46 47 49 49 51 54 56 57 57 58 59 60 61 61 61 61 59 57 56 55 54 52 51 47 48 43 41
39 37 40 41 47 48 45 47 53 54 51 44 40 40 41 41 41 44 44 44 44 44 46 46 48 48 50 51 55 54 53 54 57 57 57 59 59 58 57 56 55 54 52 50 48 48 46 42 42
42 39 39 42 50 44 45 45 50 51 44 40 39 39 40 40 43 44 44 43 43 43 44 44 44 45 47 46 45 48 48 48 50 53 53 54 56 56 55 55 54 52 52 51 49 46 47 45 44
41 38 39 44 47 45 44 45 46 43 41 41 39 38 38 39 40 42 41 40 40 40 42 43 43 43 44 45 44 45 44 45 46 49 50 50 51 52 53 52 51 50 49 48 47 47 45 45 44
40 39 39 42 42 42 39 39 41 40 41 41 40 39 39 38 38 38 39 37 38 38 38 41 42 43 43 44 45 45 45 43 43 43 44 44 46 46 48 49 50 49 48 47 46 46 46 44 43
38 45 45 41 38 34 38 30 38 38 36 37 37 35 36 36 38 38 37 37 36 36 37 40 41 41 42 42 42 40 39 37 37 38 39 41 41 41 42 43 44 47 47 46 45 47 46 45 44
43 44 42 39 35 32 33 30 34 36 33 33 34 35 35 36 36 36 36 37 36 36 34 36 39 39 39 40 40 39 37 37 37 38 38 38 39 40 39 39 40 40 40 40 42 43 43 44 44
46 42 39 34 33 25 33 34 32 35 37 34 35 35 36 36 36 36 37 37 35 35 35 35 37 37 37 38 37 36 35 35 35 35 34 35 36 37 37 38 37 38 37 37 37 38 39 41 42
41 37 29 25 23 25 31 29 35 35 36 39 35 34 35 36 35 35 35 35 34 34 34 36 35 34 35 36 36 35 34 34 33 33 33 33 33 34 34 35 34 35 35 36 35 35 35 36 36
38 39 29 19 20 25 31 28 36 34 36 38 38 36 36 35 36 35 35 35 34 35 34 34 34 33 34 34 33 33 33 33 33 32 32 32 33 34 33 33 33 33 34 34 34 33 33 34 33
37 34 38 29 14 20 30 32 34 34 33 33 34 34 34 35 35 35 35 35 35 34 34 34 33 32 33 32 32 31 32 31 31 31 31 30 32 36 34 33 34 34 33 34 34 31 31 31 33
40 42 32 28 17 15 26 27 31 30 31 33 33 34 35 36 36 35 35 35 35 35 34 34 34 33 32 32 33 32 31 31 31 30 30 30 29 30 30 30 30 29 30 31 31 31 31 30 31
36 34 34 34 28 19 15 27 36 36 35 33 34 36 36 36 36 36 36 36 36 35 34 33 33 32 32 32 31 31 30 30 30 29 29 29 30 29 29 29 28 28 28 28 27 28 29 30 30
37 36 36 30 26 24 25 32 37 37 38 36 36 38 37 37 36 35 34 34 33 33 32 33 33 33 33 32 32 32 31 30 30 29 29 28 28 28 28 28 29 28 28 27 27 27 27 26 28

GFSSGP_sfc_temp_036.txt.gz
Temp
65 64 62 62 55 48 42 47 49 53 52 55 58 57 54 56 56 51 63 66 65 67 70 72 75 77 77 76 76 76 76 77 77 77 77 77 77 77 76 76 75 76 76 76 76 74 73 73 73
64 67 63 53 48 41 45 48 51 54 56 56 56 56 55 53 60 63 62 66 66 68 70 71 73 76 76 76 75 75 76 77 77 77 77 77 77 77 76 76 75 75 75 75 74 73 72 72 72
66 66 59 49 42 42 45 49 50 55 56 55 54 57 56 57 60 61 62 66 66 67 69 71 72 75 76 75 75 75 76 76 77 77 77 77 76 76 76 75 74 74 74 74 74 72 72 71 71
64 62 55 49 43 45 47 49 52 54 56 57 54 53 58 61 61 61 63 65 65 66 69 70 73 75 75 75 75 75 75 76 76 76 77 77 77 76 75 74 74 74 73 73 73 71 71 70 70
58 54 48 44 43 46 50 53 53 53 53 54 55 53 56 61 61 61 61 64 64 64 67 69 72 74 75 75 75 75 75 75 76 76 76 76 76 75 74 74 74 74 74 73 72 71 69 69 69
56 52 45 41 43 48 51 52 53 52 53 55 53 52 56 60 60 60 60 59 63 65 66 68 68 70 73 74 74 74 74 75 75 75 75 75 74 74 74 74 74 74 74 73 72 70 68 68 68
52 47 42 40 44 48 51 55 51 51 52 54 55 52 57 60 63 60 59 57 59 62 65 66 68 68 68 70 71 72 73 73 73 73 74 73 73 73 73 72 73 74 74 72 71 69 68 67 67
51 49 40 39 44 46 53 55 55 53 54 60 58 53 53 58 60 59 59 60 59 61 63 64 65 69 68 68 67 70 70 71 71 70 69 68 69 69 70 68 71 73 72 71 70 68 67 66 66
52 46 42 44 47 48 52 54 55 56 53 57 57 56 59 61 60 58 58 59 59 61 60 63 64 69 71 70 67 65 67 67 68 67 66 63 66 66 65 64 68 71 70 70 69 68 67 64 61
50 43 47 49 49 48 52 51 52 54 54 52 55 59 60 59 56 54 52 51 52 54 58 59 62 66 68 70 69 68 67 69 69 68 67 65 65 65 65 62 65 67 67 69 69 67 63 55 48
47 47 49 52 54 52 52 52 53 50 51 52 52 56 55 51 50 49 48 47 47 49 52 53 55 62 67 68 68 67 68 66 67 68 67 66 64 62 63 62 62 62 60 58 60 55 51 50 47
46 52 53 55 55 52 50 54 53 53 54 55 54 52 49 48 47 46 46 47 47 48 50 51 51 52 63 68 67 67 67 65 63 65 66 64 63 62 61 60 60 60 58 58 55 51 50 48 48
48 50 53 55 54 53 53 52 51 56 55 55 52 49 46 45 45 45 46 47 46 47 48 49 50 50 56 65 66 66 66 66 65 65 64 63 62 61 61 60 59 58 57 57 55 52 49 48 47
50 51 53 54 53 52 52 49 50 51 52 52 49 44 43 43 43 43 44 44 44 46 46 48 50 51 52 59 62 64 65 67 65 65 64 62 62 61 60 59 58 57 57 56 52 50 49 47 46
51 49 51 51 50 52 52 48 50 52 53 49 44 42 43 43 43 41 42 42 43 44 46 47 50 51 55 57 59 62 64 64 64 64 64 63 62 61 60 58 57 58 56 55 53 51 50 48 45
46 44 41 48 49 49 50 46 52 52 52 44 41 39 41 42 42 42 42 42 43 43 44 47 50 49 54 56 57 59 60 60 60 61 61 61 61 62 60 58 57 57 55 54 52 51 50 49 48
41 37 38 46 49 48 47 45 53 52 48 41 38 39 40 40 41 42 42 41 42 42 43 45 47 47 51 55 56 55 55 55 54 54 55 58 58 59 59 58 58 57 54 52 52 49 50 48 47
38 36 38 40 45 46 43 47 51 48 46 38 36 37 38 39 39 41 41 41 41 41 43 44 46 45 48 52 53 53 51 51 52 50 51 52 53 55 56 55 54 54 53 51 49 48 45 46 47
42 39 39 41 47 43 44 44 47 43 39 36 36 36 37 37 40 41 41 39 40 41 42 42 43 43 46 44 43 46 45 46 47 48 48 49 49 51 51 51 51 52 50 49 48 46 46 45 45
40 38 38 43 45 44 42 43 40 39 37 38 36 36 36 36 37 39 38 38 37 37 39 41 42 42 43 43 42 42 41 42 43 45 45 45 45 46 48 48 49 49 49 48 47 46 45 45 45
39 38 37 41 40 40 36 38 37 37 38 38 37 37 37 36 36 36 36 35 34 35 35 39 39 40 41 42 43 42 42 40 40 39 40 40 41 41 42 43 44 46 46 45 45 45 45 43 44
37 44 43 40 37 32 36 30 35 35 34 35 35 34 34 35 35 36 35 34 34 34 34 36 38 38 40 41 41 39 38 36 35 36 37 38 38 39 39 40 40 39 40 39 41 44 44 44 42
42 43 41 39 34 31 31 29 33 33 32 32 33 34 33 34 35 34 34 35 34 34 33 34 36 37 38 38 38 37 35 35 34 34 35 35 36 37 37 37 37 37 37 36 36 37 37 38 39
44 40 37 33 32 25 33 34 31 32 36 33 34 34 35 35 35 35 35 35 34 33 33 33 35 34 35 36 35 35 34 33 34 32 32 32 33 34 34 35 34 35 35 34 34 35 35 35 36
40 36 28 25 23 25 29 28 35 38 36 37 35 34 34 34 33 33 34 33 33 32 33 34 34 33 33 33 33 33 32 32 31 30 30 31 31 30 32 32 32 33 33 33 33 32 32 33 34
37 38 29 20 20 24 29 27 35 34 35 36 38 36 34 34 34 34 33 33 33 33 32 32 32 32 32 31 31 31 31 31 30 30 29 29 29 30 31 30 31 31 31 32 31 30 30 31 32
37 34 37 28 13 19 29 32 35 33 31 32 32 33 33 33 34 34 34 33 33 33 32 32 32 31 31 31 30 30 30 30 29 28 28 28 28 33 29 28 28 29 29 29 29 27 27 28 29
39 41 32 29 19 14 26 28 32 32 31 31 31 32 33 34 34 34 34 34 33 33 32 32 32 31 31 30 30 30 29 29 28 28 28 28 28 28 28 28 28 28 28 27 26 26 28 27 27
35 34 33 34 29 21 17 27 34 36 34 32 33 35 35 35 34 34 34 35 34 33 32 31 31 30 31 31 30 30 29 29 29 29 28 28 28 28 28 28 27 27 26 26 25 25 26 26 26
36 36 36 32 25 22 24 30 34 35 35 36 35 37 35 35 35 34 35 34 32 32 31 31 31 31 31 31 31 30 30 29 29 28 28 27 27 27 27 27 27 27 27 26 26 25 25 24 25

GFSSGP_sfc_temp_039.txt.gz
Temp
69 68 67 66 60 54 51 56 60 61 63 66 66 67 66 67 64 60 72 71 71 72 74 76 75 77 77 76 76 76 76 77 77 77 77 77 77 77 76 76 75 76 76 76 75 74 74 73 73
68 71 65 58 52 48 52 57 58 62 65 65 65 66 67 66 71 72 73 71 72 72 74 76 73 76 77 76 76 76 76 77 77 77 77 77 77 77 76 76 75 75 76 75 74 73 73 72 72
69 68 63 53 47 48 52 58 60 63 64 65 65 68 68 68 72 71 71 71 71 72 74 74 73 76 76 76 75 76 76 76 77 77 77 77 77 76 76 75 75 74 75 74 73 73 72 71 71
67 65 59 53 51 54 56 59 61 63 65 65 65 66 69 70 70 69 70 70 70 71 73 72 73 75 76 75 75 75 76 76 76 76 77 77 77 76 75 74 74 74 74 73 72 72 71 70 70
61 59 52 49 51 55 57 61 61 61 62 65 64 65 66 70 71 70 70 70 70 70 72 73 72 74 75 75 75 75 75 75 76 76 76 76 76 75 75 74 75 74 74 73 72 71 70 69 69
58 56 49 47 50 56 59 60 62 61 62 64 64 63 66 69 69 69 70 70 70 70 70 71 68 70 72 74 74 74 75 75 75 75 75 75 75 74 74 74 74 74 74 73 71 70 69 68 69
55 50 47 48 49 54 58 60 60 61 61 64 65 62 67 68 65 68 67 67 68 69 69 70 71 70 67 70 71 72 73 74 74 74 74 73 72 73 73 73 73 74 73 72 70 69 68 68 68
53 51 47 47 50 52 58 60 61 61 62 66 67 62 63 66 65 66 65 65 66 66 67 68 69 70 72 73 68 69 70 71 71 71 70 68 68 70 70 68 71 73 72 71 69 68 67 66 66
56 49 45 49 50 54 58 58 61 61 62 63 64 64 59 58 60 59 58 58 58 60 60 63 66 69 71 71 70 66 67 68 69 69 66 65 72 72 71 66 68 71 70 70 69 68 65 62 60
52 47 51 54 55 55 57 57 58 60 59 60 62 59 56 55 54 54 53 53 54 55 56 58 58 63 69 70 71 70 69 72 74 72 70 72 72 71 67 64 65 67 67 69 69 67 61 59 60
51 50 52 55 57 57 56 56 58 57 55 60 59 55 52 52 51 50 51 50 50 52 55 55 55 57 61 68 69 69 69 72 69 70 70 69 66 65 65 64 64 64 61 64 63 62 62 59 59
50 53 54 56 56 56 54 57 57 56 58 55 51 51 49 48 48 47 48 49 49 51 52 53 54 55 58 65 68 68 68 67 68 70 71 67 65 64 64 62 63 62 62 61 60 58 58 58 57
50 52 54 56 55 54 54 55 55 55 52 51 50 48 46 46 46 47 47 49 48 49 50 51 52 54 56 62 67 67 67 67 67 66 65 66 65 63 63 62 62 62 60 60 59 58 60 59 57
53 52 54 55 55 54 54 52 55 53 51 49 47 45 45 45 44 45 46 46 46 47 48 50 52 54 55 62 65 66 66 66 66 66 65 65 65 64 62 62 60 60 62 60 58 57 58 59 57
52 50 52 52 52 53 54 49 51 54 51 46 44 43 44 44 44 43 44 44 45 46 47 49 53 55 60 62 63 63 62 62 61 61 61 62 62 62 62 61 61 60 59 58 56 55 54 53 53
48 47 44 51 51 51 53 48 51 53 51 44 42 42 42 43 43 43 44 44 45 45 46 49 51 56 57 57 57 56 55 55 55 55 56 57 58 60 60 59 58 57 57 56 55 54 55 54 50
43 41 41 47 51 50 50 48 50 51 47 42 41 41 42 42 43 43 44 43 44 44 45 48 50 52 54 54 54 53 53 52 52 52 52 54 55 57 56 55 54 55 54 52 52 50 49 49 49
40 39 40 42 48 48 46 49 48 44 44 40 39 40 40 41 40 42 43 43 43 44 45 47 48 49 52 54 53 52 51 51 50 50 50 51 52 54 53 52 52 53 52 50 50 49 47 46 45
43 41 42 43 48 46 46 46 49 42 40 38 38 39 39 40 42 42 42 41 41 42 44 44 46 46 49 49 49 49 46 47 47 47 46 47 48 50 51 51 51 51 50 49 49 48 47 47 47
41 40 40 43 46 45 43 44 45 41 40 40 38 38 39 39 40 40 40 40 39 40 41 42 43 44 46 47 46 47 46 44 44 45 44 44 44 45 46 46 47 48 49 48 48 48 48 49 48
39 39 38 42 42 42 40 40 39 38 38 39 39 39 39 39 39 39 39 38 38 38 38 40 41 42 43 45 47 46 45 44 44 42 42 41 42 43 43 44 44 44 44 44 45 45 46 46 49
37 43 43 41 39 35 39 33 38 36 35 36 36 36 37 38 39 38 37 37 37 37 38 39 40 41 42 43 42 42 42 40 39 40 40 40 40 41 41 41 42 41 42 41 42 43 44 46 43
41 42 41 39 36 34 35 32 37 36 35 34 35 35 36 37 38 37 37 37 37 37 36 38 39 39 40 40 41 40 38 38 39 39 38 38 39 39 39 39 39 39 40 39 39 40 40 42 42
43 40 38 34 33 27 35 36 34 35 38 34 35 35 36 36 37 37 37 37 36 37 37 37 38 37 38 39 38 39 38 37 37 36 36 36 37 37 37 37 38 38 37 37 37 38 38 38 39
40 38 29 27 26 27 31 30 36 40 39 39 37 36 36 36 36 35 36 36 36 36 36 37 36 35 36 36 36 36 36 36 35 35 35 35 35 35 34 36 35 36 36 36 36 36 36 36 37
37 39 30 23 22 26 29 28 38 36 36 37 39 38 37 35 36 35 36 35 35 35 35 35 35 34 35 35 34 35 35 35 34 34 34 34 34 34 34 34 35 35 35 35 35 34 35 35 35
38 35 39 27 15 22 31 34 38 35 34 33 34 35 35 35 35 35 35 35 35 34 34 35 34 34 34 34 34 33 34 34 33 33 33 33 33 35 33 33 33 33 33 33 33 32 32 32 33
40 42 33 30 22 19 28 30 35 34 34 31 32 35 36 36 35 35 36 35 35 35 35 34 35 34 34 34 33 33 33 33 33 33 33 32 32 32 32 32 32 32 32 32 31 31 31 31 31
36 35 34 35 31 23 19 28 37 39 36 32 33 36 36 36 36 36 36 36 36 35 34 34 33 33 33 33 33 33 32 32 33 32 32 32 32 31 31 31 31 30 30 30 30 29 30 29 29
36 37 36 31 26 24 25 30 35 36 37 36 36 37 37 38 37 36 36 35 34 34 33 33 33 33 34 33 33 33 33 33 32 31 31 31 30 30 30 29 29 29 29 28 28 28 28 28 28

GFSSGP_sfc_temp_042.txt.gz
Temp
80 84 88 86 75 74 64 65 71 69 71 76 76 76 75 76 72 66 80 83 80 83 83 81 76 77 77 76 76 76 77 77 78 78 77 78 77 77 76 76 76 76 76 76 75 74 74 73 73
85 82 86 82 71 64 64 69 68 72 74 76 76 77 77 73 80 80 82 80 80 83 83 84 74 76 76 76 76 76 77 77 77 77 77 77 77 77 76 76 75 75 75 75 74 74 73 72 72
81 82 81 76 71 64 64 69 72 74 75 76 76 78 77 75 80 81 81 81 81 82 83 83 73 76 77 76 76 76 76 77 77 77 77 77 77 76 75 75 75 75 75 74 73 73 72 71 72
84 85 80 73 64 66 69 72 73 74 75 76 77 75 79 79 79 79 79 81 81 81 83 77 73 76 76 76 76 76 76 76 77 77 77 77 77 76 75 74 74 74 74 73 72 71 71 70 71
84 82 72 66 64 68 71 72 73 72 74 76 76 74 75 79 80 80 80 80 80 80 82 81 73 74 75 75 75 75 76 76 76 76 76 76 76 75 75 74 74 74 74 73 71 70 70 70 70
79 78 69 64 65 68 72 73 73 74 74 75 76 75 74 79 78 78 79 79 80 79 78 80 71 71 73 74 74 74 75 75 75 75 76 75 74 74 74 74 74 74 73 72 71 70 69 69 69
74 73 65 65 65 66 70 73 73 74 74 74 77 73 77 77 76 77 78 79 78 78 77 78 80 75 67 70 71 73 74 74 74 74 74 73 73 73 73 73 74 74 73 71 70 69 68 68 67
75 74 63 65 64 65 71 72 73 74 73 77 77 73 73 72 73 76 76 75 75 73 75 75 77 74 75 80 68 69 70 71 72 71 70 68 68 70 70 69 71 73 72 70 69 68 67 65 64
71 69 63 64 63 67 71 71 73 74 74 74 73 70 65 67 71 73 73 74 72 71 70 71 71 71 74 75 76 67 67 69 69 69 67 68 78 76 74 67 69 71 70 70 69 67 64 63 61
72 68 65 70 71 70 70 70 71 72 72 71 69 66 65 67 68 68 67 68 68 67 68 68 69 69 67 72 74 74 73 75 80 79 78 79 80 77 74 66 65 67 67 69 68 65 62 65 71
66 67 66 68 69 70 69 68 71 70 67 70 69 65 63 65 64 64 64 63 62 65 67 67 67 68 69 70 72 72 72 78 78 79 75 73 71 71 69 68 68 68 63 68 67 67 73 68 70
65 65 66 66 67 66 66 69 68 68 67 64 63 61 61 61 60 59 60 60 61 62 64 65 65 66 68 73 72 72 72 72 76 77 77 74 70 68 67 66 68 65 66 65 64 64 69 68 67
65 65 65 67 65 66 65 66 67 65 62 61 60 59 59 59 58 59 59 60 60 60 61 62 64 65 67 69 72 71 71 72 72 71 68 67 69 71 71 67 67 66 65 66 71 66 64 68 67
66 64 66 66 65 65 63 65 64 60 61 59 58 57 57 56 56 58 58 58 58 58 59 61 60 62 67 72 69 68 67 65 64 64 65 65 65 64 64 65 64 63 63 64 63 63 60 60 60
63 62 66 66 64 64 65 59 61 64 61 57 55 55 54 54 56 55 55 56 56 58 58 54 56 61 64 61 59 59 60 60 58 59 60 61 63 63 62 61 60 59 60 61 59 57 59 60 60
61 61 58 63 62 62 62 60 61 62 61 57 55 55 53 52 53 54 55 55 56 57 53 53 56 56 56 55 55 55 55 55 55 55 58 59 60 61 60 58 57 57 55 55 55 54 55 55 54
58 57 55 59 63 61 60 59 59 60 61 57 55 54 53 54 54 54 54 54 55 56 53 52 54 55 55 55 55 55 56 57 59 60 57 57 59 58 57 56 54 55 55 54 53 52 55 54 55
55 53 54 57 61 59 59 61 59 56 58 57 54 53 53 52 50 51 52 53 55 56 55 54 53 54 55 55 55 57 56 57 58 57 57 58 58 61 60 58 55 57 57 55 56 55 52 51 52
58 56 57 57 59 57 60 61 62 56 54 54 53 53 52 51 50 52 52 53 54 55 56 56 55 56 59 61 60 57 55 54 54 54 54 55 56 56 57 56 57 58 56 56 57 56 56 56 57
55 54 55 57 56 56 58 56 63 54 55 55 53 52 52 51 51 50 51 52 52 52 53 54 55 56 57 58 56 56 54 53 53 52 51 52 52 53 53 54 53 54 55 53 54 54 56 57 57
54 53 55 54 52 54 52 53 57 50 48 49 51 53 52 52 50 50 50 51 52 50 51 52 53 54 56 56 55 54 55 55 53 51 49 49 50 50 51 51 51 51 52 50 50 52 52 52 54
51 56 54 51 50 47 52 47 52 53 47 45 47 49 50 50 50 49 50 49 49 48 50 51 52 52 53 55 55 55 53 49 49 48 48 47 48 48 49 49 49 49 49 48 48 49 50 51 48
53 53 52 51 49 46 48 46 54 45 45 44 46 48 50 51 50 49 48 47 47 48 49 50 50 50 51 52 52 51 48 48 50 48 46 46 46 46 47 47 47 47 47 46 46 46 46 48 47
50 49 47 47 47 38 47 46 51 48 50 50 47 48 49 49 48 48 47 46 46 46 47 48 48 47 49 50 50 50 48 47 46 46 45 45 46 46 45 45 46 46 45 44 45 45 44 45 46
50 49 40 36 36 36 41 41 53 55 49 51 47 47 48 48 47 46 45 45 45 45 45 46 47 45 47 47 47 47 47 47 46 46 45 45 44 44 43 44 44 44 44 43 43 43 43 42 42
45 50 42 31 32 40 36 38 48 47 46 46 51 49 48 47 47 46 46 46 45 44 45 45 44 44 46 46 45 46 46 46 46 45 45 44 43 42 43 42 42 42 42 42 42 42 41 41 41
45 42 49 35 26 35 44 45 50 42 42 43 45 46 45 45 45 45 46 46 45 45 45 46 45 44 45 45 45 44 45 44 43 43 44 43 43 42 41 41 41 40 40 39 40 39 38 39 39
49 51 39 41 31 31 39 40 49 41 43 41 41 43 45 46 45 46 46 46 46 46 45 45 45 45 44 44 45 44 43 43 43 43 42 41 41 41 40 40 39 39 39 38 38 37 37 37 37
43 42 43 46 41 35 35 42 52 51 49 43 44 46 47 46 46 46 46 47 46 46 45 45 44 43 43 43 43 42 42 42 42 42 41 40 40 39 38 38 37 36 36 36 36 36 36 34 34
50 48 47 41 32 36 36 43 47 48 49 49 47 46 48 47 47 48 47 46 45 44 44 44 44 43 43 43 42 42 41 41 41 40 40 39 38 37 36 36 35 34 34 34 33 33 34 33 32

GFSSGP_sfc_temp_045.txt.gz
Temp
83 93 93 88 75 77 67 67 76 73 75 80 81 80 77 79 73 66 84 87 85 87 86 81 76 77 76 76 76 76 77 78 78 78 77 77 77 77 76 76 76 76 76 75 75 74 74 73 74
92 90 89 85 73 67 67 74 71 75 78 81 81 81 80 74 83 82 84 85 85 87 87 85 74 76 76 76 76 76 77 77 77 77 77 77 77 76 76 75 75 75 75 75 74 73 73 73 73
87 89 83 78 74 68 67 74 75 78 80 80 79 83 81 76 83 84 84 85 86 86 87 83 74 76 76 76 76 76 76 77 77 77 77 77 77 76 75 75 75 75 74 74 73 72 72 72 72
88 88 85 74 69 71 74 76 78 78 80 81 82 76 81 82 81 82 85 85 86 85 87 75 74 76 77 76 76 76 76 76 77 77 77 77 76 75 75 74 74 74 73 73 72 71 71 71 71
89 86 75 71 69 73 76 78 79 76 78 80 81 76 76 80 84 85 84 85 85 85 86 82 74 75 76 76 75 75 75 76 76 76 76 76 76 74 74 74 74 74 73 72 71 70 70 70 70
81 83 71 66 70 74 77 79 79 78 79 79 79 79 74 80 80 81 84 84 85 83 83 83 72 70 73 75 75 75 75 75 75 75 76 75 75 74 74 74 74 74 73 71 70 69 69 69 68
77 75 71 71 70 70 75 79 77 78 78 77 81 76 77 76 78 81 82 83 82 82 81 82 83 77 67 69 72 73 74 74 74 75 75 74 74 73 73 73 73 73 72 70 69 68 68 67 67
80 77 68 72 69 69 76 77 79 79 76 82 81 76 75 73 77 80 80 80 79 77 78 77 76 76 77 80 68 68 71 72 73 72 71 69 70 70 70 69 71 72 71 70 69 67 67 66 65
78 71 68 69 70 73 77 75 78 80 78 78 75 74 70 73 77 78 77 78 77 76 75 75 74 74 74 76 73 67 66 69 69 70 67 67 78 75 73 68 70 71 70 70 68 67 65 65 64
75 70 71 76 77 74 76 76 77 76 76 74 72 72 72 73 74 73 73 73 73 72 73 73 73 73 73 74 77 79 78 77 80 79 77 78 80 77 75 67 65 67 68 69 68 66 65 67 72
73 69 72 73 75 77 74 73 76 74 72 75 75 70 69 71 70 70 70 69 68 70 72 71 71 71 73 73 73 75 76 75 80 79 78 77 76 76 74 72 68 69 64 71 69 69 73 70 70
69 71 73 71 71 71 71 75 72 74 70 70 70 69 69 68 67 66 66 66 66 68 68 69 70 70 72 74 71 72 74 77 74 76 76 76 74 72 69 68 68 70 68 70 69 69 69 70 69
69 70 71 72 69 70 70 70 71 71 68 68 66 66 66 65 65 66 65 66 66 64 66 67 68 69 71 72 71 71 69 71 70 70 70 73 71 70 69 67 65 66 68 66 68 68 65 65 67
71 69 71 71 71 70 66 71 68 72 69 66 65 64 64 62 62 65 63 63 62 63 63 62 61 67 71 74 66 64 65 65 65 65 66 68 67 65 64 63 61 60 61 62 62 62 63 62 61
69 65 71 70 70 68 69 64 63 70 67 64 63 63 61 61 62 61 60 61 61 63 58 56 58 62 61 58 58 58 60 60 58 60 62 63 65 65 63 63 62 61 60 58 60 59 58 61 61
65 65 61 69 67 66 66 62 69 67 66 65 64 63 60 59 60 60 60 61 61 59 55 55 57 57 55 54 55 56 58 59 59 59 60 61 62 62 59 57 56 56 56 55 54 53 55 54 56
64 59 62 64 68 65 63 64 65 67 66 66 65 63 61 60 59 59 59 60 60 56 55 54 55 54 54 53 55 56 57 58 59 61 62 62 63 63 60 58 58 57 55 56 56 56 54 56 58
60 59 62 61 65 63 63 62 64 64 65 66 65 63 61 60 57 57 58 58 60 56 55 54 55 54 55 56 56 56 56 57 60 59 59 60 60 61 61 61 60 61 59 59 59 58 58 57 59
64 62 61 66 65 60 63 64 69 65 63 64 63 62 60 58 57 57 57 58 59 57 56 56 56 57 59 59 59 59 56 56 56 56 56 56 58 58 58 57 58 59 56 56 57 58 58 57 57
61 58 59 65 62 59 62 61 67 69 63 65 64 62 60 56 56 55 56 57 58 58 58 58 59 61 63 62 60 59 57 55 54 54 53 54 54 55 55 55 54 55 54 53 53 54 55 55 56
59 57 59 59 57 58 58 55 59 67 65 62 62 63 61 58 56 54 55 56 57 56 57 58 59 60 59 59 58 57 57 56 54 52 50 51 52 52 53 53 52 52 52 50 50 51 50 50 53
54 63 60 58 54 49 58 46 60 65 57 55 55 58 58 57 57 56 54 54 54 54 55 57 57 58 59 61 59 58 56 51 51 49 49 48 50 50 51 51 50 50 49 48 48 49 49 49 46
57 59 57 56 52 51 53 45 56 61 55 54 53 54 56 56 55 53 54 53 53 53 53 54 54 55 55 56 56 54 51 51 51 49 47 47 47 48 49 49 48 48 48 46 46 46 46 47 46
58 54 52 52 51 41 50 49 52 57 54 58 53 53 54 53 54 54 53 51 51 50 51 52 52 52 53 54 54 52 50 48 48 48 46 46 47 47 47 48 47 47 45 45 45 45 44 44 45
54 51 42 39 37 37 50 48 53 63 57 60 52 52 54 54 53 52 49 50 50 49 49 50 51 48 50 51 51 52 51 50 48 48 47 46 46 45 45 46 45 45 45 44 44 43 43 42 41
48 51 43 32 36 41 40 40 52 58 57 54 56 54 54 52 52 51 50 50 49 48 48 48 47 47 49 49 49 50 50 50 49 49 48 47 45 44 45 44 44 44 43 43 43 42 41 41 40
49 44 55 40 32 35 46 50 57 48 47 49 53 52 51 50 50 50 51 51 48 47 47 48 48 47 48 48 48 47 48 47 46 46 47 45 45 44 43 43 42 42 42 41 41 39 38 38 39
52 56 40 42 31 32 45 47 50 42 46 46 48 49 49 50 50 50 50 49 49 49 49 49 48 47 47 47 47 47 46 47 46 46 44 43 43 43 42 41 41 41 40 39 39 38 38 36 37
45 44 47 49 44 37 38 45 58 56 52 47 48 49 49 49 50 50 50 50 49 49 48 47 47 46 45 46 45 45 45 45 45 44 43 42 42 41 40 40 39 38 37 37 37 36 36 34 34
55 50 49 41 36 40 38 45 53 57 58 53 49 50 51 51 51 51 50 49 48 47 47 46 46 45 45 45 44 44 44 43 43 42 42 41 40 40 39 38 37 36 36 35 34 34 34 33 33

GFSSGP_sfc_temp_048.txt.gz
Temp
78 85 84 76 62 62 57 59 66 67 66 70 72 71 67 69 64 54 72 79 80 80 78 77 76 77 76 76 76 76 77 77 78 78 77 77 77 76 76 76 75 76 76 75 75 74 74 74 74
79 87 77 71 58 54 55 65 64 68 71 72 70 71 69 64 73 73 71 79 80 81 79 78 74 76 76 75 76 76 76 77 77 77 77 77 77 76 76 75 75 75 75 74 74 73 73 73 73
80 86 69 64 60 56 56 65 66 70 69 68 67 73 69 66 71 72 74 79 81 80 81 77 74 76 75 76 76 76 76 76 77 77 77 77 76 76 75 75 74 74 74 73 73 73 72 72 72
79 75 72 60 58 63 65 68 71 70 70 71 71 63 69 73 71 73 78 79 79 80 78 73 75 76 76 75 75 76 75 76 76 76 77 76 76 75 74 74 74 73 73 72 72 72 71 71 71
77 72 61 58 60 63 69 72 68 69 67 69 66 62 64 71 76 77 76 79 77 77 76 75 74 75 76 76 75 75 75 76 76 76 76 75 75 74 74 74 74 73 72 72 71 71 70 70 69
68 70 58 55 60 65 68 70 68 68 70 66 66 65 61 70 71 72 76 75 78 76 77 75 70 70 72 75 75 75 75 74 75 75 75 75 74 74 74 74 73 72 72 71 70 70 69 69 69
65 62 58 59 61 62 67 69 63 66 67 67 70 62 62 65 69 73 72 73 73 75 76 76 74 70 68 69 72 73 74 74 74 74 74 73 73 73 73 72 73 72 71 71 70 69 68 68 68
66 64 58 56 59 60 68 69 70 69 65 72 70 60 57 59 66 71 70 69 68 69 70 70 71 72 73 71 68 69 71 72 72 72 70 69 69 69 69 69 71 72 71 70 69 68 68 68 67
68 57 55 58 60 63 69 66 67 67 67 66 66 61 62 65 70 67 65 66 65 67 66 66 67 71 71 73 70 66 67 69 69 68 66 64 69 68 67 67 69 70 70 70 69 68 67 66 65
62 56 60 67 66 65 68 66 68 63 67 62 62 64 66 66 65 64 62 61 61 61 62 63 63 65 67 72 73 71 70 69 70 70 68 69 69 69 68 64 66 67 67 68 68 67 66 65 60
63 58 65 66 68 69 68 62 67 62 61 62 63 61 63 63 62 62 61 59 57 58 61 62 62 63 64 67 70 68 69 69 70 71 70 68 67 66 65 63 64 64 63 65 63 63 63 61 59
58 65 67 66 65 65 63 66 62 63 57 64 62 64 63 61 59 58 57 57 57 58 59 60 61 62 63 63 69 70 70 67 66 68 68 67 65 65 64 63 64 65 64 64 63 60 60 61 61
61 64 66 66 63 63 65 61 62 60 61 62 62 63 60 58 58 58 58 58 57 56 57 56 57 59 63 64 68 66 66 66 66 65 66 66 65 64 64 64 63 62 63 62 62 60 60 57 58
64 64 65 66 65 64 60 61 61 62 61 60 61 59 57 57 55 56 56 55 55 56 53 54 59 59 61 60 62 61 61 61 62 61 62 64 64 62 61 61 60 59 59 59 58 58 58 57 58
63 57 62 63 64 60 62 56 57 63 61 59 59 56 56 56 56 53 53 54 53 53 55 56 58 58 56 57 57 57 58 59 58 59 59 60 59 58 57 57 56 56 57 57 56 56 55 55 57
57 56 50 61 63 59 57 50 62 60 59 57 57 54 55 55 55 54 54 54 54 51 52 55 56 55 54 55 56 57 58 58 58 59 57 57 57 56 55 54 54 55 55 55 54 54 54 54 53
55 47 52 54 62 58 55 52 58 60 59 57 55 55 55 53 53 52 53 52 52 53 54 53 54 53 53 55 56 56 57 57 57 57 55 55 57 57 54 53 52 53 52 52 52 50 50 48 49
49 48 54 52 57 57 52 52 56 58 58 57 56 55 54 54 52 52 52 53 52 54 54 53 53 53 54 54 55 55 55 54 54 51 52 53 54 55 52 52 52 51 50 49 49 50 49 47 47
57 53 51 56 58 54 53 54 59 58 56 55 56 54 53 53 52 52 52 52 54 54 54 53 53 53 55 54 54 53 50 48 48 49 50 50 51 51 50 49 50 49 47 46 49 47 47 46 48
55 51 50 56 57 52 52 53 59 58 56 58 58 54 53 49 49 50 49 50 54 54 54 54 55 56 57 56 54 49 47 47 46 46 47 47 47 48 49 46 45 45 44 44 44 44 44 43 46
53 50 50 51 52 51 47 45 52 58 60 59 58 57 55 50 48 47 48 48 54 53 54 55 56 53 51 51 51 50 48 45 43 42 42 44 45 45 45 44 43 43 42 41 40 40 40 38 40
48 56 55 52 46 39 48 35 48 54 56 56 54 52 51 50 50 49 48 46 47 49 50 52 51 50 51 51 48 47 45 42 40 40 40 41 42 43 43 43 42 40 39 38 39 40 38 38 36
50 53 50 48 44 40 43 39 46 55 54 52 50 50 50 49 49 47 46 47 46 46 46 46 48 48 48 48 47 45 43 42 42 40 39 39 39 40 41 40 39 39 38 36 37 36 35 36 35
54 49 46 44 42 31 43 42 42 50 53 53 51 50 50 49 47 47 46 45 44 44 44 43 44 45 46 46 45 43 42 41 40 38 37 37 37 38 39 40 38 37 36 36 35 35 35 34 34
50 44 32 29 28 29 41 39 46 52 51 55 52 50 50 49 48 45 43 42 41 42 42 43 43 43 44 43 43 43 42 42 40 39 37 37 36 35 37 37 35 35 36 35 35 33 33 33 32
44 46 33 25 27 30 34 32 43 46 48 50 53 51 50 48 48 45 43 43 42 42 41 42 40 41 42 43 43 43 43 41 40 40 38 37 35 35 36 35 35 35 35 35 34 32 32 31 30
43 39 50 36 25 25 35 41 50 44 43 44 47 48 48 47 47 45 44 44 41 40 40 40 41 41 42 41 41 41 40 40 39 38 37 36 36 38 36 35 34 34 34 33 33 30 29 29 29
45 49 35 35 22 22 33 36 41 39 41 42 45 46 48 48 47 46 45 43 42 41 41 41 41 40 40 40 40 40 39 39 38 37 35 35 35 36 35 33 33 33 32 32 31 29 29 28 28
41 39 42 43 35 26 26 36 48 51 47 43 47 48 48 47 47 45 45 44 42 42 41 40 40 39 39 39 38 38 37 38 37 35 35 34 34 34 33 32 32 31 31 30 29 29 29 28 27
48 44 44 37 32 35 31 40 47 48 49 48 47 49 49 48 47 46 46 44 42 42 40 40 39 38 38 38 37 37 37 36 35 34 34 33 32 32 32 31 31 30 30 29 29 28 28 27 27

GFSSGP_sfc_temp_051.txt.gz
Temp
69 73 70 69 58 53 47 54 58 59 59 62 66 66 61 60 59 50 69 75 75 74 75 75 75 76 76 76 76 76 77 77 77 77 77 77 77 76 76 76 75 75 75 75 75 75 74 74 74
68 78 69 61 52 44 47 54 58 60 64 68 67 63 62 58 67 67 66 75 76 75 76 75 73 75 76 76 76 76 76 77 77 77 77 77 76 76 76 75 75 75 74 74 74 74 73 73 73
73 76 63 56 49 46 49 54 59 62 63 62 64 64 60 60 64 66 70 76 76 76 76 75 73 75 76 75 75 76 76 76 76 77 76 76 76 75 75 74 74 74 74 74 74 73 73 72 72
71 67 63 54 49 55 56 57 63 63 63 68 62 57 62 67 66 69 74 76 75 76 76 73 74 76 76 75 75 75 76 76 76 76 76 76 75 75 74 74 73 73 73 73 72 72 71 71 71
67 61 53 49 51 55 57 64 63 62 61 63 62 55 58 66 70 71 72 75 73 72 74 74 73 75 75 75 75 75 75 75 75 75 76 75 75 74 74 73 73 72 72 72 71 71 70 70 70
62 59 50 46 50 57 58 62 63 61 61 61 60 57 55 62 68 67 69 68 72 73 72 73 69 70 73 74 74 75 75 75 75 75 75 75 74 74 74 73 72 72 72 71 71 70 70 70 70
58 53 48 48 52 56 61 63 58 62 59 60 64 55 55 60 63 67 66 66 68 69 70 70 70 68 68 71 71 72 73 74 74 73 73 72 72 73 72 72 72 72 72 71 70 70 70 70 69
59 56 50 48 53 53 62 63 64 64 59 65 63 55 52 58 65 66 64 64 64 65 65 66 70 71 69 69 68 69 70 71 71 71 69 68 69 69 69 68 71 72 71 70 69 69 69 70 69
60 51 47 52 54 56 61 60 62 63 63 60 59 56 59 64 66 63 60 60 60 63 62 63 63 66 71 72 68 66 68 69 68 67 65 64 67 69 68 67 69 70 70 69 69 69 67 66 65
55 48 51 56 56 57 62 61 63 60 58 55 55 59 62 61 60 58 56 55 55 56 58 59 60 62 65 72 71 68 69 69 70 68 66 67 68 67 66 63 65 67 67 68 68 68 66 62 58
55 52 57 58 60 62 62 60 62 60 53 56 56 57 59 58 57 56 54 54 54 53 56 57 58 59 61 64 69 69 67 66 66 67 68 66 66 65 62 61 61 61 62 64 63 60 60 59 57
52 59 60 61 61 61 58 61 58 58 55 57 58 59 57 56 55 54 53 53 53 54 53 54 55 57 59 61 69 67 65 64 63 65 68 66 65 65 64 64 64 62 63 62 61 60 60 58 58
54 57 61 61 59 58 61 57 57 54 55 58 59 58 55 54 54 54 54 54 53 51 51 53 54 56 58 61 65 64 61 61 62 64 65 64 63 64 63 62 61 61 60 59 59 59 59 55 58
57 58 59 60 60 59 57 55 56 55 55 56 57 54 53 54 53 51 52 51 52 51 50 52 56 56 58 62 60 60 61 61 61 61 61 61 61 60 60 59 58 58 58 58 55 56 54 56 55
58 52 57 58 59 57 58 53 55 56 55 55 54 52 52 53 53 50 51 51 49 50 50 52 56 56 56 57 57 58 58 59 58 58 58 56 56 55 56 56 55 56 55 55 55 55 54 52 54
51 49 45 55 58 56 56 47 56 55 54 52 51 49 51 52 52 50 51 50 49 49 49 51 55 53 55 56 56 57 58 58 58 56 54 55 55 54 54 54 54 54 54 53 50 51 50 48 48
46 41 45 52 56 54 52 48 52 54 54 51 50 48 50 49 48 49 50 48 48 48 50 52 53 53 54 55 56 56 56 55 55 55 52 52 54 54 52 50 49 49 48 48 49 48 46 44 45
43 42 47 46 54 51 48 49 52 54 53 52 50 48 48 48 48 49 49 48 48 48 49 52 52 53 54 54 54 53 52 51 52 50 49 50 51 51 51 49 47 48 47 46 46 46 44 42 42
49 45 45 50 55 51 48 49 52 54 51 50 48 49 49 49 47 48 49 48 48 48 51 52 52 53 54 53 51 50 48 48 47 46 46 47 47 47 47 46 45 45 43 42 44 44 43 42 41
49 46 45 50 53 50 48 48 52 52 54 55 55 51 50 45 44 47 46 46 47 48 49 52 53 55 55 55 52 50 47 45 43 44 44 44 44 45 45 43 42 41 42 41 40 40 39 39 40
48 45 44 48 48 48 44 43 48 53 54 54 57 56 52 47 45 44 45 45 46 47 49 53 54 54 53 51 50 47 45 43 43 41 41 41 42 42 42 41 40 39 40 38 37 37 38 36 37
44 51 51 49 43 37 44 36 44 48 51 51 55 50 50 46 46 46 45 43 45 47 53 54 53 52 51 51 48 46 44 40 37 38 38 39 40 40 41 40 40 38 38 37 37 37 36 36 33
47 49 47 45 40 36 38 34 41 50 51 55 54 53 49 47 46 45 45 46 44 47 50 50 50 50 48 47 45 43 40 40 40 38 37 37 38 38 39 38 38 37 37 35 35 34 34 34 33
50 47 45 41 39 29 40 38 40 47 52 55 50 46 46 45 45 45 44 44 42 44 46 46 44 43 44 45 43 42 40 39 38 36 36 36 36 37 37 38 36 35 34 33 33 32 32 32 32
48 42 31 28 26 30 39 35 46 48 52 53 50 46 45 46 44 43 42 42 40 39 39 41 42 41 42 42 42 41 40 40 39 37 36 36 36 35 35 35 34 33 34 33 32 31 31 31 30
42 42 32 24 25 28 34 31 42 49 49 47 50 50 47 45 45 43 42 41 41 40 39 40 39 40 41 42 41 41 41 41 40 39 38 37 36 35 34 33 33 33 33 33 32 30 30 29 28
41 39 48 35 20 23 33 38 46 44 45 43 44 46 44 44 44 42 41 41 40 39 39 41 41 40 40 41 41 40 39 39 38 36 36 35 35 36 33 33 32 32 32 32 30 29 28 28 28
44 46 35 33 22 20 30 32 39 41 44 42 41 42 43 43 42 41 41 41 41 41 39 38 39 40 39 39 40 40 38 37 37 37 35 34 34 34 33 32 31 31 31 30 29 27 28 27 26
41 38 39 40 32 24 23 37 44 48 49 42 44 44 44 44 42 42 42 41 40 39 39 39 39 38 38 39 37 37 36 37 36 35 34 33 32 32 31 31 30 30 29 29 28 27 27 27 27
42 42 40 33 30 30 29 40 46 45 47 45 45 46 47 47 45 43 43 40 40 40 39 38 38 38 37 38 37 36 36 35 34 34 33 31 31 31 30 30 30 29 29 28 28 28 27 26 27

GFSSGP_sfc_temp_054.txt.gz
Temp
67 69 67 67 57 51 44 49 53 55 57 59 61 61 58 57 56 50 66 69 72 72 74 75 74 76 76 76 76 76 76 77 77 77 77 76 76 76 75 75 75 74 75 75 75 75 74 73 73
66 74 67 58 50 42 45 49 55 57 61 61 63 59 58 55 62 64 64 70 73 73 74 74 73 75 76 76 75 76 76 76 77 77 77 76 76 75 75 75 74 74 74 75 74 74 73 73 73
70 71 63 54 45 44 46 52 56 60 61 60 59 60 56 57 62 63 67 72 73 72 74 73 73 75 75 75 75 75 76 76 76 77 76 76 75 75 74 74 73 74 74 74 74 73 72 72 72
69 65 60 52 46 48 54 56 59 60 59 62 57 54 59 63 63 67 71 73 73 72 73 71 73 75 75 75 75 75 75 76 76 76 76 75 75 74 73 73 73 73 73 73 73 72 71 71 72
63 59 51 47 47 50 52 57 61 59 57 58 56 52 55 64 66 67 69 72 70 71 73 73 73 74 75 75 75 75 75 75 75 75 75 75 74 74 73 73 72 72 72 72 72 71 71 71 71
60 56 48 44 46 52 55 61 62 57 56 57 56 53 54 62 64 63 66 65 69 70 74 74 69 71 72 74 74 74 74 74 75 75 74 74 74 73 73 73 73 72 72 71 71 71 71 70 71
56 51 47 45 49 52 58 62 59 58 57 56 60 52 53 57 62 63 63 63 65 69 68 69 69 69 70 70 71 72 73 74 74 74 73 73 72 72 72 72 72 72 71 71 71 71 71 71 70
56 53 47 44 50 52 58 59 60 60 57 61 57 52 51 58 62 62 62 62 62 63 63 67 69 68 69 70 68 69 70 71 71 71 69 68 68 69 69 68 70 71 71 70 70 70 70 70 69
56 49 45 47 51 54 57 57 59 59 59 55 56 55 57 62 61 60 57 58 59 61 60 61 66 67 70 71 67 67 68 68 68 67 65 64 66 69 68 66 69 70 70 70 69 69 67 65 64
53 46 51 54 53 54 59 59 61 58 55 52 52 56 59 60 58 57 54 54 53 54 57 58 59 61 64 71 69 68 68 70 70 67 65 66 67 67 67 63 65 66 67 68 69 67 64 60 56
52 50 55 55 57 59 59 56 59 57 52 55 55 56 56 55 54 54 52 52 52 51 54 55 56 57 60 66 68 69 67 67 67 66 66 67 65 65 63 61 60 60 61 60 61 58 57 57 55
51 56 57 59 58 58 58 58 56 57 57 57 58 56 54 53 53 52 52 52 52 51 50 53 54 55 57 60 67 66 65 64 63 64 67 65 64 63 63 63 63 62 59 58 57 56 56 56 56
52 54 58 58 59 56 58 55 56 54 51 54 56 56 53 52 52 51 52 52 51 50 50 51 53 54 56 59 64 63 62 61 61 63 65 66 65 64 62 61 60 60 59 56 57 58 54 54 55
55 55 56 58 57 57 56 53 54 53 52 53 55 52 51 51 51 49 50 50 50 50 50 51 55 57 58 62 61 60 61 61 60 60 61 62 62 60 59 58 57 57 57 56 54 54 52 52 53
55 51 54 55 56 55 56 51 53 54 52 52 52 50 50 51 51 50 50 50 49 49 50 51 53 56 55 57 58 58 59 58 58 57 57 57 58 58 57 56 55 55 56 56 56 55 54 52 53
49 47 43 52 54 54 55 46 55 53 51 50 49 46 49 50 50 49 49 49 48 48 49 50 54 55 55 56 56 57 57 57 56 56 56 55 55 54 56 54 54 54 54 52 51 50 46 45 46
44 39 42 49 54 52 51 47 52 50 51 49 47 46 48 48 47 47 48 47 47 47 48 48 50 53 54 55 55 54 55 54 53 54 53 51 52 51 49 48 47 48 47 47 47 43 43 42 44
40 40 43 44 51 48 46 48 50 50 50 51 47 46 46 47 48 47 47 47 47 47 47 48 51 52 52 52 52 51 51 50 52 51 49 49 49 49 48 46 45 45 46 44 44 42 40 39 41
46 42 42 46 53 49 47 48 52 52 48 47 47 47 47 48 47 47 46 46 46 45 46 46 51 52 53 51 50 50 46 47 47 47 45 45 46 46 45 43 43 42 42 41 43 41 40 39 38
46 43 42 47 51 48 47 46 50 50 50 53 53 50 50 45 44 46 44 44 45 45 46 47 49 53 54 54 51 49 47 45 45 44 42 43 43 44 43 42 40 40 41 39 38 39 37 37 36
45 42 41 45 45 45 42 40 46 51 51 52 56 57 54 50 46 44 43 43 43 44 45 48 49 52 52 49 48 46 46 46 44 39 39 40 41 40 41 39 39 38 38 37 36 37 38 35 36
41 49 48 46 41 36 41 34 42 46 49 50 55 52 54 49 47 46 45 43 44 44 45 48 54 51 50 50 47 47 45 42 39 37 37 37 38 38 39 38 37 36 36 36 36 36 36 36 35
45 48 46 43 38 35 37 33 40 43 45 50 55 52 51 47 47 45 46 46 45 45 49 48 49 50 50 49 48 46 40 39 38 37 36 35 35 36 36 36 36 35 36 34 35 34 33 33 33
49 45 42 38 36 29 40 37 39 44 49 52 56 54 49 46 46 47 46 45 44 43 48 49 49 48 48 48 46 44 39 38 37 35 34 33 33 34 35 36 35 35 35 34 33 32 32 31 31
47 44 30 28 25 30 36 34 47 48 51 52 56 51 45 45 44 43 41 43 42 42 44 48 48 45 45 44 43 43 40 40 38 36 35 34 34 32 34 35 35 34 33 32 32 31 31 31 30
43 42 31 23 24 28 33 30 40 48 53 50 48 46 43 42 44 43 43 44 42 41 42 47 45 42 43 41 40 40 40 39 38 37 36 36 35 35 34 33 33 33 32 32 31 30 30 29 28
40 37 44 35 18 23 32 37 45 45 46 46 46 41 39 41 42 42 42 42 41 40 40 44 44 43 40 40 39 38 38 37 37 35 35 35 34 35 33 32 31 31 30 30 30 29 28 27 27
43 46 35 31 21 19 30 31 39 40 44 47 45 40 40 40 39 39 40 40 41 41 39 40 42 40 39 39 39 39 39 38 37 37 34 33 33 33 31 30 30 30 30 30 29 27 27 27 26
38 37 37 38 31 24 21 35 42 47 47 47 47 43 40 40 40 40 40 40 39 39 38 37 38 37 37 39 38 37 36 36 36 34 33 33 33 32 31 31 30 30 29 29 28 27 27 27 27
39 39 38 30 28 29 28 39 45 46 48 47 47 44 42 43 41 40 39 38 37 36 37 37 37 37 37 38 37 37 36 35 34 33 33 32 32 31 31 30 30 29 29 28 28 27 27 26 26

GFSSGP_sfc_temp_057.txt.gz
Temp
67 67 66 65 57 49 42 47 50 53 53 56 58 58 56 54 54 49 64 68 71 71 73 74 75 76 76 76 76 75 76 77 77 77 76 76 75 75 75 74 74 75 75 75 75 74 74 74 74
65 71 66 56 48 42 44 48 53 55 59 58 59 56 55 52 59 61 62 68 72 72 72 73 73 75 75 75 75 75 76 77 77 77 76 76 75 75 75 74 74 74 75 75 74 74 73 73 73
68 69 62 51 43 43 44 50 52 57 57 55 55 56 54 54 59 62 65 70 71 71 72 72 73 74 75 75 75 75 75 76 76 76 76 75 75 74 74 73 73 74 74 74 74 73 73 73 73
67 64 58 50 44 47 50 54 53 57 55 58 54 52 56 61 61 64 69 70 72 70 72 71 73 75 75 75 75 75 75 76 76 76 76 75 74 73 73 73 73 73 73 73 73 72 72 72 72
61 57 49 46 44 47 50 55 56 57 55 53 53 50 52 61 63 64 68 70 69 70 71 71 73 74 74 75 75 75 75 75 75 75 75 74 74 73 73 73 72 72 73 73 72 72 71 71 71
59 55 46 42 44 50 52 56 58 54 53 53 53 50 53 60 61 61 65 65 68 69 71 72 69 70 73 74 74 74 74 74 74 74 74 74 73 73 73 73 72 72 72 72 72 71 71 71 70
55 50 45 44 47 49 55 58 56 55 54 53 57 50 52 56 58 61 61 62 64 67 68 71 70 69 68 70 71 72 72 73 73 73 73 72 72 72 72 72 72 72 72 72 71 71 71 70 69
54 52 44 42 48 50 57 57 58 57 53 56 55 51 50 57 60 60 60 60 60 63 63 65 68 68 69 70 67 68 70 71 71 70 69 68 68 69 69 68 70 71 71 71 70 70 70 69 68
53 48 44 48 49 52 57 55 57 54 56 51 53 53 56 59 58 58 57 58 58 60 61 60 66 67 69 70 67 66 67 68 68 67 65 63 66 68 67 66 68 70 70 70 69 68 66 63 63
51 45 49 54 52 52 56 55 59 56 52 49 50 53 56 57 55 56 55 56 54 55 60 57 61 64 66 70 68 67 68 69 69 66 65 66 67 67 66 63 64 65 65 68 68 66 62 58 54
49 49 53 53 55 56 57 54 56 55 50 55 55 55 55 54 54 55 53 53 55 52 54 55 56 57 59 64 68 67 66 67 68 65 66 66 65 64 63 62 60 60 59 58 58 56 56 54 54
49 53 55 56 56 56 56 57 54 55 55 54 58 56 53 53 53 52 52 52 52 52 52 53 54 55 57 58 66 66 65 65 66 66 66 65 64 62 62 62 61 60 58 56 55 54 54 54 54
50 51 55 55 55 53 56 54 54 55 51 51 54 55 53 52 51 50 52 51 50 50 51 52 52 53 55 57 64 63 63 63 63 64 65 66 64 63 62 61 60 59 59 56 54 54 53 53 54
52 53 53 54 54 54 53 51 52 52 50 51 53 52 51 51 50 47 49 50 49 50 50 51 53 54 55 58 61 61 61 61 61 61 62 63 63 61 60 58 57 57 57 56 56 55 52 51 55
53 50 52 53 54 53 54 50 52 52 50 51 51 49 50 50 50 50 49 49 49 48 49 50 54 58 55 58 58 58 59 59 58 58 59 59 60 59 58 57 56 55 56 56 55 54 53 53 52
48 46 42 50 51 51 53 45 54 52 50 49 48 46 48 49 49 49 49 48 48 47 48 49 55 56 56 56 57 57 57 57 56 57 56 57 57 57 56 55 53 54 53 52 51 50 48 45 46
43 38 39 47 52 49 49 46 50 47 48 49 47 46 47 47 48 48 48 47 47 47 47 48 50 54 54 55 55 54 54 54 54 54 54 53 53 54 53 52 51 51 50 47 45 42 43 44 45
39 37 40 42 48 46 44 46 51 48 47 50 46 45 46 47 51 48 47 46 46 46 47 47 51 53 53 53 52 51 50 50 51 51 51 50 50 50 50 48 48 47 45 43 41 40 39 40 43
44 40 40 45 50 46 46 47 52 51 46 45 46 47 48 49 51 46 46 45 45 45 45 46 50 52 52 51 50 50 47 47 47 48 47 48 46 45 44 43 43 43 43 41 41 39 43 37 38
42 40 40 45 48 47 45 45 48 48 49 51 51 51 50 50 44 46 44 43 44 45 45 45 48 52 52 53 47 49 47 45 45 46 45 46 43 43 42 41 40 40 39 39 39 39 36 35 34
42 40 39 43 43 43 40 40 44 51 50 50 53 56 55 54 49 46 44 44 44 44 45 46 48 51 53 47 47 46 46 46 44 43 43 42 41 40 40 39 38 37 37 37 36 37 38 34 34
40 46 45 43 40 34 40 35 41 45 48 48 53 53 54 54 50 48 46 43 44 45 45 47 48 52 49 49 47 47 46 45 44 42 40 38 38 37 37 37 36 36 35 36 35 36 36 36 34
43 46 43 40 36 34 35 33 37 41 44 49 55 54 55 54 50 47 47 47 46 45 45 46 48 49 48 49 49 48 46 42 42 40 39 35 35 36 36 36 35 35 36 34 35 34 34 34 33
48 44 40 35 35 28 41 36 43 41 49 50 55 56 51 48 46 46 47 46 44 44 45 47 50 48 46 48 48 46 42 39 39 38 36 34 33 33 34 35 33 33 34 34 33 33 33 32 32
45 42 31 27 25 30 32 32 47 46 50 51 55 54 47 44 42 41 42 42 42 42 45 49 48 45 46 46 45 44 43 43 40 38 36 35 34 32 32 33 32 33 33 32 32 31 31 31 31
42 42 31 23 23 28 32 29 39 46 51 49 49 48 43 41 41 41 43 43 42 43 45 48 46 43 45 44 44 44 43 43 42 40 38 37 35 34 32 32 32 32 32 31 31 30 30 29 28
39 36 45 36 18 23 35 37 44 45 45 46 47 43 40 42 39 39 40 42 42 42 44 48 44 42 44 44 43 42 42 41 40 34 34 34 33 35 32 32 32 31 31 31 30 30 28 28 27
42 45 34 30 22 18 30 31 38 43 45 47 47 45 41 40 38 38 39 40 41 42 41 43 43 42 43 42 42 42 41 40 36 35 34 33 34 34 32 31 31 30 30 29 29 28 28 27 26
38 36 35 37 31 23 20 34 41 48 47 49 48 47 44 41 38 37 38 38 39 39 38 39 39 41 41 41 40 39 38 35 36 36 34 33 34 33 32 32 31 30 30 29 28 27 27 27 27
39 39 40 31 26 28 27 39 44 45 46 47 49 48 41 40 38 37 37 36 36 37 37 37 37 38 41 41 39 38 36 35 35 34 33 33 33 33 32 32 31 30 30 28 29 28 28 27 27

GFSSGP_sfc_temp_060.txt.gz
Temp
66 66 64 65 56 48 41 45 48 52 50 51 55 55 54 51 53 48 63 68 70 70 72 73 75 76 76 76 76 76 77 77 77 76 76 76 75 75 75 75 75 75 76 75 75 75 75 74 74
64 69 65 55 48 41 43 46 50 53 55 55 56 54 54 49 57 60 61 67 70 71 71 72 73 75 75 75 75 76 76 77 77 76 76 75 75 75 75 74 74 75 75 75 75 74 74 74 73
66 67 62 50 41 42 43 48 50 53 54 53 52 54 52 53 57 59 63 69 70 70 71 71 73 75 75 75 75 75 76 76 76 76 75 75 74 74 74 74 74 74 74 74 74 74 73 73 72
65 64 56 49 43 45 46 51 53 53 53 53 52 50 54 59 58 61 66 69 69 69 70 71 73 75 75 75 75 75 75 76 76 75 75 74 74 73 73 73 73 73 73 74 73 73 72 72 71
60 56 49 44 43 45 48 53 54 54 51 51 51 49 50 59 61 62 66 69 68 69 70 70 72 74 74 75 75 75 75 75 75 75 74 74 73 73 73 73 73 73 73 73 73 72 72 71 70
58 54 46 41 42 48 49 53 55 52 51 50 51 50 52 58 59 59 66 66 67 69 69 70 69 71 72 73 74 74 73 74 74 74 74 73 73 73 73 73 73 73 73 73 72 72 71 70 69
55 49 44 41 45 47 54 55 52 54 52 53 56 49 51 55 57 59 61 62 65 67 68 69 69 69 68 70 71 72 72 73 73 73 73 72 72 72 72 72 72 72 72 72 71 71 70 69 68
52 50 41 40 47 48 54 56 55 56 53 53 53 51 49 55 58 58 59 59 60 62 63 66 67 68 68 69 67 68 70 70 71 70 69 68 68 69 68 67 70 71 71 71 70 69 68 67 66
52 47 43 46 47 50 53 53 52 52 54 50 53 51 53 56 57 56 56 57 58 60 61 61 65 67 68 70 67 66 67 68 67 67 65 63 66 67 66 65 68 69 69 69 68 67 64 63 63
50 45 48 51 49 50 53 53 56 52 50 51 50 51 52 55 54 55 55 56 55 55 59 58 61 65 66 69 68 67 68 69 69 67 65 65 66 66 66 62 63 64 65 66 66 64 62 57 53
47 48 51 52 53 54 54 51 55 53 49 55 55 54 52 52 53 54 55 55 55 54 55 60 56 59 63 65 68 65 65 65 66 65 65 66 65 63 63 62 61 58 58 56 56 54 54 53 53
47 51 53 54 54 53 53 55 53 53 55 52 56 54 51 52 52 53 53 53 54 53 54 56 55 55 57 61 64 66 65 66 65 65 65 65 64 63 61 61 61 58 56 54 53 53 53 53 53
48 49 52 53 53 51 54 51 54 53 55 51 52 53 52 51 51 50 52 51 51 51 52 53 52 54 55 56 61 64 64 65 65 65 65 64 63 62 61 61 60 59 57 55 52 53 52 52 54
50 51 51 52 52 52 51 49 50 53 49 49 51 52 51 51 51 47 49 50 49 50 50 51 52 53 54 55 63 62 62 62 62 63 65 65 64 62 60 59 58 57 57 56 55 55 54 54 54
51 47 50 50 51 51 52 49 52 51 48 51 50 49 49 50 49 51 51 49 49 49 49 50 51 53 54 56 60 59 60 60 59 59 61 62 62 61 59 57 56 56 56 55 54 53 53 52 51
46 44 41 47 49 49 52 43 53 50 50 51 48 47 48 49 50 48 49 48 48 47 48 49 53 54 57 56 57 57 57 58 57 57 57 58 59 59 57 56 54 54 54 53 51 51 49 48 45
41 37 37 46 50 47 47 44 49 45 47 49 47 47 47 47 48 48 48 47 47 47 47 48 50 53 55 53 55 54 54 54 55 55 55 55 56 56 55 53 52 51 50 50 50 44 47 44 43
38 36 37 39 45 44 43 45 50 49 46 48 47 46 46 47 51 51 47 47 46 46 46 47 48 51 53 52 52 52 51 50 51 52 52 52 52 53 52 51 50 49 47 45 43 43 40 43 43
42 38 38 42 47 44 44 44 49 51 44 46 46 46 48 49 55 49 47 46 44 44 45 45 48 48 52 51 50 50 48 48 47 48 49 49 49 49 50 49 49 48 43 41 44 43 43 38 40
41 38 38 43 45 45 44 44 49 48 48 49 52 51 50 51 47 46 45 44 44 45 45 45 51 48 53 54 51 50 47 45 45 46 46 47 46 46 45 45 42 41 41 40 40 41 36 34 34
40 39 38 42 42 41 38 38 41 48 48 50 50 54 53 54 54 47 44 45 44 44 44 46 49 50 51 50 47 46 47 46 45 44 43 43 44 42 41 41 40 39 39 41 38 38 39 33 32
38 45 43 40 38 33 37 32 40 46 48 47 52 50 53 54 52 49 47 44 44 46 46 46 47 52 51 49 46 48 44 43 45 43 42 41 41 40 39 39 38 37 36 36 36 37 36 35 32
43 44 42 39 35 32 31 33 37 38 44 51 53 53 53 54 51 49 47 49 48 46 45 46 46 49 49 49 49 48 44 40 43 41 39 39 38 38 37 36 35 35 34 34 34 34 34 34 32
46 42 39 34 34 29 35 36 40 39 47 49 56 53 52 49 47 46 45 45 44 44 45 45 45 46 47 49 48 48 42 41 40 39 38 38 37 34 34 35 34 34 33 33 32 32 33 32 32
43 41 31 28 23 29 30 31 45 45 47 50 54 54 46 46 44 42 41 41 41 42 45 46 46 46 46 46 47 46 45 44 43 41 40 37 36 31 32 33 33 33 33 32 32 32 32 32 32
41 42 31 22 22 28 31 29 38 46 50 50 49 50 43 44 43 41 40 41 41 42 45 46 47 46 46 45 43 44 44 44 44 44 42 42 40 35 34 32 32 31 32 32 32 32 31 30 31
39 37 43 36 16 22 35 36 44 45 45 44 47 43 43 43 43 40 39 39 40 41 44 45 46 45 46 45 42 41 44 43 42 41 41 40 39 35 32 32 31 31 31 32 31 31 30 30 29
41 43 33 30 22 17 30 31 36 44 47 47 48 46 44 42 42 39 38 38 39 41 44 45 45 43 44 44 42 42 43 43 42 40 38 36 36 35 32 31 31 31 31 31 31 29 29 29 28
38 36 34 35 30 23 20 37 40 47 48 48 48 47 45 43 41 39 37 37 38 39 39 41 42 43 42 42 41 42 41 40 39 38 38 37 34 32 32 32 32 31 31 30 30 30 29 29 28
36 38 38 31 26 26 27 39 43 44 44 45 48 46 41 41 41 38 36 36 35 36 36 37 41 42 42 41 40 40 39 38 38 38 36 35 32 33 32 32 32 32 31 31 31 30 30 29 28

GFSSGP_sfc_temp_063.txt.gz
Temp
69 69 69 68 61 54 50 53 59 58 60 62 62 62 61 61 60 57 70 72 74 75 77 77 75 76 76 76 76 76 76 77 77 76 76 76 75 75 75 75 75 75 76 76 76 75 75 74 74
68 72 67 60 54 49 51 55 56 59 60 59 61 61 61 58 64 66 69 72 75 75 76 76 73 75 76 75 75 76 76 77 77 76 76 75 75 75 75 75 75 75 75 76 76 75 74 73 73
70 69 65 54 47 49 50 55 58 59 57 61 59 61 61 60 65 68 71 73 74 74 75 75 73 75 75 75 75 76 76 76 76 76 75 75 75 74 74 74 74 74 75 75 75 74 73 72 72
68 67 60 55 51 54 56 58 58 57 60 61 60 59 62 66 67 69 70 73 73 73 75 73 74 75 75 75 75 75 75 76 75 75 75 74 74 74 74 74 74 74 74 74 74 73 72 72 71
62 60 53 50 51 55 56 59 57 57 60 60 61 58 59 66 67 67 70 72 72 73 74 75 73 74 74 75 75 75 75 75 75 75 74 74 74 73 73 73 73 73 73 73 73 72 71 70 70
61 58 50 48 50 55 58 58 60 60 59 59 59 56 60 65 66 66 70 71 73 73 73 74 70 71 72 74 74 74 74 74 74 74 74 74 73 73 73 73 73 73 73 72 72 71 70 69 68
58 53 50 48 49 53 58 58 58 59 58 60 61 57 61 64 64 65 67 70 72 72 72 73 74 72 68 70 71 72 73 73 73 73 73 72 72 72 72 72 72 72 72 71 70 69 69 68 67
55 53 48 47 50 53 58 58 60 61 60 60 61 60 60 64 62 63 64 65 67 69 71 71 72 73 73 73 67 68 70 70 71 70 69 68 68 68 68 67 70 71 70 70 69 68 68 67 66
57 51 47 50 50 55 55 58 58 59 58 58 59 60 61 59 60 61 62 62 63 64 66 69 71 71 72 72 70 66 67 67 67 67 65 64 71 70 70 65 68 69 68 68 67 66 65 64 63
54 49 52 54 53 55 57 58 58 59 57 58 58 59 58 58 59 60 61 62 62 62 64 66 68 69 70 70 69 72 71 71 70 70 70 70 69 69 68 64 64 65 65 66 65 63 61 60 61
51 51 53 55 56 57 57 55 58 57 54 60 60 59 55 56 57 59 61 62 63 62 62 63 64 64 67 68 69 68 68 70 71 70 70 68 66 66 67 64 62 63 60 63 62 62 61 59 60
51 52 54 56 56 55 55 57 56 56 61 59 61 60 55 55 56 58 60 60 60 60 61 61 62 62 63 64 66 69 69 69 68 69 69 66 65 64 63 62 61 60 62 61 60 60 59 58 57
51 53 54 54 54 53 56 55 57 55 59 57 57 55 55 56 57 56 58 58 58 59 59 60 59 61 61 62 64 66 69 69 69 68 68 69 66 65 63 63 62 59 59 61 60 59 58 57 56
52 52 52 53 54 54 53 52 53 57 55 56 55 56 54 55 56 54 55 56 55 56 57 58 58 59 60 61 64 66 67 66 67 67 67 67 66 63 62 62 59 58 59 59 57 56 55 54 53
52 49 52 51 52 53 53 52 53 56 53 55 55 54 53 53 53 56 58 56 55 55 55 55 56 58 58 59 63 63 64 64 64 63 65 65 64 63 61 60 57 57 57 55 56 54 53 51 51
47 47 44 50 51 51 53 46 55 53 53 56 54 52 51 53 55 54 55 55 54 54 53 54 56 57 57 59 61 61 60 61 62 60 62 62 62 63 60 59 56 57 55 54 53 52 50 48 50
43 41 40 47 50 49 49 47 53 50 50 52 52 52 51 51 52 53 54 54 54 53 53 52 54 56 57 58 58 59 57 58 58 58 58 59 60 60 59 57 54 54 53 52 51 49 48 47 47
41 39 39 42 47 45 45 47 51 52 50 52 52 51 51 52 55 58 54 52 52 52 52 52 53 55 55 56 54 55 52 52 54 55 55 56 56 56 57 55 52 52 50 49 49 47 48 49 47
43 40 40 43 48 46 45 45 50 52 49 49 51 52 53 53 59 55 53 52 50 49 49 50 51 52 54 53 52 52 50 50 50 50 52 53 54 54 54 53 50 52 50 49 48 48 46 45 46
42 39 41 44 45 46 45 45 51 50 54 56 57 56 55 57 53 51 51 50 50 51 49 49 51 51 53 56 54 53 50 48 48 48 47 49 50 51 51 49 48 48 47 47 49 48 46 46 45
40 39 39 43 43 42 40 39 42 49 51 54 53 57 56 57 59 55 49 50 50 48 48 50 51 51 53 54 50 47 48 48 45 46 45 46 47 47 48 47 47 47 50 48 49 47 46 43 41
38 44 43 41 40 35 39 33 41 46 50 48 52 53 55 57 56 54 49 49 48 49 50 50 50 51 52 50 51 49 50 47 46 47 45 44 44 45 46 45 47 47 49 47 47 47 46 45 42
42 42 41 39 36 35 34 34 41 41 45 50 56 55 55 54 54 54 50 51 51 50 48 49 50 51 51 50 52 50 48 48 46 45 43 41 41 42 43 44 44 44 45 46 45 43 42 45 43
44 41 39 35 35 29 36 38 45 41 47 50 53 56 55 51 51 50 49 48 47 46 47 48 48 50 48 49 50 51 48 43 43 42 41 40 40 39 40 40 43 43 42 43 43 42 42 42 41
42 40 31 28 24 30 31 34 49 46 48 51 56 59 51 50 50 48 46 44 43 43 45 47 48 48 48 49 49 50 47 46 45 43 43 39 38 37 38 40 40 40 40 40 40 40 40 40 41
39 41 32 23 23 29 31 30 40 47 49 49 51 51 47 48 49 48 46 43 42 42 44 46 47 47 47 49 49 49 47 46 46 46 44 43 42 41 39 39 39 39 38 38 39 39 38 39 39
39 36 44 36 16 24 34 37 44 44 46 47 48 45 45 47 47 46 44 42 42 42 44 46 48 48 47 48 48 46 46 46 46 45 44 43 43 41 39 38 38 38 38 38 38 38 36 37 36
42 44 35 31 22 18 31 33 41 44 48 50 48 49 47 46 46 45 43 41 41 42 44 46 49 49 46 46 46 45 45 45 45 44 42 40 39 39 36 36 37 37 37 36 37 35 35 35 34
38 36 35 36 31 24 21 36 42 48 49 48 49 49 48 46 47 45 42 40 40 40 41 44 46 43 43 44 44 43 42 42 43 42 41 39 38 37 37 36 36 36 35 35 36 35 34 34 34
35 37 37 31 26 26 27 40 44 46 47 44 46 47 46 45 46 43 41 39 38 39 39 42 43 42 43 43 43 42 40 41 40 40 39 38 38 37 36 35 36 35 35 35 35 34 34 33 33

GFSSGP_sfc_temp_066.txt.gz
Temp
81 85 90 88 74 73 64 65 70 68 69 73 74 72 73 71 70 66 78 82 84 83 84 81 75 76 76 75 76 76 76 76 76 76 76 76 76 75 75 75 75 76 76 77 76 75 75 73 73
86 84 89 83 70 63 68 69 67 71 71 73 72 71 71 70 72 73 76 80 84 84 84 83 73 75 75 75 76 76 76 76 76 76 76 76 75 75 75 75 75 76 76 76 75 74 74 73 73
82 83 82 77 70 64 66 68 72 70 71 71 71 71 72 70 74 78 81 82 84 83 84 82 73 75 75 75 75 76 76 76 76 76 75 75 75 75 75 75 75 75 76 75 74 74 73 72 72
85 85 80 71 66 68 69 72 73 69 70 71 73 70 71 75 76 78 81 82 83 82 83 75 74 75 75 75 75 75 75 76 75 75 75 74 74 74 74 74 74 74 74 74 73 73 72 71 70
85 83 72 67 66 68 70 72 74 71 72 72 71 70 70 74 77 78 77 82 82 82 83 81 73 74 74 75 75 75 75 75 75 75 74 74 74 74 74 74 73 73 73 73 72 71 70 70 70
79 80 68 64 66 69 71 72 74 73 72 71 70 71 72 76 76 78 80 82 84 82 81 81 71 71 72 73 74 74 74 74 74 74 74 74 73 73 73 73 73 73 72 72 71 70 69 69 69
76 74 67 65 65 66 71 73 72 74 72 72 74 71 73 74 77 78 80 83 83 83 80 81 81 76 68 70 70 72 73 73 73 73 73 72 72 72 72 72 72 72 71 71 70 69 69 68 68
78 77 64 66 66 66 71 71 73 74 73 70 75 73 72 77 75 77 78 80 81 81 81 81 81 80 80 78 67 68 70 71 71 70 68 67 67 68 68 68 70 71 70 69 69 68 68 67 65
72 71 66 66 64 70 69 70 70 71 72 70 72 73 72 76 73 74 73 75 76 76 79 80 80 80 81 80 74 67 67 68 67 68 65 66 76 75 74 66 68 69 68 68 67 66 65 63 62
74 69 68 71 72 70 70 72 73 71 70 70 70 71 69 70 71 72 73 73 74 74 76 79 79 80 80 79 78 78 77 77 77 75 75 77 76 75 73 65 64 66 65 66 65 64 64 67 70
67 69 68 69 70 70 70 68 72 71 68 76 75 76 70 70 71 73 75 77 76 77 77 77 78 79 78 76 71 74 77 75 75 74 76 73 69 70 73 69 68 68 65 69 68 68 69 67 68
67 65 67 67 67 66 67 70 68 71 78 75 79 78 72 69 71 73 75 77 76 75 75 75 75 70 72 71 73 76 76 76 77 76 76 70 68 67 68 68 63 65 68 68 68 66 65 65 65
67 66 66 66 65 67 66 68 69 68 77 72 70 69 72 73 73 75 76 76 75 72 74 73 73 69 69 73 71 70 77 73 77 76 75 74 71 65 67 64 65 64 64 67 67 65 64 62 61
66 65 66 66 67 66 64 67 65 73 74 72 70 72 73 72 73 73 71 72 72 72 72 73 71 73 72 72 75 72 70 79 77 75 73 73 73 70 65 66 68 66 61 65 62 60 56 56 58
64 63 65 66 65 65 65 62 63 75 67 69 70 73 72 72 72 71 72 71 73 72 72 70 71 71 71 72 73 75 75 74 75 76 74 74 73 71 68 64 65 61 61 61 58 56 55 53 56
62 63 60 63 62 64 64 62 71 67 68 70 74 74 72 72 71 72 74 73 73 72 70 70 67 68 70 71 71 73 73 74 75 74 72 73 73 69 68 62 60 57 55 58 56 57 51 52 54
59 59 56 60 62 61 61 62 69 64 64 68 72 73 73 72 72 72 72 72 72 71 70 68 67 68 68 69 71 72 71 68 70 70 68 67 65 64 63 61 59 60 56 60 57 52 51 50 52
57 55 54 57 60 58 59 59 68 71 64 68 72 74 72 71 73 75 72 71 71 71 70 69 67 68 68 68 69 68 68 65 62 61 61 63 63 62 62 59 57 59 55 53 54 50 50 51 54
59 56 56 61 59 57 60 61 66 70 69 68 70 71 73 73 77 76 73 71 68 68 67 67 65 66 66 65 63 61 57 58 55 55 57 58 60 59 58 56 55 56 54 52 53 49 48 50 54
56 56 57 60 55 56 59 58 65 67 67 71 73 74 75 76 76 73 71 69 66 67 65 65 65 66 65 66 65 64 60 58 59 53 53 54 55 56 57 55 55 56 54 51 51 49 48 52 54
55 54 56 55 54 55 53 55 61 66 65 67 69 72 74 75 75 76 71 68 67 65 64 64 64 65 65 65 65 60 59 56 50 50 49 49 52 52 54 54 53 54 51 48 50 51 54 50 53
52 57 55 52 52 50 53 49 61 66 65 63 67 72 73 73 73 72 73 67 66 65 66 64 64 64 64 64 61 59 59 56 54 51 51 47 48 48 50 50 50 49 50 49 51 54 56 54 50
54 53 53 51 51 47 53 46 58 55 59 64 68 70 73 74 72 71 70 67 68 65 63 63 63 63 62 63 61 61 61 61 55 55 47 45 45 46 48 49 47 47 50 52 55 54 55 55 54
52 52 49 49 49 42 54 49 56 63 62 65 68 71 72 72 69 69 68 66 65 63 61 60 61 61 61 60 60 60 61 57 50 51 48 44 44 45 46 46 48 50 51 53 55 54 52 54 54
53 52 44 40 37 40 46 45 55 62 62 63 68 72 69 67 68 67 64 61 60 57 57 58 59 59 60 58 59 60 61 57 54 49 48 45 45 46 47 44 45 47 50 53 53 52 52 52 52
48 53 45 34 37 46 38 40 55 61 63 63 65 66 66 62 65 66 65 62 59 56 56 57 56 57 59 57 58 59 60 57 57 52 54 51 51 53 51 46 45 45 47 52 51 51 51 50 50
47 43 55 45 31 37 49 55 61 57 59 61 60 65 65 65 64 64 64 61 59 55 55 56 56 55 58 56 57 57 58 55 54 51 56 55 55 51 45 43 43 44 45 50 50 49 46 47 47
51 56 43 44 33 33 45 47 52 57 62 63 62 63 64 64 64 63 62 59 57 56 56 55 56 55 55 55 56 56 55 55 55 51 50 48 51 45 41 40 41 43 44 48 48 46 45 45 44
48 47 45 48 43 38 38 49 64 62 64 62 63 61 61 61 61 63 61 57 55 54 54 54 54 54 53 53 55 53 52 52 50 46 46 45 44 40 40 39 40 40 41 46 46 45 44 43 41
49 51 51 42 36 40 40 45 58 60 59 57 58 58 60 58 60 61 59 56 53 53 53 53 53 52 53 53 53 52 51 51 49 46 46 45 42 41 39 38 38 38 39 43 44 41 42 41 40

GFSSGP_sfc_temp_069.txt.gz
Temp
82 94 94 90 75 75 69 69 76 72 73 79 80 77 76 77 73 65 82 86 87 85 85 80 75 76 76 76 76 76 76 76 76 76 76 76 76 76 76 76 76 76 77 77 75 75 74 73 73
93 91 90 87 71 66 69 75 70 75 77 79 78 76 76 73 78 76 80 84 87 86 86 84 73 75 75 75 76 76 76 76 76 76 76 76 75 75 75 76 76 76 76 76 74 74 73 73 72
88 90 84 78 73 67 68 73 77 76 77 77 76 78 77 75 79 80 86 86 87 86 86 83 73 75 75 75 75 75 75 75 76 75 75 75 75 75 75 75 75 75 75 75 74 73 73 72 72
90 89 86 72 69 73 73 76 79 75 75 77 78 75 77 81 82 85 85 87 86 85 86 74 74 75 75 75 75 75 75 75 75 75 75 75 74 74 74 74 74 74 74 74 73 72 72 71 71
90 86 73 70 70 74 77 78 79 75 77 77 77 75 75 78 83 83 84 86 85 83 84 80 73 74 74 75 75 75 75 75 75 74 74 74 74 74 74 73 73 73 72 72 72 71 71 71 70
80 83 70 67 71 74 77 79 79 78 78 77 74 76 76 82 80 82 85 86 88 84 84 82 71 71 73 74 74 74 74 74 74 74 74 73 73 73 73 73 73 72 72 71 71 70 70 69 70
76 75 70 70 70 71 75 80 77 78 77 77 80 74 78 78 83 83 84 87 87 85 83 82 81 75 68 70 71 72 73 73 73 73 73 72 72 72 72 72 72 72 71 71 70 69 69 68 69
80 78 71 72 71 69 77 77 80 79 77 79 81 75 76 80 83 83 85 86 86 82 82 81 81 81 79 77 67 69 70 71 71 70 68 67 68 68 68 68 70 71 70 70 69 68 67 67 67
80 71 68 71 70 74 77 75 77 80 78 76 78 78 77 84 81 80 80 81 78 79 80 80 79 80 79 79 73 67 67 68 67 67 65 66 74 73 73 66 68 69 69 68 68 66 65 64 64
76 70 72 78 79 75 76 77 78 74 75 75 76 78 75 78 77 76 76 76 76 77 78 80 79 79 79 79 76 77 75 74 75 74 72 75 76 75 72 65 64 66 66 66 66 66 65 67 70
76 70 77 76 76 76 76 74 78 74 73 78 78 80 74 74 75 76 77 79 79 80 78 80 78 78 78 78 77 78 76 75 75 75 75 75 71 71 71 68 68 66 64 67 67 68 70 69 69
70 74 74 72 71 71 72 76 73 74 79 81 84 85 78 74 75 77 78 80 80 80 80 79 80 77 79 78 78 78 78 76 76 75 74 72 67 68 69 70 69 68 70 69 68 67 66 66 66
70 72 71 71 69 71 70 71 73 75 81 82 78 77 79 77 78 79 81 82 82 79 80 80 79 79 78 77 79 76 79 76 78 77 75 74 71 69 68 66 65 67 67 67 67 66 65 63 64
72 71 72 71 71 70 67 72 69 77 81 81 79 76 78 79 79 80 79 80 80 80 79 80 78 77 75 76 78 76 79 78 76 73 74 75 72 71 68 64 64 66 68 67 65 64 62 60 62
70 66 70 71 71 69 69 66 68 78 77 75 77 78 79 80 81 80 80 79 80 80 79 78 77 77 77 76 78 79 78 77 77 75 76 74 72 70 69 64 65 67 66 64 60 59 58 57 58
67 67 63 70 68 67 67 63 77 76 78 74 77 80 79 79 80 81 82 80 80 79 78 78 75 75 76 76 77 77 78 78 78 79 75 74 73 70 69 67 66 62 62 58 57 56 56 55 55
65 61 63 66 68 67 65 65 75 73 72 72 77 79 80 80 80 80 81 80 79 80 78 76 74 73 73 74 76 76 76 75 77 78 74 75 73 71 68 65 62 60 58 58 54 54 56 54 53
61 60 63 62 64 62 63 63 71 76 75 73 76 79 80 79 80 82 81 80 80 80 78 77 74 72 72 73 73 74 74 71 72 73 69 68 71 69 67 63 59 58 56 54 55 52 55 53 53
64 62 61 67 64 61 63 65 70 75 76 75 77 77 78 80 84 83 82 79 77 77 76 75 73 71 72 70 69 69 69 70 64 63 66 66 64 65 63 60 58 57 55 54 55 50 49 50 53
62 59 61 66 63 58 63 62 69 72 73 75 76 77 79 81 83 83 82 79 75 74 74 73 73 72 71 71 70 71 70 69 67 62 61 60 60 61 61 58 56 55 52 51 50 49 50 49 51
60 59 60 60 60 61 58 58 65 73 74 74 76 78 79 80 81 83 81 78 75 72 72 71 71 71 71 70 70 69 68 65 60 60 56 54 54 56 57 57 56 54 52 50 49 50 51 46 50
55 66 61 59 55 53 60 51 64 70 71 74 74 75 78 80 81 80 81 79 75 72 72 71 71 71 70 70 67 65 63 60 61 60 56 52 51 53 54 55 55 54 54 52 49 52 51 50 48
58 59 58 57 54 53 55 49 60 69 66 71 75 76 78 79 80 80 79 76 77 73 70 70 70 70 69 68 67 65 61 63 67 63 57 52 47 49 51 51 52 52 52 51 50 48 49 51 51
59 56 55 55 54 44 55 55 58 64 69 73 75 77 78 79 77 76 76 75 73 72 68 67 68 67 68 67 66 64 62 63 63 59 54 50 48 46 46 48 49 50 50 48 48 48 49 49 52
57 54 45 43 41 42 55 51 59 66 70 70 73 73 77 73 73 74 71 67 67 66 64 64 65 65 66 64 64 64 63 64 63 59 55 48 45 45 44 46 47 48 49 49 49 47 49 49 51
51 55 46 35 40 46 44 43 58 69 72 70 70 71 71 70 70 69 71 70 67 63 62 62 61 63 64 64 63 63 63 63 62 60 58 55 50 50 47 45 47 48 50 50 49 49 48 49 48
51 46 58 46 39 39 49 57 66 65 64 67 70 71 70 71 70 68 70 70 67 62 61 61 61 60 63 63 62 61 62 62 61 60 58 56 54 53 50 46 46 46 48 48 49 47 47 48 48
54 59 44 46 34 33 45 49 53 61 65 69 67 68 70 69 69 68 68 67 65 63 62 61 61 60 60 62 61 60 60 61 60 60 57 55 53 51 48 47 45 46 46 45 46 44 44 46 46
49 47 49 51 47 38 38 48 66 65 65 65 66 66 65 64 66 68 68 65 62 61 60 59 59 59 58 59 59 58 58 59 58 57 55 54 53 49 45 43 43 43 42 43 44 43 42 43 42
57 53 52 43 40 45 43 45 66 65 63 63 64 66 65 63 64 66 66 63 60 59 59 58 58 57 58 58 56 56 57 57 55 55 54 52 47 43 45 42 41 41 41 41 42 41 42 41 39

GFSSGP_sfc_temp_072.txt.gz
Temp
76 84 84 76 62 61 57 59 68 66 66 67 74 68 64 67 63 54 74 80 80 79 77 76 75 76 76 76 76 76 76 76 76 76 76 76 76 76 76 76 76 76 76 76 76 74 74 73 74
80 88 78 71 59 54 56 65 64 68 70 72 71 66 66 63 72 71 72 81 82 81 77 77 73 75 75 75 75 75 76 76 76 76 76 76 76 76 76 76 76 75 76 76 75 74 73 73 74
79 87 69 64 60 55 56 64 67 69 70 69 66 67 67 66 73 73 78 81 82 81 80 76 73 75 75 75 75 75 75 75 76 76 76 75 75 75 75 75 75 75 75 75 74 73 73 73 74
80 76 73 60 59 63 64 67 70 68 65 68 67 64 69 73 75 77 80 82 81 81 80 72 74 75 75 75 75 75 75 75 75 75 75 75 75 75 74 74 74 74 74 73 73 73 72 72 73
77 73 61 59 60 65 68 72 71 68 67 68 65 63 63 71 77 79 79 82 80 80 76 74 73 74 74 74 75 75 75 75 74 74 74 74 74 74 74 74 73 73 72 72 72 72 71 72 72
68 70 57 55 61 67 68 69 69 68 70 67 63 62 63 73 73 76 79 78 80 78 76 74 70 71 72 73 74 74 74 74 74 74 74 74 73 73 73 73 72 72 72 72 71 71 71 71 71
65 62 58 60 61 62 68 71 63 67 68 66 68 62 63 68 74 76 77 78 79 80 77 74 73 71 69 70 71 72 73 73 73 73 72 72 72 72 72 71 71 72 71 71 70 70 70 70 70
68 65 60 59 60 60 68 69 68 65 66 68 68 62 58 68 75 75 76 77 77 77 77 74 73 72 71 69 68 69 70 70 70 69 68 67 67 68 68 67 70 71 70 70 69 69 69 69 69
70 58 55 60 61 62 69 65 66 67 67 64 68 65 67 74 74 72 71 73 73 75 75 76 75 73 73 71 68 66 67 67 67 66 65 65 66 66 67 65 68 69 69 68 68 67 67 66 66
62 56 61 68 68 65 67 66 66 62 64 64 65 66 68 71 69 68 68 69 69 71 73 74 74 75 75 75 69 69 69 68 68 67 66 68 67 66 65 62 64 66 66 67 67 67 66 64 61
65 58 65 68 67 69 67 64 67 63 60 67 67 65 67 67 67 68 68 69 69 74 73 74 74 74 73 72 71 70 69 68 68 67 66 69 65 63 61 60 59 58 60 61 62 61 60 61 60
59 68 67 66 65 65 62 68 64 65 63 69 68 71 66 65 66 68 68 69 70 72 72 74 74 73 73 72 71 71 70 69 68 68 67 66 64 64 62 60 59 57 58 57 58 57 58 58 59
59 64 66 66 63 62 65 62 63 64 69 71 70 71 66 66 66 68 70 70 71 70 71 73 73 74 73 73 71 70 70 69 69 69 69 67 65 63 63 63 62 59 63 59 57 57 56 56 57
64 65 63 65 64 64 60 61 60 65 69 69 68 67 67 67 67 67 69 69 70 72 71 73 73 75 75 71 70 71 69 71 69 69 69 69 66 64 61 60 62 61 61 58 60 58 54 53 54
63 57 61 63 63 60 60 56 59 66 67 67 67 66 68 68 69 68 70 69 71 71 72 70 72 74 71 67 69 69 69 69 69 67 69 70 67 65 62 59 60 62 61 60 57 56 54 50 52
57 55 49 60 62 59 56 49 64 63 65 64 65 64 67 68 69 69 70 71 71 70 70 70 72 71 69 68 69 69 68 67 67 68 68 68 69 68 64 60 59 61 59 55 54 53 52 51 48
54 46 51 54 62 58 55 51 61 62 60 60 61 65 67 67 69 70 70 69 70 70 70 69 68 67 68 68 67 67 67 66 66 67 68 68 68 67 65 62 59 59 56 55 54 51 53 51 49
48 47 53 50 56 53 52 52 60 64 63 61 62 64 65 67 69 70 69 69 69 69 69 70 69 67 66 65 65 64 64 64 66 65 64 66 68 67 65 64 59 57 55 54 53 51 51 51 51
54 52 51 55 57 52 52 54 59 64 63 61 62 63 64 66 70 71 70 68 67 66 68 70 67 66 66 65 63 61 63 61 62 63 63 64 65 67 64 61 58 56 54 53 53 51 50 48 50
52 50 49 56 56 51 52 52 58 61 63 64 63 63 65 66 68 70 68 65 66 67 66 67 68 66 66 66 65 64 63 59 60 59 59 61 61 62 61 59 57 56 54 53 51 49 47 47 47
51 49 50 51 52 51 46 45 52 60 64 65 65 67 66 67 66 67 66 65 63 62 63 65 67 67 66 65 62 59 58 55 54 55 56 57 58 61 60 58 57 56 55 51 49 49 49 46 48
47 55 55 52 46 39 48 35 49 58 59 61 62 61 62 64 66 67 68 63 62 65 64 63 63 63 64 63 61 61 60 58 57 54 53 55 54 57 58 57 56 56 55 51 48 50 50 47 45
50 53 51 48 43 40 42 37 45 54 54 59 63 63 64 65 66 65 65 66 63 60 58 59 60 61 61 62 62 59 56 55 52 51 50 50 51 54 55 56 55 54 53 51 49 48 48 48 49
55 50 48 45 44 33 45 42 43 50 53 56 60 61 64 62 60 62 62 61 60 58 57 57 58 59 60 61 60 58 57 52 51 51 51 51 50 50 51 53 54 54 53 51 49 49 49 48 49
48 45 32 30 28 30 42 40 48 56 60 57 59 60 59 57 58 59 57 57 56 55 55 55 56 56 57 56 57 57 54 52 52 51 50 49 47 46 48 49 50 51 52 51 49 47 47 46 46
44 46 33 25 27 31 37 35 43 56 56 57 58 59 57 56 59 58 59 57 55 55 54 54 54 54 55 55 54 55 55 53 54 52 51 50 49 49 48 48 49 49 50 49 48 47 47 47 46
44 39 49 37 26 26 37 45 55 55 56 56 58 59 58 58 58 57 58 58 55 52 52 52 53 53 54 54 53 53 53 53 54 52 51 50 49 48 46 46 46 47 48 48 48 46 46 46 46
46 50 37 36 23 21 33 35 43 51 58 58 55 54 55 56 56 57 57 56 54 52 52 52 53 51 52 53 52 52 52 52 52 51 50 48 47 47 45 45 45 45 46 46 47 46 46 45 44
41 41 42 44 37 26 28 37 52 52 53 53 54 56 53 53 54 55 54 53 53 52 51 50 51 51 50 51 51 50 50 50 51 50 49 48 46 45 44 43 44 43 43 44 45 43 42 43 40
46 45 46 34 31 32 34 40 53 54 53 53 53 55 52 54 55 54 53 52 51 50 50 49 49 49 50 50 50 49 49 49 49 48 48 46 45 41 41 40 41 41 41 41 42 40 41 40 38

GFSSGP_sfc_temp_075.txt.gz
Temp
71 74 69 70 58 53 48 52 59 60 59 61 65 65 61 60 59 52 68 73 75 73 74 75 75 76 76 76 75 76 76 76 76 76 76 76 76 77 76 76 75 76 76 75 75 75 75 75 75
69 78 70 61 52 45 48 55 57 59 63 65 66 63 61 57 66 66 66 75 77 75 74 74 73 75 75 75 75 75 76 76 76 76 76 76 76 76 76 76 75 76 75 75 75 75 75 75 74
73 75 64 57 49 47 49 54 57 60 63 61 60 64 62 60 65 67 73 77 76 75 75 74 73 75 75 75 75 75 75 75 76 76 76 76 76 75 75 75 75 75 75 74 74 74 74 74 74
70 68 63 54 50 54 57 57 61 60 63 64 63 59 63 67 70 73 77 78 75 75 76 72 73 75 75 74 75 75 75 75 75 75 75 75 75 74 74 74 74 74 74 74 74 73 73 73 74
67 61 54 49 51 54 61 62 64 61 60 59 61 57 59 67 73 75 76 77 74 73 73 73 73 74 74 74 74 74 75 74 74 74 74 74 74 74 73 73 73 73 73 73 73 73 72 72 73
62 60 50 46 52 58 58 65 64 61 61 60 60 58 58 67 70 72 75 76 75 72 72 73 69 71 72 73 74 74 74 74 74 74 74 74 73 73 73 72 72 72 72 72 72 72 71 72 71
58 54 49 48 54 56 61 65 61 61 61 60 65 56 57 62 69 73 73 78 75 75 73 71 71 70 69 70 71 72 72 73 73 73 73 72 72 72 72 71 72 72 71 71 71 71 71 71 70
61 57 50 48 52 54 60 61 62 63 59 64 64 57 54 63 70 72 72 74 74 72 72 69 69 69 69 69 67 68 69 70 70 69 68 67 67 68 68 67 70 71 70 70 70 69 70 70 69
62 52 49 52 55 56 62 59 63 62 64 61 63 62 64 69 69 69 67 67 73 72 71 70 68 69 69 68 67 66 67 67 66 66 64 63 63 64 64 65 68 69 69 69 68 69 68 66 66
56 49 53 58 56 56 63 61 62 58 59 57 59 61 65 66 66 64 64 64 67 70 71 71 69 69 69 71 66 67 67 66 65 64 63 64 63 63 63 62 64 66 66 67 69 68 65 61 58
57 53 59 58 60 62 61 59 64 60 54 61 62 62 64 62 63 63 64 64 65 66 70 72 72 72 71 70 68 67 67 65 64 64 63 63 62 61 60 58 57 58 59 60 61 59 58 58 57
53 61 62 61 61 60 58 62 58 60 61 63 65 65 62 61 62 63 64 64 65 65 67 70 73 72 72 70 69 68 68 66 64 64 64 63 60 59 58 58 56 55 55 56 55 55 56 56 56
55 57 61 60 59 57 60 56 57 59 64 63 64 64 63 62 62 62 64 65 65 65 66 68 72 73 72 70 70 69 68 67 66 66 65 66 61 58 58 57 57 55 55 55 54 54 55 54 55
57 58 58 59 59 58 56 55 55 61 62 62 63 60 60 60 62 61 62 66 65 70 68 68 70 72 73 72 70 68 68 68 67 66 67 65 64 61 59 58 57 55 56 55 55 53 52 51 52
58 52 55 57 58 56 56 53 56 60 61 62 61 60 60 61 61 63 67 67 69 68 70 69 69 71 72 72 70 68 68 68 67 67 67 66 65 62 60 59 57 56 58 60 58 56 53 53 52
51 50 45 54 57 55 55 47 59 60 60 61 60 57 60 62 62 64 65 67 65 65 67 69 72 70 70 72 69 68 69 67 68 67 67 68 66 64 60 59 58 56 56 56 56 53 50 48 51
46 40 44 50 57 54 51 47 57 60 58 57 57 58 60 60 62 63 65 67 68 67 67 66 69 69 68 67 69 65 66 67 66 67 67 67 67 65 63 60 59 56 54 55 54 52 52 49 48
42 41 47 46 53 51 47 48 54 58 57 58 58 59 59 60 63 66 65 66 67 66 65 69 67 69 67 65 66 63 62 64 66 65 66 66 67 66 63 61 60 58 55 53 53 51 50 49 50
49 47 43 48 54 50 48 48 52 56 55 54 54 55 57 60 66 64 66 66 62 63 62 66 65 64 66 63 63 64 64 63 60 63 63 65 66 66 64 61 59 57 55 53 52 51 49 48 49
49 45 44 48 51 49 48 49 53 54 58 62 61 56 57 57 61 64 62 61 62 65 66 65 66 64 66 67 67 65 63 58 65 59 60 63 65 65 64 61 58 57 55 52 51 50 48 47 49
46 45 44 47 47 47 43 42 47 54 54 58 58 59 59 60 61 61 62 59 62 61 62 65 65 64 66 66 60 56 56 55 55 56 59 58 62 64 63 61 59 57 55 52 51 50 50 47 47
43 49 50 48 42 37 44 32 42 53 57 55 59 57 58 58 59 61 63 58 57 64 65 65 64 63 65 63 61 61 62 60 63 63 57 53 56 60 60 60 58 57 56 53 51 51 52 50 45
47 50 48 45 40 36 37 33 40 45 49 54 58 57 58 57 58 59 61 61 58 59 56 56 58 59 62 62 62 60 60 60 51 50 51 50 50 55 58 58 57 56 56 54 51 49 49 50 47
52 48 46 42 39 30 38 39 36 45 51 52 55 55 57 58 57 58 55 58 56 54 53 53 56 56 56 61 58 57 58 51 49 48 48 47 49 51 54 54 56 56 55 53 51 50 50 48 50
48 43 31 29 26 28 37 34 42 50 52 55 56 55 53 55 56 58 58 59 54 51 52 52 53 54 53 53 54 53 52 50 51 50 50 47 48 49 52 53 54 54 54 52 51 49 48 47 47
43 43 31 23 25 29 35 33 44 52 56 56 56 56 52 53 54 54 55 55 53 51 51 51 51 52 52 52 52 52 52 53 53 52 50 50 50 50 51 51 53 54 53 52 50 49 48 48 47
42 38 45 35 20 25 34 39 50 52 54 56 54 53 52 52 53 54 53 53 53 51 51 51 51 51 51 51 51 51 51 51 51 50 50 50 49 48 49 50 51 50 50 51 49 48 46 47 46
45 48 36 33 22 20 30 32 40 48 52 49 50 51 51 50 51 52 52 52 50 49 49 49 50 50 50 50 50 50 50 50 50 49 49 48 48 47 46 47 48 48 49 48 48 47 46 45 45
40 39 40 40 33 24 24 34 46 49 51 51 49 51 51 52 52 52 52 51 51 50 49 49 48 49 49 49 49 48 49 49 49 49 49 48 46 46 44 44 45 46 46 47 47 47 45 44 44
42 42 42 32 29 31 30 39 47 50 50 53 53 54 51 50 52 51 51 50 49 49 48 48 48 48 48 48 48 48 48 47 47 48 47 46 46 43 44 42 42 44 44 45 45 44 44 43 42

GFSSGP_sfc_temp_081.txt.gz
Temp
68 69 66 65 56 50 43 48 51 54 54 56 60 59 58 56 56 49 63 67 69 70 71 72 74 76 76 75 75 75 76 76 76 77 76 76 76 76 75 75 75 75 76 77 76 76 75 75 74
68 73 66 56 49 43 45 49 53 55 59 59 60 57 55 52 59 59 62 68 71 71 72 72 72 75 75 75 75 75 75 76 76 77 76 76 76 76 75 75 75 75 76 76 75 76 75 74 74
70 69 62 52 44 44 45 49 53 54 57 56 55 58 57 56 58 61 66 69 70 70 72 71 72 74 75 75 75 75 75 75 76 76 76 76 76 75 75 74 74 75 76 76 76 75 74 74 73
66 65 58 51 44 48 50 53 54 55 55 58 56 54 57 63 62 65 69 70 69 69 71 70 73 74 75 74 74 75 75 75 75 75 75 75 75 74 74 74 74 74 75 75 75 75 74 73 73
61 57 50 45 45 49 49 55 55 54 54 54 55 51 53 62 66 68 69 70 68 67 69 70 72 73 74 74 74 74 74 75 75 75 74 74 74 74 73 73 73 74 74 73 74 74 73 73 72
59 55 47 43 45 51 51 54 56 53 53 54 55 52 56 61 65 67 70 68 70 68 69 70 69 70 72 73 73 73 74 74 74 74 74 74 73 73 73 73 73 73 72 73 73 72 72 71 70
56 51 46 44 47 49 56 57 54 55 53 54 59 51 54 58 65 67 68 67 68 69 69 69 69 69 68 70 70 71 72 72 73 73 73 72 71 71 71 71 72 72 72 72 72 71 71 70 69
56 54 46 44 50 50 55 57 59 57 57 58 59 52 51 61 65 66 66 66 66 67 68 68 68 68 68 68 67 68 69 70 70 70 68 67 67 68 68 67 70 72 71 71 70 70 69 69 67
56 50 46 49 49 52 56 54 55 57 58 55 58 57 58 65 64 64 66 64 65 66 67 68 67 67 67 67 65 65 66 67 66 65 63 62 62 62 63 64 68 70 70 70 69 68 67 65 64
54 48 51 54 53 53 57 54 58 54 54 53 54 56 59 62 63 62 62 62 64 66 67 68 68 68 67 68 65 65 65 63 63 62 61 61 60 60 61 61 64 66 67 68 68 66 63 59 55
51 51 56 55 56 57 58 53 56 55 50 57 59 58 58 59 60 63 62 63 64 66 67 68 68 68 67 68 66 64 63 61 60 60 60 59 59 58 57 58 58 59 60 58 59 57 55 55 54
52 54 57 58 56 57 57 57 53 55 59 58 61 60 58 59 61 62 62 61 62 62 65 67 67 68 68 67 67 67 66 61 59 59 59 58 56 55 55 56 56 56 55 54 53 53 53 53 54
51 54 55 56 55 54 56 53 55 55 60 57 58 58 58 60 62 64 64 62 61 62 64 65 66 67 68 67 67 67 67 63 61 60 59 58 56 55 54 54 54 54 54 53 52 52 52 52 52
55 55 53 54 54 54 52 50 51 54 54 55 57 56 57 58 60 57 59 61 60 63 63 65 65 66 67 68 67 68 68 66 62 60 61 59 58 56 54 53 53 53 53 52 51 51 50 50 50
54 50 50 51 53 52 53 50 52 53 52 53 55 54 55 56 57 58 63 63 63 64 64 64 65 67 66 67 67 68 68 67 63 61 61 61 58 56 55 53 52 52 52 52 51 50 48 48 49
48 47 43 49 51 50 51 47 52 52 51 54 52 51 53 55 57 58 59 61 61 62 62 65 67 66 66 67 67 68 68 67 66 63 64 63 62 60 58 57 56 56 55 53 50 52 49 47 50
42 38 40 47 51 49 48 46 52 51 52 52 52 53 54 54 56 57 58 59 61 61 62 63 65 65 65 66 66 66 67 67 67 66 63 65 63 61 60 59 59 57 56 55 54 51 51 49 48
39 37 39 41 48 46 44 47 52 53 51 52 51 52 53 53 57 60 59 60 61 60 62 64 65 65 65 66 65 63 64 65 67 66 65 64 64 62 61 60 59 58 56 54 53 51 50 48 48
43 40 39 43 48 45 45 44 49 53 50 50 51 51 52 53 61 57 58 57 56 57 58 61 62 65 65 64 63 62 63 64 65 66 66 65 64 63 61 60 58 58 56 55 53 50 48 46 46
43 41 39 44 46 46 42 46 49 50 52 53 53 53 52 52 54 56 55 54 54 59 59 62 63 65 65 67 67 67 65 63 65 66 66 66 65 64 62 60 58 58 56 54 52 49 46 45 46
40 40 39 43 42 42 40 41 43 49 48 52 52 51 52 53 54 54 54 54 53 52 55 60 62 65 66 67 64 56 56 55 57 60 64 65 65 64 63 62 59 58 57 53 52 51 50 45 46
39 47 46 43 39 35 38 32 39 45 48 50 52 50 51 51 51 53 54 54 53 54 52 55 58 61 64 65 64 63 63 62 62 63 61 62 64 64 63 62 61 59 57 55 53 53 52 51 44
44 46 44 41 36 33 33 33 39 40 45 50 50 50 50 51 51 52 53 53 52 51 50 50 53 57 59 62 64 62 62 64 58 56 56 55 59 63 63 62 61 59 57 56 53 52 51 51 51
47 44 41 35 35 29 33 35 36 41 44 46 48 49 50 50 50 51 51 52 51 49 48 48 50 53 56 59 59 60 61 57 52 51 53 52 55 59 57 60 60 59 57 56 53 52 51 51 52
43 41 30 28 25 27 30 31 38 45 46 47 48 48 47 48 49 50 50 50 50 49 49 49 50 51 52 54 55 55 57 55 54 53 53 49 50 51 57 55 57 58 57 57 55 52 50 50 49
41 41 31 22 22 28 32 31 41 45 47 47 48 46 47 48 48 49 49 48 48 49 49 48 49 49 49 50 52 52 53 52 53 51 51 52 53 54 53 56 57 57 57 56 55 52 51 50 49
41 37 41 30 16 23 31 37 47 45 47 47 48 48 48 49 50 50 50 48 47 47 48 47 48 48 49 48 48 49 49 50 51 50 50 51 49 49 48 50 53 55 55 54 54 52 50 50 49
42 45 35 30 21 18 29 30 38 43 45 46 47 47 49 49 51 50 50 50 49 47 46 47 47 47 47 48 47 47 47 47 48 48 47 47 47 47 46 46 47 48 50 52 54 54 52 49 49
39 37 37 38 32 23 20 31 42 45 46 44 46 48 49 50 49 49 49 49 49 49 48 48 48 47 47 47 46 46 46 46 46 46 46 46 46 45 45 45 46 46 47 47 49 51 52 50 49
39 40 39 32 27 27 29 32 44 45 46 48 48 48 46 47 48 48 48 48 48 48 48 47 46 46 46 46 46 46 46 46 45 45 45 45 45 44 45 44 45 46 48 48 48 48 49 48 46

GFSSGP_sfc_temp_084.txt.gz
Temp
68 68 65 64 56 48 41 46 49 51 51 54 58 56 55 54 54 49 61 65 68 68 71 73 75 75 75 75 75 75 76 76 77 76 76 76 76 75 75 75 76 76 77 77 76 76 75 74 74
66 70 65 55 49 42 43 46 51 53 55 56 58 55 55 50 57 57 61 66 70 69 70 71 73 75 75 75 75 75 76 76 77 76 76 76 76 76 75 75 76 76 76 76 76 75 74 74 74
68 67 62 51 42 43 43 48 51 52 54 54 53 56 54 53 56 59 63 67 68 69 70 71 72 74 75 75 75 75 75 76 77 76 76 76 76 75 74 75 75 76 76 75 76 75 74 73 73
66 65 58 50 43 46 47 49 53 54 53 54 53 53 56 61 60 63 66 68 67 68 69 70 73 74 75 74 74 75 75 75 75 75 76 75 75 75 74 74 75 75 74 75 75 74 73 73 73
61 57 49 44 43 46 47 52 55 53 52 52 53 49 52 59 64 66 66 68 66 66 68 70 72 73 74 74 74 74 74 75 75 75 75 74 74 74 73 74 74 75 74 75 74 74 73 72 72
57 54 46 42 43 49 49 52 55 52 51 52 53 53 54 59 62 63 66 65 67 67 68 69 68 70 72 73 73 73 74 74 74 74 74 74 73 73 73 73 74 74 74 74 73 72 71 70 70
56 50 45 43 45 47 53 55 52 53 53 54 58 52 52 57 63 64 64 64 66 67 67 68 68 68 68 70 70 71 72 73 73 73 73 72 72 72 72 72 73 73 73 72 72 71 70 70 69
55 52 43 41 47 48 53 54 54 54 55 54 57 52 50 59 63 63 64 64 64 65 66 68 67 67 67 67 66 67 69 70 70 69 68 67 68 68 68 67 70 72 72 72 71 70 69 69 68
56 50 44 48 49 50 51 52 52 54 55 53 57 55 56 61 62 62 61 62 63 65 66 69 68 67 66 66 64 65 66 66 66 65 63 62 61 62 62 64 68 71 71 70 70 69 67 65 64
54 47 51 54 52 52 54 53 56 51 51 52 52 54 57 60 62 61 61 61 64 65 67 69 69 69 66 67 64 64 64 63 63 62 61 60 60 59 61 61 65 67 68 68 69 66 63 58 55
50 50 53 52 54 57 57 52 56 54 50 57 58 57 56 57 60 61 61 62 64 67 68 68 69 69 68 67 66 63 62 61 60 60 60 59 58 57 58 58 58 59 60 59 59 57 54 54 54
50 52 54 56 55 56 56 56 52 53 56 56 58 57 56 58 59 61 61 60 62 66 68 69 69 68 68 68 66 66 64 60 58 59 59 57 55 55 55 56 56 56 55 54 53 53 53 53 53
50 51 53 54 54 53 56 51 52 53 57 55 56 56 56 60 60 61 62 61 61 63 67 68 68 68 68 67 67 67 66 61 59 58 58 57 56 54 54 55 55 55 54 52 52 52 52 52 52
55 53 52 53 52 52 51 48 50 52 52 52 53 54 55 57 59 57 59 60 60 63 63 67 66 68 68 67 67 67 67 65 59 58 58 58 56 55 54 54 54 54 53 52 51 51 50 50 50
53 49 50 48 51 50 50 49 51 50 51 51 54 53 53 55 54 58 61 61 62 62 63 63 66 68 68 68 68 68 68 66 63 59 58 58 57 55 54 53 53 53 52 52 51 50 48 48 49
48 46 43 47 50 48 49 45 51 50 48 52 51 50 52 54 55 56 58 59 60 60 61 63 65 65 66 68 68 68 68 68 65 63 61 60 61 60 58 57 57 55 55 54 53 52 50 50 51
43 38 39 45 49 47 46 45 50 49 51 50 49 51 52 53 54 55 56 57 58 59 60 62 64 64 65 65 66 67 67 66 64 64 62 63 62 61 60 59 58 56 55 54 53 51 51 49 49
38 37 37 39 44 44 41 46 50 51 50 52 51 50 50 51 55 56 56 57 58 57 59 62 63 64 64 65 64 64 65 64 64 63 63 64 63 61 60 59 57 56 55 53 53 49 50 48 49
42 42 40 42 45 43 42 43 48 51 49 50 51 50 51 52 56 55 56 55 53 54 56 59 61 63 63 63 63 63 63 65 65 65 63 62 62 61 60 59 58 57 55 55 53 48 48 46 47
41 38 39 42 45 43 41 44 48 49 51 51 52 50 50 50 52 54 53 51 52 53 54 57 60 62 63 65 65 65 64 64 65 66 65 63 62 61 60 60 58 57 56 55 52 50 46 46 47
38 39 39 40 40 41 39 41 42 46 45 49 50 49 48 49 49 51 51 50 50 49 50 54 57 60 63 65 62 56 57 56 60 63 64 64 64 63 62 61 60 57 57 54 53 52 50 47 42
38 46 44 42 38 35 37 32 39 43 46 47 46 46 47 48 49 49 50 50 49 48 49 51 53 56 59 61 61 61 62 61 62 63 65 65 64 64 63 62 61 59 57 56 54 54 54 53 45
42 46 43 39 35 33 31 32 39 39 42 47 47 46 46 47 47 48 48 50 48 48 47 47 49 52 56 59 62 60 61 61 59 57 58 62 62 63 64 62 61 59 58 57 55 53 52 53 52
45 42 39 34 33 28 32 33 36 39 42 43 45 45 46 46 47 48 48 48 47 47 46 47 49 51 53 56 58 58 59 57 54 52 54 56 59 61 62 61 61 60 59 57 56 54 52 52 53
42 40 30 27 25 27 28 30 37 42 43 43 45 44 44 45 47 47 47 47 47 46 46 47 47 49 50 52 54 55 56 55 54 53 52 51 53 53 58 58 59 60 59 58 57 54 52 52 51
40 40 31 22 21 27 31 30 38 41 44 45 46 44 44 47 46 47 47 46 46 46 46 46 46 47 47 48 50 51 52 53 53 52 51 52 52 54 56 57 58 58 58 57 56 54 52 51 50
40 36 40 29 14 22 30 35 42 42 43 44 45 45 46 47 47 47 47 46 46 46 46 45 45 46 46 46 46 47 47 48 49 50 49 49 49 49 50 51 55 56 56 56 56 54 51 51 50
41 43 35 29 19 18 28 30 35 38 41 41 43 45 47 47 47 47 47 46 46 45 45 45 44 44 44 45 45 45 45 46 46 46 46 46 47 47 46 47 47 50 54 55 55 54 52 50 50
38 37 36 37 31 22 19 30 39 43 42 42 44 46 45 46 45 45 45 45 44 45 45 45 45 44 45 44 43 44 44 44 44 44 44 44 45 45 44 44 45 46 46 47 50 52 53 51 49
38 39 39 32 27 25 28 31 42 45 43 45 45 45 43 43 43 43 43 43 43 43 44 43 43 43 43 43 43 43 44 43 43 44 44 44 44 44 44 43 43 44 44 45 45 47 49 49 49

GFSSGP_sfc_temp_087.txt.gz
Temp
71 70 69 68 60 53 50 53 59 59 61 64 63 62 62 63 61 57 66 70 71 72 73 76 75 76 76 75 75 76 76 77 77 77 76 76 75 76 76 76 77 77 77 77 76 75 75 74 73
71 73 68 60 53 48 50 55 57 60 62 61 63 63 63 61 63 60 65 70 73 73 74 76 73 75 75 75 75 75 76 76 76 76 77 76 76 76 76 76 76 76 76 76 75 75 75 74 73
72 69 64 54 47 49 50 55 58 60 59 63 62 63 63 62 62 64 69 71 72 73 74 74 73 75 75 75 75 75 75 76 76 77 76 76 76 75 75 76 76 76 76 76 75 75 74 74 73
69 67 61 55 51 53 55 58 60 59 62 63 62 61 64 67 66 68 70 71 72 72 73 72 73 74 75 74 75 75 75 76 75 76 76 76 75 74 75 75 75 75 75 75 75 74 74 73 74
63 61 53 50 51 54 55 59 59 59 60 62 62 60 61 66 69 69 70 71 71 71 73 74 72 73 74 74 74 74 75 75 75 75 75 74 74 74 74 74 75 76 75 75 74 74 73 72 72
60 58 50 47 50 54 57 59 61 60 61 61 61 59 62 66 67 67 70 71 72 71 72 73 69 70 72 73 73 74 74 74 74 74 74 74 74 73 74 74 74 75 74 74 73 72 71 72 71
58 53 49 49 50 53 58 59 59 59 59 62 63 58 63 65 67 67 69 70 71 71 71 72 73 71 68 70 70 71 72 73 73 73 73 72 72 72 72 72 74 74 72 72 72 71 70 71 70
57 55 49 48 51 53 57 58 59 61 60 61 64 60 61 66 66 67 68 69 69 70 70 71 71 72 72 72 66 68 69 70 70 70 69 69 68 68 69 68 71 73 73 72 71 70 70 69 68
59 52 48 50 51 55 55 58 58 61 62 60 63 63 65 64 65 65 65 65 66 67 68 70 70 70 71 71 68 66 66 66 66 66 63 64 69 69 69 66 69 71 72 71 70 69 68 66 65
56 50 53 56 56 56 56 58 61 60 58 59 60 61 61 63 64 63 63 63 64 65 67 70 70 70 69 70 68 70 69 69 69 68 67 67 67 67 67 65 65 68 69 69 69 67 63 62 66
54 53 56 57 58 58 57 56 58 59 56 61 61 62 59 60 63 63 64 65 66 68 69 69 69 70 69 69 68 68 67 67 67 67 66 65 65 66 67 66 67 68 63 65 64 64 64 63 65
54 54 56 57 57 57 57 58 56 57 61 61 62 62 59 59 61 63 64 64 65 67 69 69 70 69 69 69 68 68 67 66 65 66 65 64 64 64 64 65 64 64 65 64 63 63 62 62 62
53 54 55 56 56 55 57 54 56 57 60 59 59 58 58 61 62 64 65 64 65 66 69 68 69 69 68 68 68 68 68 66 66 65 64 65 64 63 63 63 63 63 62 62 61 61 61 61 61
55 54 54 54 54 55 54 52 54 56 57 56 58 58 57 59 61 60 61 63 63 66 68 70 68 69 69 68 68 68 68 67 65 64 64 64 64 63 62 62 62 62 62 61 61 61 60 60 60
54 52 51 52 53 52 53 52 54 55 54 56 57 57 57 57 59 61 64 64 65 65 67 68 69 69 68 68 68 68 68 68 65 64 64 63 63 63 62 61 61 61 61 60 58 57 58 58 58
49 48 45 50 51 51 53 48 53 53 53 55 57 55 55 57 58 61 62 63 63 65 64 66 67 68 68 68 68 68 68 67 67 65 64 63 62 61 60 59 59 58 58 58 55 55 54 54 53
43 41 41 46 49 49 50 48 51 52 53 53 54 55 55 56 57 58 59 61 63 64 65 65 66 67 67 68 68 68 67 67 67 67 65 64 62 63 63 60 60 58 58 59 56 54 55 52 53
41 41 39 41 46 46 44 48 51 53 52 54 53 54 54 54 58 59 60 59 61 61 63 65 65 66 67 67 67 67 66 66 66 64 64 65 65 62 61 60 59 58 56 56 57 56 55 54 56
44 42 41 43 47 46 44 45 50 52 51 51 53 53 53 54 57 57 57 57 56 57 60 62 63 65 66 65 64 64 64 65 64 64 64 64 65 64 63 62 60 59 56 56 56 55 51 52 51
43 41 39 43 45 45 43 46 50 50 51 51 51 51 52 52 53 53 54 55 55 56 56 59 62 64 65 67 68 68 67 66 67 66 65 64 64 64 62 62 60 60 59 56 54 52 48 54 50
39 42 40 41 41 42 40 43 45 48 48 49 47 49 50 49 51 52 52 51 51 52 53 55 59 62 64 66 65 61 62 60 64 64 65 63 63 63 62 62 61 59 58 56 55 54 52 50 47
39 45 44 42 39 36 39 35 42 43 47 46 46 46 47 47 49 50 50 51 50 50 50 53 54 57 60 63 63 63 65 64 66 66 66 65 63 62 62 62 60 59 58 57 55 55 55 54 49
43 44 43 40 36 35 35 36 41 41 44 46 46 46 47 47 48 48 49 49 49 49 49 50 53 54 56 60 63 62 63 64 63 62 62 64 63 64 63 62 61 60 58 58 57 55 53 54 54
44 42 39 35 34 30 32 35 37 41 44 44 45 46 47 48 48 48 49 49 49 49 50 50 52 51 54 57 59 60 60 60 59 58 58 59 62 62 62 62 61 60 60 58 57 56 54 54 53
42 40 30 29 26 28 30 31 39 42 45 46 46 46 47 47 47 48 48 48 48 47 47 50 50 49 51 53 56 57 58 58 58 58 57 55 55 55 59 60 59 60 60 59 58 56 54 52 53
39 41 32 24 23 28 31 30 39 40 43 46 46 46 46 46 47 46 46 46 46 46 47 48 48 48 49 49 50 52 53 54 55 54 54 55 55 56 58 59 59 59 58 58 58 56 55 54 52
40 37 40 28 14 23 31 35 41 41 42 44 46 46 45 45 45 45 46 46 45 45 45 46 47 47 47 47 48 48 49 50 50 50 51 52 52 52 53 53 55 58 58 57 57 55 54 53 52
41 43 35 30 19 19 28 31 35 37 40 43 44 44 45 45 45 45 45 45 45 44 44 45 45 45 45 46 47 47 47 48 48 49 49 49 49 50 49 50 50 51 54 55 56 55 54 52 52
39 38 36 37 31 22 19 31 39 43 43 41 43 44 44 43 43 44 44 44 44 44 44 44 44 44 44 44 44 45 46 46 47 47 47 47 47 47 47 47 47 48 49 50 51 53 53 52 52
38 39 39 32 26 25 27 32 41 44 43 44 44 44 43 43 43 42 43 43 43 43 43 43 43 43 42 43 43 43 43 43 43 43 44 44 44 44 45 44 44 45 46 47 47 47 49 49 49

GFSSGP_sfc_temp_090.txt.gz
Temp
82 87 89 87 74 73 63 64 70 67 69 73 74 72 72 73 69 65 76 79 82 81 82 80 75 76 76 76 76 76 76 77 77 76 76 76 76 76 77 77 76 76 77 77 76 75 75 74 74
88 85 88 82 69 64 64 67 66 71 72 74 73 72 72 69 72 71 74 77 82 81 81 78 73 75 75 75 75 76 76 76 77 76 76 76 76 76 77 77 76 76 76 76 76 75 74 74 74
84 84 82 75 69 65 65 68 72 71 72 73 72 74 73 70 72 76 79 80 82 82 81 79 73 75 75 75 75 75 75 76 76 76 77 76 75 76 76 76 76 75 76 76 75 75 74 74 73
85 85 79 70 64 66 67 71 72 70 71 73 74 71 73 75 75 79 80 82 82 81 81 74 73 75 75 75 75 75 75 75 76 76 76 75 75 75 75 75 76 75 75 75 75 74 74 74 73
81 81 69 65 64 67 70 71 73 71 73 73 73 70 70 73 77 79 80 81 81 81 81 79 72 73 74 74 75 75 75 75 75 75 75 74 74 74 75 75 75 75 75 74 74 73 73 73 73
78 78 65 62 64 67 69 71 72 73 73 72 72 72 72 75 76 78 81 81 83 81 79 79 70 71 72 73 73 74 74 74 74 74 74 74 73 74 74 75 75 74 74 74 73 73 73 73 72
75 72 65 64 64 65 68 73 73 74 72 73 76 70 73 74 78 79 81 82 82 81 78 80 80 74 68 70 71 72 73 73 73 73 73 72 72 72 72 73 73 74 73 73 72 71 72 72 70
76 74 62 64 64 64 70 71 72 74 72 72 75 72 71 77 77 79 80 80 81 80 80 80 80 79 79 76 67 68 69 70 71 70 69 68 68 69 69 69 71 74 72 71 71 70 70 69 68
71 67 62 63 64 67 67 69 70 73 73 72 74 75 74 77 76 75 76 76 77 77 75 77 78 79 79 78 72 66 66 67 66 67 64 67 76 75 74 67 69 72 71 70 70 69 67 66 65
72 66 66 71 73 71 69 72 72 72 71 71 72 72 72 73 74 73 73 74 74 73 72 73 75 78 78 78 76 77 76 76 77 75 74 75 75 75 74 68 66 68 69 69 68 66 63 65 75
67 68 69 68 69 71 70 69 73 72 69 76 75 75 71 72 74 74 75 76 76 76 73 72 73 74 77 77 77 77 77 76 76 75 74 74 74 73 74 74 73 74 67 71 69 69 73 71 75
66 65 68 65 66 66 68 70 69 71 74 74 76 78 73 72 73 75 75 76 76 76 76 73 73 72 73 75 74 77 76 75 75 75 73 73 73 72 73 74 73 72 73 72 71 72 71 71 71
65 65 66 66 65 67 66 67 69 70 74 72 71 71 73 74 75 77 78 77 77 75 77 76 73 72 72 72 72 72 75 75 76 74 73 74 73 71 73 72 73 73 72 72 70 70 70 69 69
66 66 65 66 65 66 66 66 67 70 70 69 69 72 73 74 75 75 75 75 75 76 77 78 75 72 73 71 71 71 71 75 75 75 74 73 74 72 72 71 71 71 72 72 71 70 70 69 69
65 62 64 64 64 64 66 65 65 71 68 69 70 72 70 72 73 73 75 75 76 76 78 76 74 73 72 71 71 71 71 71 73 74 73 72 72 73 72 71 71 71 71 70 68 66 65 68 68
61 63 57 61 62 61 64 62 65 67 67 71 71 72 71 72 72 75 77 77 78 77 76 77 73 71 71 71 71 72 72 71 71 72 74 72 72 70 65 64 64 65 64 68 67 64 59 60 61
58 57 55 57 59 60 62 63 64 64 66 68 70 71 71 72 72 74 75 75 77 77 77 75 75 72 71 72 72 71 71 71 72 71 70 73 72 71 68 68 68 63 61 61 63 65 64 63 64
53 54 54 57 57 57 57 61 66 66 64 69 71 71 71 70 73 74 74 74 75 76 76 76 75 73 71 71 71 70 68 68 70 70 68 71 72 72 70 71 70 66 65 61 61 60 62 64 66
59 55 56 55 56 56 57 59 65 68 65 68 71 70 69 70 69 69 69 69 70 72 73 74 74 75 72 68 66 65 64 66 67 67 68 69 72 72 70 70 69 66 66 66 64 61 57 55 59
54 56 54 53 53 55 53 57 63 64 62 62 63 66 64 66 66 65 66 66 65 69 70 71 73 74 73 70 68 68 68 67 68 67 66 66 70 71 70 69 69 64 62 62 61 58 59 54 54
53 56 51 53 52 53 52 56 59 59 59 58 58 59 60 62 63 64 64 64 65 63 64 67 70 72 74 74 72 68 65 64 66 66 65 65 65 66 69 69 68 66 61 59 59 56 55 55 55
49 56 54 50 54 51 51 52 56 56 57 57 57 60 61 61 62 62 63 62 62 61 62 63 66 68 71 73 71 67 66 66 68 67 66 65 64 64 64 63 63 62 60 58 60 58 58 58 52
52 54 52 51 51 50 51 51 58 54 54 55 57 57 59 59 61 60 60 60 61 61 62 64 64 65 66 69 70 67 66 68 69 69 66 66 65 64 64 63 62 61 61 59 59 57 56 56 55
52 52 50 49 50 42 50 50 55 55 56 54 56 57 58 59 59 60 59 61 61 61 61 63 62 62 65 66 67 67 67 67 66 67 66 66 66 65 64 62 62 62 61 59 59 58 56 55 55
52 54 41 40 39 40 41 42 57 54 56 59 57 57 58 59 60 59 59 58 58 58 59 59 61 59 61 62 59 60 59 60 60 60 60 59 60 59 60 60 60 60 60 60 59 57 56 55 54
50 54 44 32 33 40 37 39 52 53 56 58 59 58 57 57 57 57 56 57 56 56 58 59 57 58 59 60 60 61 61 62 62 62 61 63 63 63 63 62 61 61 60 60 59 58 56 56 54
48 45 50 36 26 38 45 48 50 50 51 54 55 56 56 56 56 55 56 56 56 55 55 57 57 56 57 58 59 59 59 59 59 59 60 60 60 59 59 60 61 62 61 60 58 56 55 55 54
51 54 44 45 31 32 39 42 52 45 49 53 53 55 54 54 54 55 55 55 55 55 55 55 55 54 55 56 56 56 56 57 57 57 56 56 57 57 57 57 58 58 59 59 60 58 58 56 55
46 46 46 50 44 37 35 45 58 52 54 53 55 56 55 54 54 54 53 54 54 54 54 54 54 53 53 53 53 54 53 53 54 53 53 52 53 53 53 53 53 54 55 56 56 56 56 55 54
47 49 51 45 35 39 39 47 48 57 57 56 54 53 53 53 53 54 53 54 53 53 53 52 52 51 50 51 51 51 51 51 50 50 49 48 48 49 49 49 49 50 50 51 51 51 52 52 51

GFSSGP_sfc_temp_093.txt.gz
Temp
79 94 95 88 73 74 66 67 76 71 72 78 80 77 75 77 71 63 81 84 85 84 80 78 75 76 76 76 76 76 76 76 76 76 76 76 77 77 77 76 76 76 77 76 76 76 75 75 75
92 92 91 86 71 65 67 73 70 74 77 80 78 77 76 71 78 75 77 83 85 84 82 80 73 75 75 75 75 75 76 76 76 76 76 76 76 77 78 77 76 76 76 76 76 75 75 74 74
90 91 82 77 71 67 66 73 76 76 78 77 76 79 78 73 78 80 83 85 85 85 83 78 73 75 75 75 75 75 75 76 76 76 76 76 76 76 77 75 75 76 76 75 75 75 74 74 74
90 89 85 71 67 70 73 77 78 75 76 78 78 74 78 79 81 84 84 86 85 81 82 73 73 75 75 75 75 75 75 76 76 75 75 75 75 75 75 75 75 75 75 75 75 74 74 74 74
90 85 72 67 68 72 75 79 79 75 76 77 78 74 74 78 83 83 84 85 84 80 82 79 72 74 74 74 75 75 75 75 75 75 74 74 74 75 75 75 75 75 74 74 74 74 74 73 73
78 81 66 62 68 72 75 78 78 77 78 77 76 77 75 80 81 83 85 85 86 84 81 79 69 71 72 73 73 74 74 74 74 74 74 74 74 74 74 75 74 74 74 74 73 74 73 72 71
75 73 67 68 68 69 73 79 76 77 76 76 81 74 76 78 82 83 85 86 86 84 79 80 79 73 69 70 71 72 73 73 73 73 72 72 72 72 73 72 73 73 73 72 72 73 73 71 70
78 76 68 69 68 68 75 77 79 78 76 79 81 74 73 79 82 83 84 85 84 82 79 81 80 79 78 76 67 68 70 71 71 70 68 68 68 69 69 69 72 72 72 72 71 70 70 69 68
78 68 64 68 69 71 76 73 76 79 76 78 79 80 82 81 81 81 80 80 81 80 79 79 80 81 81 79 72 67 67 67 66 67 65 66 76 75 73 67 70 71 71 71 70 69 67 66 65
73 67 69 76 78 74 74 76 75 74 74 75 75 76 80 79 79 77 77 77 78 78 76 78 80 81 80 81 76 78 76 76 77 76 74 78 77 76 75 68 66 68 69 69 68 67 64 63 74
73 68 75 74 76 78 75 75 80 76 72 79 76 75 76 77 77 78 79 79 79 80 77 75 76 81 80 79 78 79 78 78 78 77 76 76 76 74 75 73 72 72 67 73 71 68 71 73 74
68 70 74 71 70 73 73 78 73 76 75 80 81 82 78 77 77 78 79 80 80 80 79 76 74 75 79 80 79 79 78 77 77 77 75 74 74 73 74 74 74 73 73 72 72 72 72 72 72
68 70 71 70 69 72 72 72 73 73 78 78 77 79 78 78 79 81 82 82 82 80 80 78 77 73 75 76 77 79 78 77 78 77 75 75 75 73 74 74 74 74 74 73 72 72 71 70 71
72 72 70 71 69 69 69 70 70 75 77 76 74 76 79 79 80 81 81 80 80 80 80 81 78 76 74 73 72 74 77 78 77 77 76 75 76 74 74 73 73 73 73 73 72 72 71 70 70
71 65 68 69 69 68 70 66 67 75 74 74 74 78 78 79 81 80 81 80 81 81 81 80 80 77 72 72 72 72 72 73 75 76 76 75 75 75 74 73 72 73 73 72 72 71 69 69 70
66 69 61 65 67 65 67 64 75 73 73 74 77 78 76 77 79 81 82 81 82 81 80 81 79 78 72 72 71 71 71 70 70 73 76 75 74 75 71 68 69 69 69 69 69 68 66 66 67
62 58 61 59 65 65 66 65 68 70 71 73 76 77 76 77 77 79 81 82 82 82 81 80 80 76 72 72 72 71 71 70 70 71 71 75 74 74 72 70 68 69 67 65 65 63 66 64 65
56 59 59 60 61 61 62 63 69 70 70 72 75 76 76 75 77 80 80 80 81 81 81 81 80 78 75 71 71 70 70 70 72 71 70 72 73 74 73 71 72 70 68 66 65 64 66 64 64
67 61 59 63 60 60 61 63 69 73 70 71 74 76 75 75 77 74 75 75 76 78 79 79 79 79 76 69 67 67 66 67 68 69 70 70 69 73 73 72 73 70 64 64 64 63 63 61 63
63 60 60 57 58 58 60 60 68 70 68 69 69 70 71 72 71 69 70 71 71 74 75 77 78 79 78 70 69 69 68 67 68 69 68 68 67 68 71 71 70 67 62 63 62 59 60 57 58
61 60 59 59 56 58 57 58 64 64 65 64 64 66 66 68 68 67 67 68 69 68 71 73 75 77 78 75 69 67 65 66 66 66 65 66 66 66 66 67 66 65 63 61 62 61 56 54 57
53 61 60 54 56 53 57 53 61 64 62 61 62 66 67 66 66 66 67 66 65 65 66 68 72 74 76 77 74 67 66 65 68 67 67 66 65 66 66 65 64 63 62 60 61 60 59 57 53
56 60 58 57 56 53 54 51 62 60 58 60 61 62 64 65 65 64 64 63 64 65 66 67 68 70 72 73 73 71 64 66 68 66 64 64 64 64 64 64 63 62 62 60 60 59 56 56 55
57 56 55 56 54 44 55 53 58 57 61 60 60 62 61 62 63 63 64 64 63 64 65 66 66 67 68 70 71 71 67 65 64 64 64 65 64 64 62 63 62 62 62 60 59 59 58 56 55
58 54 43 41 40 41 46 46 57 58 62 62 59 60 61 63 64 63 62 61 61 61 62 63 64 63 64 62 63 63 63 63 62 61 62 61 63 63 64 64 62 61 60 59 58 57 57 56 55
52 56 45 33 36 42 39 40 54 59 60 64 62 61 61 61 61 61 61 60 60 60 62 62 61 61 63 63 63 64 65 65 64 63 64 64 63 63 62 63 63 64 63 61 59 58 57 57 56
51 48 56 40 31 40 47 53 54 53 56 59 59 58 59 60 60 59 60 60 59 58 59 60 60 59 61 61 61 61 61 61 61 61 61 60 60 59 59 60 60 61 61 61 61 59 58 56 55
54 59 45 47 32 33 43 47 53 47 51 54 55 57 58 59 58 59 59 58 58 58 59 59 59 57 58 58 58 58 58 58 58 57 55 55 57 56 56 56 56 57 57 58 58 57 57 57 56
48 48 50 53 47 38 38 47 61 54 55 55 57 59 58 57 57 58 58 57 57 58 58 57 57 56 55 56 56 55 54 55 55 54 53 52 53 52 52 52 52 53 53 54 53 53 53 53 53
54 54 52 44 37 44 40 47 54 61 60 60 59 59 59 58 57 57 56 57 57 57 57 56 55 53 54 54 54 53 53 53 52 51 51 50 49 50 50 50 50 50 50 50 49 49 50 50 49

GFSSGP_sfc_temp_099.txt.gz
Temp
71 73 67 69 58 53 47 54 61 60 61 62 68 64 59 59 57 51 72 74 74 72 73 73 74 75 76 75 75 75 76 76 77 77 77 77 77 77 76 76 76 76 77 77 77 76 75 75 75
69 76 70 61 52 45 47 56 57 62 65 67 68 63 61 56 66 67 69 73 73 73 73 72 73 75 75 75 75 75 76 76 77 77 77 77 77 76 76 76 76 76 76 76 76 75 75 74 74
73 76 65 57 50 47 49 55 60 63 66 64 62 65 62 60 65 69 73 73 74 73 72 72 72 74 75 75 75 75 75 75 76 76 77 76 76 76 76 75 75 75 76 76 76 76 75 74 74
71 69 64 54 50 56 57 57 64 62 65 67 62 57 64 70 70 72 75 75 72 72 72 71 73 74 75 74 74 75 75 75 75 76 76 75 75 75 75 75 75 75 75 75 75 75 74 73 73
67 62 54 51 52 58 60 64 64 61 62 62 63 55 59 67 74 74 74 73 69 68 69 71 72 73 74 74 75 75 74 74 74 75 75 75 75 74 74 74 74 74 75 75 74 73 73 72 72
61 60 51 49 52 59 59 64 65 62 62 63 59 58 58 69 72 71 74 71 71 69 69 71 68 70 71 73 73 74 74 74 74 74 74 74 74 73 73 74 74 74 75 75 74 72 72 71 71
57 54 49 48 54 56 60 64 64 62 61 59 65 56 59 65 71 72 72 72 71 70 68 68 68 68 68 69 70 71 72 72 72 72 71 71 71 71 71 72 73 73 74 74 72 71 71 71 70
61 58 49 50 53 53 62 63 63 63 60 65 67 55 54 64 71 72 73 71 70 69 68 67 66 67 66 67 66 68 69 69 69 69 67 67 68 68 68 66 71 73 73 71 70 70 69 69 69
64 53 49 54 55 56 61 60 63 64 64 62 63 63 67 72 71 68 68 67 68 69 68 67 66 66 66 66 65 65 65 66 66 65 64 64 65 65 65 65 68 71 71 70 69 68 68 67 66
58 52 56 60 60 59 62 63 63 61 59 58 61 66 70 71 68 65 65 64 65 66 67 68 67 67 67 71 65 65 65 64 65 64 64 65 64 64 65 62 65 67 67 69 69 68 66 63 61
58 54 59 62 63 66 63 59 63 59 55 60 60 63 65 65 65 64 64 65 65 66 67 67 68 68 67 66 64 64 63 63 64 64 64 64 63 62 61 60 60 60 62 61 62 61 60 61 60
54 61 62 63 61 63 62 64 61 59 60 66 66 67 64 64 64 65 65 66 66 67 67 68 71 72 66 66 65 65 65 63 63 64 65 62 60 60 60 59 59 59 59 59 59 59 60 61 62
56 57 61 61 61 62 64 59 60 58 59 64 64 66 64 63 64 66 67 67 67 66 67 67 67 68 69 66 66 66 65 64 65 64 65 64 61 60 60 60 60 59 59 59 58 58 59 60 60
61 60 58 58 58 61 60 56 59 58 61 63 63 62 63 65 66 65 66 66 67 68 67 67 67 67 67 66 65 65 67 66 65 64 64 65 62 61 61 60 60 60 60 60 59 59 58 58 59
59 54 55 55 58 59 60 54 56 60 62 63 61 61 63 65 66 66 67 67 69 69 68 67 67 67 67 67 66 65 65 67 69 67 65 65 64 62 62 60 60 61 60 60 59 58 57 56 57
55 51 46 54 57 56 57 49 58 60 61 60 60 59 62 64 66 67 68 68 68 68 68 68 70 67 66 69 68 66 66 65 64 69 68 67 65 64 61 60 59 60 60 58 57 56 56 55 54
47 41 44 48 56 55 53 49 56 61 61 59 57 59 61 62 64 65 67 68 67 68 68 68 69 66 65 66 68 67 67 67 68 67 67 69 68 65 61 60 59 59 58 57 57 55 54 53 54
40 40 45 45 53 51 49 48 54 59 59 59 59 57 58 60 63 66 67 67 68 67 68 68 68 67 65 65 67 66 66 65 66 66 66 67 67 67 64 60 60 59 57 59 58 57 58 57 57
51 47 46 47 52 50 49 49 53 56 55 57 55 56 57 59 59 60 63 62 63 64 65 66 66 66 66 63 64 64 64 64 64 65 66 66 67 67 66 64 63 62 60 60 59 58 57 56 56
49 46 42 46 50 49 48 50 52 54 55 57 57 56 58 55 56 57 58 57 59 60 60 63 65 66 66 65 64 65 65 64 65 66 65 65 65 65 65 64 62 62 60 59 59 57 56 56 55
50 46 43 46 47 47 45 44 49 54 54 54 54 56 56 55 55 55 56 53 54 55 55 59 63 64 66 66 67 63 63 63 63 64 64 64 64 64 64 64 63 62 60 59 58 58 56 55 54
46 53 49 46 45 39 45 35 43 48 50 51 53 52 54 55 55 54 54 50 50 53 53 55 58 62 63 65 66 64 62 61 63 64 64 64 64 63 63 63 62 61 60 58 58 57 57 55 54
48 51 49 46 44 39 38 36 41 45 46 50 51 52 52 53 53 52 51 53 50 52 52 52 55 58 60 62 66 65 62 62 62 62 63 63 63 63 62 62 61 60 60 59 58 57 56 55 54
53 49 47 44 41 32 37 37 38 42 48 48 48 50 50 49 50 50 51 52 50 50 51 50 52 54 57 59 63 64 63 61 60 59 59 58 59 58 57 58 58 59 58 57 57 57 56 55 54
49 43 31 30 29 29 31 33 42 47 51 51 50 48 48 48 47 48 48 47 48 49 49 52 52 52 54 56 56 57 57 58 57 56 55 54 53 52 52 51 50 50 51 51 51 51 51 51 53
42 43 30 23 24 29 33 32 42 47 51 51 52 49 48 47 48 47 47 47 47 48 48 49 49 49 51 52 52 54 56 54 52 51 49 47 47 47 47 48 48 48 49 48 48 47 47 47 47
42 39 45 33 18 26 32 37 46 45 46 47 47 48 46 47 46 46 47 46 46 46 47 47 48 48 49 49 50 50 49 48 46 46 46 45 45 48 45 45 45 46 46 46 45 44 43 43 43
45 50 38 35 24 21 29 30 37 40 44 45 45 46 45 46 46 46 46 46 46 46 46 47 47 46 46 47 48 47 47 46 45 45 43 43 43 43 43 42 43 43 43 43 42 41 42 41 40
42 41 42 42 34 24 22 32 43 46 48 46 47 48 47 46 47 46 46 46 46 45 44 45 45 45 45 46 45 45 44 44 43 42 41 41 41 41 41 41 41 41 41 41 40 39 39 38 38
43 44 43 35 33 31 30 34 46 47 47 49 47 49 47 48 46 45 45 45 44 44 44 43 44 45 44 44 44 43 43 42 41 40 39 39 39 39 39 39 39 39 39 38 38 37 36 36 36

GFSSGP_sfc_temp_102.txt.gz
Temp
69 69 65 65 57 52 46 50 56 57 57 60 63 61 57 57 56 51 66 70 70 70 71 72 74 75 75 75 75 75 76 77 77 77 77 77 76 76 76 76 76 76 77 76 76 76 75 75 75
67 73 66 58 51 45 47 52 55 59 62 62 63 59 57 54 63 63 64 71 71 71 71 71 72 75 75 75 75 75 76 77 77 77 76 76 76 76 76 76 75 76 76 76 76 75 75 74 74
71 71 61 54 47 45 47 52 56 58 62 61 60 61 59 58 64 65 68 71 71 70 71 71 72 74 75 75 75 75 75 75 76 76 75 76 76 75 75 75 75 76 76 76 76 75 74 74 74
68 65 60 52 47 50 54 57 60 61 60 63 60 56 61 67 68 68 71 72 69 68 69 70 73 74 74 74 74 75 75 75 75 75 75 75 75 75 74 74 75 75 75 75 75 74 73 73 73
64 58 52 48 48 51 54 60 62 61 59 58 59 52 56 66 70 71 70 70 67 66 68 70 72 73 74 74 74 74 74 75 74 75 74 74 74 74 74 74 74 74 74 74 73 73 72 72 72
59 57 48 46 48 54 57 61 62 58 58 58 57 55 55 66 69 69 69 67 67 66 68 69 68 70 72 73 73 73 73 73 74 74 74 73 73 74 74 74 74 74 74 73 73 72 71 71 71
56 52 47 46 50 54 61 63 61 59 59 58 61 53 56 62 68 69 67 67 66 67 66 66 67 68 68 69 70 71 72 72 72 72 71 71 70 71 72 72 73 74 73 72 71 71 71 71 71
58 55 48 47 51 53 62 63 61 62 59 64 63 53 56 64 68 68 67 66 64 65 65 65 65 66 66 68 66 67 69 69 69 68 67 67 67 68 67 66 71 72 72 71 70 70 70 70 70
60 51 47 52 52 55 59 59 59 60 61 58 59 59 64 68 68 66 64 63 63 65 64 64 64 64 65 66 64 64 65 66 66 65 64 63 62 63 64 65 68 70 70 69 69 68 68 66 64
55 49 53 59 57 59 60 61 61 58 55 56 57 61 69 67 66 63 62 61 62 62 62 63 63 64 64 68 64 64 64 63 63 63 63 63 62 62 63 62 64 66 66 68 68 68 65 62 60
55 52 59 61 59 62 62 58 58 58 52 57 57 62 66 65 63 63 63 63 63 64 64 63 64 64 64 64 63 62 61 61 61 62 62 62 61 60 59 58 59 59 60 59 61 60 59 60 59
54 60 61 61 62 61 61 61 56 57 59 63 64 66 65 65 62 62 62 63 63 63 65 64 64 64 63 63 63 62 62 61 61 61 62 60 59 59 58 58 58 58 58 58 57 58 59 59 60
56 57 58 59 60 59 61 57 59 57 56 62 62 64 64 65 62 63 65 66 65 64 66 65 64 64 64 63 62 62 62 62 62 62 63 61 59 58 59 58 58 58 57 58 57 57 58 58 59
60 58 56 58 57 57 58 55 58 58 55 59 61 60 62 64 64 62 64 64 65 66 66 67 65 65 64 63 62 62 63 63 62 62 62 63 61 59 59 58 58 58 58 58 57 57 57 57 57
61 51 53 53 55 55 58 52 54 58 57 57 58 59 61 62 63 65 66 66 67 67 68 66 66 65 65 64 63 63 64 64 63 63 63 63 62 61 60 59 58 58 58 58 57 57 56 55 56
55 50 44 51 55 53 54 48 57 56 57 56 56 55 59 61 64 65 66 67 67 67 66 68 69 65 64 64 64 63 63 63 65 67 67 66 63 62 59 58 58 59 58 57 56 55 55 53 53
44 41 43 46 54 52 51 48 56 57 57 55 55 56 58 60 61 63 65 67 66 67 67 66 66 65 64 64 65 66 67 67 67 67 66 67 66 64 60 58 58 58 57 56 56 55 53 55 53
41 42 42 42 50 49 48 50 52 55 56 56 55 55 56 58 61 63 63 64 66 67 68 66 66 65 64 63 64 66 66 66 66 66 66 67 67 66 64 60 59 60 59 59 58 57 57 57 57
49 47 46 44 50 48 48 48 52 54 52 53 54 55 55 56 58 59 60 62 62 61 64 65 65 64 64 62 62 64 64 64 64 65 66 66 66 66 65 63 61 61 60 60 59 58 57 56 57
49 45 42 44 47 47 45 49 50 51 52 53 55 54 57 56 56 57 58 57 60 60 60 61 65 64 65 65 63 62 64 64 65 65 65 65 65 65 64 64 62 61 59 58 57 56 56 55 55
44 44 41 44 45 44 43 43 46 53 51 52 54 53 54 55 55 54 54 55 54 56 57 59 62 64 66 65 65 63 64 64 63 63 63 64 64 64 64 64 63 62 60 57 57 57 56 54 55
43 50 48 44 42 37 43 34 41 48 50 50 53 52 54 53 53 53 53 51 51 52 53 55 59 62 64 64 65 65 63 61 63 64 64 64 64 64 63 63 62 61 60 59 58 57 57 55 53
48 51 48 44 40 39 35 35 41 41 45 48 51 50 51 52 52 52 50 51 49 52 52 52 55 58 62 64 66 65 63 62 62 63 62 61 58 59 59 60 60 59 59 58 57 56 55 55 54
51 48 45 41 38 32 36 37 37 39 46 52 48 50 51 50 49 49 49 50 50 49 50 49 52 54 59 62 62 64 62 60 59 59 58 56 54 54 55 55 55 55 55 53 52 52 52 52 53
48 45 32 30 28 29 30 32 42 45 48 49 51 50 48 48 48 47 47 47 48 48 49 50 51 51 54 57 58 61 60 60 57 56 54 52 52 51 49 48 47 47 47 47 48 47 47 46 46
42 45 30 23 23 29 33 31 42 47 47 49 50 49 46 46 47 47 47 46 46 47 47 48 48 48 50 52 52 55 56 53 53 53 51 49 46 44 45 45 45 45 45 45 44 43 43 42 41
44 40 44 32 18 26 32 36 45 44 47 44 45 46 45 44 45 46 46 45 45 45 45 46 45 46 47 48 49 49 50 49 48 46 46 44 43 45 43 43 42 43 42 42 42 40 39 39 39
46 49 38 34 22 21 30 30 37 39 45 45 42 44 43 44 43 43 44 44 44 45 44 45 45 44 44 46 47 46 45 46 44 44 42 41 41 41 41 40 40 40 40 40 40 38 38 37 37
42 40 40 40 33 27 22 32 41 47 49 46 44 44 45 43 43 43 43 44 43 43 43 43 43 44 44 45 45 44 43 42 42 41 40 40 39 39 39 39 38 38 38 38 37 37 36 35 35
42 44 43 39 32 31 30 35 45 46 48 48 45 46 44 44 44 43 43 42 42 42 42 42 42 42 43 43 43 42 42 41 40 38 38 38 37 37 37 37 37 37 36 36 35 34 34 33 33

GFSSGP_sfc_temp_105.txt.gz
Temp
68 69 65 66 57 51 45 49 53 54 54 57 59 59 57 56 55 50 64 68 69 69 71 71 74 75 75 75 75 76 76 77 77 77 76 76 76 76 76 76 76 76 75 76 76 76 75 75 74
66 72 65 57 50 43 46 50 53 56 59 58 60 56 56 53 60 62 62 68 69 70 70 71 73 75 75 75 75 75 76 77 76 76 76 76 76 76 76 76 76 76 77 76 76 75 74 74 74
71 69 61 53 45 44 46 51 55 56 57 57 56 58 56 56 60 63 66 69 69 68 69 70 72 74 75 74 75 75 75 75 75 76 76 75 75 75 76 76 76 75 76 76 75 74 74 73 74
67 63 59 51 46 50 51 55 56 57 55 60 57 54 59 64 64 66 69 69 67 67 68 70 73 74 74 74 74 75 75 75 75 75 75 75 75 75 75 75 75 75 75 75 74 73 73 73 73
62 56 50 47 47 50 52 56 56 58 57 56 55 51 55 63 67 68 68 68 66 66 68 69 72 73 74 74 74 74 74 75 74 74 75 75 74 74 74 74 74 74 74 73 73 73 72 72 71
58 54 46 45 47 51 53 56 59 55 56 55 55 55 55 63 66 66 67 65 66 66 67 69 68 70 72 73 73 73 73 74 74 74 73 73 74 74 74 74 74 74 73 73 72 72 72 71 71
55 51 46 46 47 51 57 60 57 57 57 55 59 52 53 60 64 66 64 64 65 66 66 66 67 68 68 69 70 71 72 72 72 72 71 70 71 72 72 72 73 73 72 71 71 71 71 71 70
56 52 47 45 49 52 57 59 60 59 57 59 61 52 56 61 64 65 64 63 63 64 64 64 64 66 66 66 66 67 69 69 69 68 67 66 66 67 67 67 70 72 71 70 70 69 69 69 68
57 48 46 50 50 53 59 57 58 58 60 56 58 58 62 64 64 62 62 62 63 63 63 63 63 64 65 65 63 64 65 66 65 65 63 62 62 63 64 65 68 69 69 69 69 68 67 65 64
53 47 52 57 55 57 59 58 60 59 56 53 55 59 64 64 62 60 60 59 61 61 61 62 62 62 65 67 63 63 63 62 62 62 61 61 61 61 62 61 64 66 66 68 68 68 65 61 58
53 50 54 59 59 60 59 57 57 57 51 56 56 58 60 62 62 61 60 61 61 61 61 61 62 62 62 65 62 61 60 60 60 61 61 61 60 59 58 57 58 58 59 58 59 59 58 59 58
50 58 57 60 58 59 57 59 56 58 60 63 60 64 61 61 61 61 60 61 60 60 61 61 62 62 62 62 61 61 60 60 59 60 61 59 58 57 57 57 57 57 57 57 56 57 57 58 58
52 57 58 59 58 58 60 55 57 57 55 59 61 64 62 61 62 62 63 62 62 61 62 62 61 62 62 61 61 61 60 60 60 60 61 59 58 57 58 57 57 57 57 57 56 56 56 57 57
55 55 57 59 56 55 58 53 55 58 54 57 60 60 62 62 61 61 61 62 62 64 63 63 63 63 62 61 61 61 61 62 61 61 60 60 59 58 58 58 57 57 57 56 56 56 56 55 55
55 49 53 55 54 53 57 50 53 54 55 56 57 59 59 62 61 62 63 63 64 65 65 64 64 64 62 62 62 62 62 62 61 61 62 61 60 59 59 57 57 57 57 57 56 55 55 54 55
48 50 41 53 54 51 53 48 56 53 54 54 54 54 56 58 61 63 64 64 65 66 64 65 67 64 63 62 62 62 62 61 61 62 62 64 62 60 58 57 57 57 57 56 55 55 54 53 53
45 41 40 48 52 50 50 47 54 52 53 53 52 53 55 57 59 60 62 64 64 66 65 64 65 63 63 62 62 62 63 64 66 66 66 66 65 64 59 58 58 57 57 56 56 55 53 53 56
41 41 43 44 49 46 46 49 50 51 52 53 52 52 54 56 61 63 62 63 65 66 66 66 65 65 63 63 62 63 66 65 65 65 65 66 66 65 63 59 59 60 59 59 58 57 57 57 57
49 48 46 48 50 48 47 48 53 50 46 50 51 51 53 56 61 60 61 62 60 61 64 65 64 63 63 61 61 64 64 64 64 64 65 65 66 66 64 62 62 60 57 60 59 58 57 55 56
47 47 44 46 48 46 43 47 46 49 50 52 53 52 52 52 55 57 57 57 57 60 62 64 64 64 64 65 64 61 62 64 65 65 65 65 64 65 64 63 62 61 59 58 57 57 55 55 54
46 46 43 44 46 44 41 43 44 50 48 50 52 52 52 55 55 54 54 54 54 55 58 61 63 64 65 64 62 62 63 63 63 63 63 64 64 64 64 63 63 61 60 58 57 57 56 54 55
43 49 48 44 42 37 43 32 40 46 50 49 51 51 53 52 53 53 54 53 53 54 55 56 59 62 63 63 63 64 64 62 63 64 64 64 63 62 62 62 61 60 60 59 57 57 57 55 53
47 50 48 45 41 37 36 34 39 39 45 48 50 53 53 52 51 52 52 52 50 51 51 53 55 58 62 63 65 65 63 64 64 63 59 57 56 57 58 59 59 58 58 57 56 55 55 55 54
51 47 45 41 40 32 38 37 36 39 45 50 57 52 52 51 50 49 49 50 50 49 50 50 52 54 59 62 64 64 64 60 60 59 56 53 53 53 53 54 53 53 52 51 50 49 48 47 48
49 44 33 31 29 31 30 32 46 43 46 48 50 53 51 48 48 48 47 46 48 49 49 48 50 52 55 61 62 61 61 61 60 57 54 52 51 50 49 48 46 45 45 46 45 44 43 42 42
42 46 31 22 22 28 32 30 39 47 45 49 49 48 46 48 47 47 47 47 46 47 47 48 49 50 54 60 58 57 58 58 56 54 53 50 49 47 45 44 43 43 43 42 42 40 40 39 38
41 39 46 32 18 25 31 35 44 44 46 46 46 43 45 45 47 47 46 45 44 45 46 47 47 46 50 52 53 52 53 52 51 49 49 47 46 44 42 41 41 41 41 40 39 37 37 37 37
47 50 39 34 21 20 29 30 36 40 49 49 44 44 44 43 43 44 44 43 43 44 44 44 45 44 45 48 50 47 48 47 47 47 45 42 41 41 40 39 39 39 38 38 37 36 36 35 35
41 40 40 42 33 26 22 32 41 49 51 52 49 43 43 43 42 42 43 43 43 42 42 42 42 42 42 43 44 44 44 46 44 42 41 40 39 39 38 38 37 37 36 36 35 35 34 34 33
41 44 47 39 32 29 30 32 45 45 47 48 46 45 43 43 42 41 41 40 40 40 40 41 41 41 41 42 42 42 42 42 41 40 38 37 37 36 36 36 35 35 35 34 34 33 33 32 31

GFSSGP_sfc_temp_108.txt.gz
Temp
69 68 64 64 56 50 44 49 52 53 52 53 58 56 56 55 54 49 62 66 68 68 71 72 74 75 75 75 75 75 76 76 77 77 76 76 76 76 76 76 76 76 76 76 77 76 75 75 74
67 72 65 56 49 43 45 49 53 55 56 56 57 55 54 51 59 62 62 67 68 69 70 70 72 75 75 75 75 76 76 76 76 76 76 76 76 76 76 76 76 75 76 75 76 75 75 74 74
68 68 62 52 45 44 47 51 54 54 56 54 54 56 55 54 62 62 65 67 68 68 69 70 72 74 75 75 75 75 75 75 76 76 76 76 76 76 76 76 76 76 76 75 75 74 74 74 73
68 64 58 51 45 49 51 53 54 55 55 57 55 53 57 63 62 65 67 67 67 67 68 70 73 74 74 74 75 75 75 75 76 75 75 75 75 74 74 75 75 74 74 74 74 73 73 73 72
62 57 49 45 46 48 51 56 57 55 53 52 53 51 53 61 65 66 66 67 66 67 67 69 72 73 74 74 74 74 74 74 74 75 74 74 74 75 74 74 73 73 73 73 73 73 72 71 71
60 54 45 43 44 50 51 56 58 55 53 53 54 54 53 63 64 64 66 64 67 68 67 69 68 70 72 73 73 73 73 73 74 73 74 74 74 74 74 74 73 73 73 72 72 72 71 71 71
56 50 45 43 45 48 55 59 56 55 54 54 58 52 55 62 62 64 64 64 66 66 65 66 67 68 68 69 70 71 72 72 72 72 71 72 71 72 72 72 72 72 72 71 71 71 71 70 70
59 54 44 41 47 49 56 58 58 56 53 57 58 51 56 62 63 63 63 64 66 64 64 66 66 66 66 66 66 67 69 69 69 68 66 65 66 67 67 67 70 71 71 70 70 69 69 68 68
61 53 45 48 48 50 55 55 54 55 56 55 58 56 60 62 62 62 62 63 64 64 64 64 66 65 64 64 63 64 65 66 65 64 62 61 61 62 63 64 68 69 69 69 69 68 67 64 63
57 49 50 54 52 53 55 57 57 55 54 52 54 57 61 61 62 61 59 60 62 62 63 63 65 66 64 65 62 62 62 62 61 61 60 60 60 60 61 60 63 65 65 67 68 67 64 60 57
54 53 54 56 55 56 56 53 55 55 50 56 56 56 60 61 60 60 58 59 60 61 62 62 61 66 66 63 60 60 59 59 59 60 60 60 59 58 57 57 57 57 58 57 58 58 57 57 57
54 57 55 57 57 54 55 56 53 56 58 62 62 60 60 61 60 59 58 58 58 59 60 60 61 63 65 65 60 59 59 58 58 59 60 58 57 57 56 56 56 56 56 56 56 56 57 57 57
52 52 53 55 56 55 56 52 53 54 54 57 59 60 60 60 60 61 62 60 59 59 59 60 60 61 61 63 60 60 59 59 59 59 60 59 57 57 57 56 56 56 56 56 55 55 56 56 56
53 53 54 55 56 53 53 50 52 53 52 56 59 58 59 60 61 60 60 60 60 60 61 60 60 61 61 61 61 60 60 60 60 59 59 59 58 57 57 57 57 56 56 56 56 55 55 54 54
54 51 56 55 56 54 53 48 53 51 53 54 56 57 57 59 59 60 62 62 62 62 62 62 62 61 61 60 60 60 60 61 60 60 60 60 59 58 57 57 56 56 56 56 55 55 54 54 54
50 49 44 55 53 54 52 46 54 51 53 53 54 53 55 57 59 60 62 62 63 63 62 62 65 62 61 60 61 60 60 60 60 61 61 61 61 59 57 57 56 57 56 56 55 54 53 53 53
44 40 43 48 52 50 51 48 52 50 51 51 52 52 54 55 56 58 60 62 62 63 63 62 63 62 62 61 61 61 61 61 61 63 64 64 64 63 59 57 57 57 56 58 58 57 54 52 56
38 40 43 45 49 47 46 49 50 48 49 51 51 51 52 53 58 59 59 62 63 64 64 64 64 63 62 61 61 60 61 61 63 63 64 65 65 65 63 59 60 60 59 59 58 57 55 56 54
47 44 44 47 52 45 46 48 53 49 44 47 48 49 50 53 57 58 59 60 59 61 63 63 63 63 62 60 60 60 62 63 63 64 65 65 65 65 63 62 61 60 59 59 59 57 56 55 54
45 43 44 48 49 44 42 46 48 47 48 49 51 48 50 50 52 55 55 56 57 61 61 62 63 63 63 63 63 61 62 63 65 65 64 64 64 65 64 63 61 61 59 58 58 57 56 55 55
45 41 43 44 46 45 42 43 44 48 47 49 50 50 50 52 52 53 55 55 54 57 59 62 63 63 64 64 62 60 62 63 63 63 63 63 64 64 63 63 62 61 60 59 58 57 55 55 54
40 48 47 44 44 36 44 33 41 45 49 47 51 49 52 51 51 53 54 53 53 55 56 60 62 63 63 63 63 63 62 62 63 63 64 62 63 62 61 62 61 61 60 59 57 57 57 56 53
44 49 47 45 41 38 39 32 40 39 43 46 49 50 54 55 52 52 53 54 51 52 52 53 56 59 61 62 63 62 62 65 63 61 58 56 56 58 58 59 59 58 57 56 56 54 54 54 54
49 44 45 40 39 30 40 37 36 40 45 48 55 52 55 53 49 50 50 50 50 49 49 50 51 54 59 61 62 63 63 62 60 58 55 54 54 53 54 54 53 53 53 52 50 47 46 46 45
43 38 30 30 27 29 31 32 44 45 46 50 54 56 55 50 48 48 48 48 47 48 49 49 51 52 54 61 62 62 62 62 61 58 55 52 51 50 50 50 48 47 46 45 44 42 41 41 39
40 40 32 23 24 30 32 32 39 48 49 49 49 49 48 48 51 50 51 49 47 48 48 48 48 49 51 59 61 62 58 61 60 57 55 53 50 48 47 46 44 43 43 41 40 39 38 37 36
37 36 44 33 20 25 32 37 44 45 50 48 47 46 48 48 47 49 44 46 45 45 46 47 47 48 49 53 60 58 59 56 54 52 51 49 47 46 45 42 41 40 40 39 38 36 35 35 35
44 48 36 35 25 21 30 31 37 42 49 54 51 49 53 45 44 44 44 43 43 45 45 45 46 46 48 50 52 53 54 53 51 50 47 47 45 44 41 39 38 37 37 37 36 35 35 34 34
37 39 39 42 34 26 21 34 42 49 52 53 54 47 45 44 42 42 42 42 42 42 42 42 43 43 46 48 46 48 48 48 48 47 46 44 43 39 38 38 37 37 36 36 34 34 33 33 32
40 41 44 37 31 28 30 39 45 46 47 47 48 48 45 44 43 42 41 41 41 41 40 40 40 40 43 45 45 44 45 45 44 43 40 42 38 37 37 36 36 35 34 34 34 32 32 31 31

GFSSGP_sfc_temp_111.txt.gz
Temp
70 70 68 68 60 55 51 54 60 58 60 61 62 62 62 60 60 55 67 69 72 73 75 76 74 75 75 75 76 76 76 77 77 77 76 76 76 76 77 77 77 77 77 76 76 76 75 74 74
70 73 68 61 53 49 52 57 57 59 60 60 62 62 61 57 63 62 65 69 73 73 74 75 73 75 75 75 75 75 76 76 77 77 76 76 77 76 77 76 75 75 76 75 76 76 75 74 74
71 70 64 55 49 50 51 57 59 59 59 62 59 62 60 58 64 66 69 70 72 72 74 74 73 74 75 75 75 75 75 76 76 76 77 76 76 76 76 75 74 75 75 76 76 75 74 73 73
70 68 61 55 51 55 57 59 59 57 60 62 60 57 62 66 66 68 70 71 71 71 73 72 73 74 75 75 75 74 75 75 75 75 75 75 75 75 75 75 75 74 74 75 74 74 73 73 72
66 61 53 51 52 55 57 60 59 58 59 59 60 56 58 65 67 68 68 70 69 70 72 74 72 73 74 74 74 74 74 75 75 75 75 75 75 75 74 74 74 73 74 73 73 73 72 72 72
62 58 50 48 51 56 58 59 61 60 59 58 58 57 59 65 66 67 69 68 70 69 71 73 69 70 72 73 73 73 73 74 74 74 74 74 74 74 74 74 73 73 73 73 72 72 71 71 71
61 54 50 49 50 53 58 59 60 59 58 59 62 55 59 62 66 67 67 69 70 70 69 71 72 70 68 69 70 71 72 72 72 72 73 71 71 72 72 72 72 72 72 71 71 71 70 70 70
60 56 49 49 50 53 58 60 61 62 59 61 63 55 57 64 65 65 66 67 68 68 68 69 70 71 70 70 66 67 68 69 69 68 67 66 67 67 67 67 70 71 71 70 70 69 69 69 68
62 51 48 52 51 55 57 59 59 61 59 60 61 61 64 65 64 64 63 64 65 66 67 69 69 69 69 69 65 65 65 66 65 65 63 64 69 69 69 65 68 69 69 69 69 68 66 64 64
57 51 53 58 56 56 57 59 59 59 58 58 59 59 62 63 63 61 61 61 63 64 64 67 68 68 68 68 67 68 66 68 67 66 66 67 67 67 66 63 63 64 64 67 67 66 63 64 67
55 53 56 56 57 58 58 57 58 57 54 58 58 57 60 62 62 62 61 63 64 66 65 65 66 68 68 66 66 66 66 66 66 66 66 65 65 65 66 66 66 66 61 66 66 66 66 65 67
54 56 55 56 56 56 56 57 57 58 61 61 63 61 61 60 61 62 60 60 61 63 64 64 66 67 68 67 65 65 65 64 65 65 65 65 64 64 64 65 64 64 65 64 64 65 64 65 65
54 56 55 56 57 57 56 55 57 57 59 59 60 60 61 62 62 62 63 62 61 61 62 63 64 67 67 66 65 64 65 65 65 65 65 65 65 64 64 64 64 64 65 65 65 65 65 64 64
55 54 55 57 57 57 55 53 55 58 57 56 58 58 61 63 63 61 61 62 61 62 62 64 63 64 66 65 65 64 65 65 65 65 66 65 65 64 64 64 64 65 65 65 65 65 64 64 63
55 53 55 56 57 56 56 51 55 55 55 55 55 57 59 62 62 62 63 63 64 64 64 62 64 64 63 63 64 65 65 65 65 65 65 65 65 64 64 64 64 65 64 64 64 64 63 64 63
51 51 45 55 56 54 56 49 57 54 55 54 54 54 56 59 60 62 63 64 64 64 64 64 65 64 64 64 64 64 64 65 66 66 66 65 65 65 64 63 64 64 64 64 64 63 63 63 63
45 41 42 49 53 52 51 50 55 52 53 53 53 53 55 57 58 61 62 64 64 65 65 63 64 64 63 64 64 64 65 64 66 66 66 66 65 64 63 64 64 64 63 60 61 60 60 62 63
38 41 44 45 49 48 47 51 55 53 51 53 52 53 54 56 59 61 62 63 64 65 65 66 65 65 64 64 64 64 64 64 65 66 65 66 66 65 64 64 64 62 61 61 60 62 59 61 63
47 45 45 47 52 48 46 48 55 55 50 50 51 52 53 55 60 59 61 62 62 64 64 65 64 64 64 62 62 62 63 64 64 65 65 65 66 65 64 64 65 63 61 61 60 60 59 58 61
46 43 43 48 49 47 45 47 52 50 52 52 53 51 53 53 55 57 59 59 61 63 64 64 65 65 64 66 65 65 65 66 67 66 66 65 65 65 64 64 63 62 60 60 59 59 58 60 59
44 42 43 44 47 47 44 44 48 49 49 50 50 52 52 54 56 55 55 57 60 60 62 64 65 65 65 65 64 63 64 64 63 64 64 64 65 65 64 64 65 63 61 60 59 59 58 57 56
40 47 45 44 42 38 46 33 43 48 49 48 52 49 54 53 53 56 56 55 57 60 62 63 64 65 65 65 64 64 64 63 66 66 65 64 64 64 63 63 64 63 61 60 59 58 59 58 54
43 47 44 44 41 37 38 35 39 44 44 47 51 50 54 56 56 57 56 58 58 57 58 61 63 64 65 65 65 64 64 65 66 65 61 59 59 61 61 62 61 59 58 58 57 56 56 57 58
45 42 41 38 39 30 38 37 35 44 45 51 53 54 56 57 54 55 53 53 55 52 53 55 59 61 63 64 64 64 64 63 63 60 57 57 56 55 56 56 56 56 55 54 52 52 52 52 51
41 37 29 27 28 27 33 35 44 47 47 51 55 56 58 57 55 54 52 52 52 51 51 51 53 56 61 62 63 64 64 64 63 61 58 54 53 54 52 52 51 50 50 49 49 48 48 48 47
41 40 28 21 22 28 32 33 41 49 55 52 51 53 51 52 52 52 54 54 52 51 51 51 51 53 54 61 62 63 64 64 64 62 58 56 54 52 50 49 48 47 47 47 46 45 43 43 43
39 36 41 32 17 25 32 38 45 45 49 50 49 51 52 53 52 51 50 50 48 48 49 50 50 50 52 54 60 61 62 61 60 57 56 53 50 49 47 47 46 45 45 44 44 42 41 41 40
42 46 35 33 20 19 30 32 39 42 48 51 53 52 52 50 49 49 47 47 47 48 49 49 49 49 49 51 53 57 59 58 56 54 51 50 47 46 45 44 44 43 42 42 42 40 39 39 38
37 37 38 39 31 23 21 32 43 49 51 52 50 51 52 50 49 47 46 45 45 45 46 46 46 46 47 49 50 51 53 53 52 51 49 48 46 45 44 43 42 41 40 40 40 39 38 37 37
41 39 41 33 28 28 28 32 45 47 50 49 51 50 49 48 47 45 44 44 43 44 44 44 44 44 45 47 47 47 47 48 48 48 47 45 43 44 42 41 40 39 39 39 38 38 37 37 36

GFSSGP_sfc_temp_114.txt.gz
Temp
81 84 85 84 72 72 63 63 71 68 69 71 74 72 72 70 69 64 76 78 81 81 82 80 75 76 76 76 75 76 76 77 77 76 76 76 77 77 77 76 76 76 77 77 77 75 75 74 74
86 83 84 79 68 62 64 68 66 70 70 73 72 72 71 67 67 67 73 78 82 82 82 81 73 75 75 75 75 76 76 77 76 77 76 76 77 77 76 76 76 76 76 77 76 75 74 74 73
83 81 79 74 70 64 66 69 72 69 71 72 70 73 71 66 68 72 77 79 81 81 82 78 73 75 75 75 75 75 75 76 76 76 77 77 77 76 75 75 75 76 75 76 76 75 74 73 73
84 83 79 69 63 67 69 71 72 69 69 71 73 68 70 73 70 76 78 81 81 81 81 74 73 74 75 75 75 75 75 75 76 76 76 76 75 76 75 75 74 74 74 75 75 74 73 72 72
85 78 69 65 64 68 70 71 73 70 70 70 71 66 65 70 75 76 78 80 78 80 81 79 72 73 74 74 75 75 75 75 75 75 75 75 75 75 74 74 74 74 74 73 73 72 72 72 71
76 76 64 61 65 68 70 72 73 72 71 68 69 69 67 71 70 72 77 78 80 80 79 78 69 70 72 73 73 74 74 74 74 75 74 74 74 74 73 73 73 73 73 73 72 72 71 71 70
71 69 64 64 64 65 69 72 71 72 70 69 73 67 65 64 71 72 76 77 77 79 79 78 78 73 68 69 70 71 72 73 73 73 72 71 71 72 72 72 72 73 72 71 71 70 70 70 69
74 71 61 64 64 65 69 71 72 73 69 71 74 67 63 66 70 72 71 75 73 75 77 78 78 79 78 76 66 67 68 69 68 69 67 67 67 68 68 68 70 71 71 70 70 69 69 68 67
70 65 60 63 62 67 70 70 70 71 70 69 70 71 72 68 68 68 67 69 69 70 72 77 77 78 77 77 71 66 65 65 65 66 64 68 76 76 74 66 68 69 69 69 68 68 66 65 64
68 60 63 67 68 68 69 72 70 70 68 68 68 67 69 66 68 66 65 67 66 67 72 75 76 77 76 76 76 76 74 76 75 75 75 75 75 74 73 65 63 64 65 67 67 66 65 69 76
56 63 66 64 67 68 68 68 73 72 67 74 71 66 63 64 65 65 67 70 70 71 72 70 74 76 76 75 76 76 76 75 74 74 74 73 74 74 75 74 74 74 65 75 73 74 75 73 75
52 57 60 63 64 65 66 70 68 72 75 75 77 71 64 63 63 67 67 70 72 72 70 70 71 73 76 76 76 76 75 74 75 74 73 73 73 72 73 74 73 73 75 73 74 74 73 73 72
61 61 60 60 63 66 65 66 70 69 72 72 75 69 64 65 66 71 71 71 73 71 69 70 70 71 74 74 76 76 75 75 75 74 73 75 74 72 73 73 74 74 75 75 74 74 74 73 72
63 61 59 58 62 64 64 65 66 74 74 70 69 69 67 66 67 68 69 71 71 70 67 67 70 71 70 69 73 75 75 75 75 75 74 73 75 73 73 73 73 74 75 75 75 75 74 74 72
61 56 57 57 58 61 65 61 62 71 70 69 69 70 69 70 68 66 71 72 73 72 73 70 70 69 69 69 69 74 74 74 74 74 73 73 73 73 73 73 73 73 73 73 74 74 73 74 73
58 58 52 56 58 57 63 60 66 69 69 70 70 70 67 68 69 69 73 73 74 75 74 72 72 71 70 71 71 74 74 74 74 75 74 72 72 73 73 73 73 73 72 73 74 74 73 73 73
51 46 52 57 58 56 59 58 63 65 67 71 71 70 68 68 67 70 71 73 74 75 73 72 72 72 71 73 73 74 74 74 75 75 75 73 71 69 72 72 73 72 71 66 67 70 67 68 71
41 48 50 53 57 57 56 59 66 66 64 68 71 69 69 69 69 71 72 74 75 75 74 74 73 73 72 72 73 73 73 73 75 75 75 74 70 67 68 73 73 70 67 65 66 64 69 66 68
51 52 52 54 59 53 55 58 63 69 63 65 67 68 68 70 73 73 72 73 73 74 74 74 73 74 73 71 68 69 68 70 72 73 70 68 67 68 67 67 69 70 69 68 68 65 63 63 68
51 49 51 55 56 56 56 55 61 65 65 67 69 70 70 70 70 70 71 72 71 73 73 74 74 74 73 72 72 72 71 72 73 72 67 67 67 67 66 66 66 69 66 65 64 62 61 62 65
49 50 50 50 53 54 53 52 57 62 64 66 66 70 71 70 70 70 70 71 72 72 72 73 74 75 74 73 73 72 72 71 68 66 67 66 67 66 67 67 67 66 66 65 62 62 61 60 60
42 51 51 49 49 46 55 46 58 61 62 60 65 67 68 68 69 72 70 70 71 72 73 74 74 75 74 74 71 69 68 67 70 69 67 68 70 67 69 66 66 67 69 64 62 61 62 61 58
45 51 48 48 47 46 48 45 55 57 57 61 62 65 67 69 70 70 70 70 71 71 71 72 73 73 74 73 72 70 69 72 75 73 69 68 65 66 67 67 66 65 64 62 60 59 60 61 61
50 46 45 46 45 38 47 45 50 55 56 61 67 67 66 68 68 70 71 70 71 71 69 70 71 72 73 73 71 71 70 70 69 69 67 63 62 63 66 65 64 61 59 58 58 58 58 59 61
47 43 31 30 32 36 43 43 51 58 61 64 67 70 69 69 68 67 67 63 66 67 65 67 68 69 71 71 71 71 71 71 70 70 68 64 58 57 57 58 58 56 55 54 53 54 57 58 56
44 46 35 28 30 38 38 38 51 59 65 65 65 68 68 66 64 63 66 66 67 64 64 65 64 66 69 70 70 70 70 70 71 72 71 68 65 63 57 57 57 53 52 51 52 53 53 54 52
43 39 47 37 28 35 44 49 55 57 57 59 60 59 63 66 64 62 62 64 65 63 62 64 65 63 67 67 69 67 67 66 66 69 70 68 65 58 52 52 51 49 49 51 54 51 49 50 49
48 51 37 40 29 30 41 41 48 54 58 60 59 61 63 62 61 61 61 62 63 63 64 64 64 64 64 64 67 65 64 64 64 64 63 62 58 54 53 49 50 47 48 51 52 49 49 47 46
44 41 45 46 41 35 34 46 57 56 60 61 62 62 63 62 62 61 60 59 60 60 61 61 60 60 59 60 62 63 65 63 60 58 55 54 52 51 52 53 48 47 47 50 50 48 47 46 44
51 46 47 39 34 41 37 43 56 57 58 60 62 61 61 59 59 59 58 54 54 55 57 58 58 58 59 58 59 59 62 60 57 59 56 53 49 52 47 50 47 48 48 48 47 45 46 45 43

GFSSGP_sfc_temp_117.txt.gz
Temp
83 92 91 86 73 72 66 67 76 71 73 77 80 77 76 74 71 62 81 85 85 82 82 80 74 75 76 75 75 76 76 76 76 76 77 77 77 77 77 76 76 77 77 77 76 75 74 74 73
89 90 88 83 69 62 66 73 70 74 76 78 77 77 76 69 73 72 77 83 86 83 84 80 73 75 76 75 75 75 76 76 77 77 77 77 77 77 77 76 75 76 77 77 76 75 74 73 73
88 88 80 75 70 64 66 72 76 75 77 77 75 78 76 70 72 77 82 84 85 83 79 78 73 75 75 75 75 75 75 76 76 76 77 77 76 76 76 75 75 75 76 76 75 74 73 73 72
86 86 82 69 66 71 72 75 78 73 74 77 78 72 75 78 75 80 83 85 81 84 79 73 73 75 75 75 75 75 75 75 76 76 76 76 76 75 75 74 74 74 75 75 74 73 73 72 72
87 82 69 66 68 72 75 77 78 74 75 76 77 72 68 73 77 80 83 84 83 78 78 78 72 73 74 75 75 75 75 75 75 76 75 75 75 75 74 74 74 73 74 73 73 72 72 71 71
77 79 65 62 69 73 76 78 78 77 77 75 74 74 69 73 75 79 82 81 82 77 78 78 69 70 72 73 74 74 74 74 75 75 74 74 74 74 74 73 74 73 73 72 72 72 71 70 70
73 71 65 67 69 70 74 79 76 76 75 74 79 71 68 68 73 78 79 81 81 77 75 77 79 73 68 69 70 72 72 73 73 72 72 71 72 72 72 71 73 73 72 71 71 70 70 70 69
77 73 67 69 67 67 75 76 80 78 74 79 80 71 65 69 71 76 78 79 82 78 76 78 79 79 78 76 66 67 68 69 69 68 67 67 68 68 68 68 70 71 71 70 69 69 69 68 68
76 66 63 66 68 71 76 73 78 79 74 76 75 76 77 72 72 71 73 75 72 75 77 77 79 80 80 77 70 66 65 66 65 66 65 66 76 76 72 65 68 69 69 69 68 68 67 67 66
70 64 66 73 75 73 75 76 74 73 73 72 71 73 73 69 68 67 70 71 69 70 75 77 79 79 79 79 75 76 74 76 76 75 76 77 77 74 73 65 63 65 66 68 68 67 67 67 77
63 64 71 69 72 73 73 74 77 73 71 77 72 71 65 65 70 71 72 74 72 72 76 76 78 79 78 77 78 77 77 76 76 76 76 75 74 74 75 72 72 72 64 75 72 73 75 74 75
54 63 68 67 67 69 70 76 72 74 76 79 83 75 65 65 72 72 72 75 74 73 77 77 77 78 78 78 78 78 76 76 75 75 75 74 74 73 74 75 74 74 75 74 74 74 73 74 74
56 58 61 64 67 69 69 70 72 74 80 77 82 72 67 67 73 75 75 77 76 73 75 75 75 75 78 77 78 78 77 76 77 75 75 76 75 73 74 74 75 75 75 75 74 74 74 74 73
61 60 61 61 62 65 66 70 69 76 81 76 76 72 71 69 71 74 75 74 75 76 73 72 71 73 75 76 77 77 78 77 77 76 75 76 76 74 74 74 74 74 75 74 74 74 74 73 73
65 58 62 61 59 62 66 64 64 77 79 74 74 76 74 72 73 75 76 74 75 76 76 71 71 71 70 72 74 76 76 77 76 76 76 75 75 75 74 74 73 74 73 73 74 74 74 74 74
59 59 52 63 63 63 61 56 72 78 73 74 75 77 74 74 74 77 77 76 76 77 75 73 73 71 69 69 70 76 76 75 76 76 76 74 74 75 74 73 73 73 72 73 73 74 73 72 73
54 47 51 57 63 60 61 57 70 71 72 74 76 77 75 75 76 76 76 77 76 77 77 75 73 72 71 72 74 76 76 75 76 76 75 75 74 74 74 73 73 73 73 72 70 70 70 69 71
44 51 57 57 60 61 59 60 69 72 69 71 76 77 76 74 75 77 76 77 77 77 76 75 74 74 75 75 75 76 75 75 76 75 76 75 74 72 72 73 73 73 71 68 68 68 67 67 66
59 57 56 60 61 59 60 60 65 71 70 70 72 75 76 76 79 77 76 77 76 76 76 76 75 74 74 73 71 72 71 72 73 75 75 75 75 71 67 68 73 72 69 69 70 68 65 64 66
59 55 55 60 59 57 60 59 64 68 70 72 72 73 75 76 77 77 76 75 75 76 76 76 75 75 75 75 74 74 74 73 74 74 74 73 70 68 66 67 67 70 71 70 68 64 62 62 65
56 53 54 51 56 57 55 54 58 66 68 71 73 74 75 76 75 76 74 74 75 75 75 75 76 76 77 76 76 75 75 73 71 70 70 69 69 68 67 67 67 66 66 65 65 63 61 60 61
46 54 54 51 50 47 57 47 62 67 66 68 69 71 73 75 76 78 75 73 74 74 77 77 77 77 77 77 74 72 70 67 70 72 70 68 70 70 69 68 67 66 66 67 66 64 61 61 59
50 55 51 50 47 45 51 46 57 66 62 66 70 69 73 73 75 76 76 74 75 75 75 76 77 77 77 76 75 73 71 72 74 74 71 69 70 70 69 68 68 67 69 68 65 62 59 60 60
54 51 48 46 45 34 47 48 52 59 61 65 71 72 72 74 75 76 77 76 75 74 74 74 74 75 76 76 74 73 72 71 72 73 70 69 70 69 68 67 66 68 66 63 60 59 59 58 59
48 46 34 32 32 36 48 48 52 63 67 68 69 72 74 75 74 74 73 73 72 71 71 72 72 73 75 75 74 73 72 73 72 72 70 69 68 66 67 66 63 61 61 57 56 55 56 56 57
44 48 42 32 35 42 42 40 52 63 64 67 70 71 73 74 75 73 73 71 70 69 71 70 69 70 73 74 74 74 73 73 73 73 72 70 68 67 67 64 62 58 57 56 53 53 53 56 55
42 39 52 41 33 37 46 51 59 60 63 63 65 66 67 70 72 71 70 72 70 68 67 67 69 67 71 72 72 73 73 72 71 72 73 71 70 68 64 61 57 55 53 53 53 50 49 51 51
52 53 39 43 31 32 44 45 49 57 61 65 64 65 68 70 71 69 69 69 69 70 69 67 68 68 67 71 71 71 71 70 70 70 69 67 68 62 60 55 54 52 52 52 52 50 50 48 47
43 44 47 50 45 37 37 48 61 59 60 63 66 66 68 68 68 68 68 68 66 66 66 66 65 65 66 67 68 68 68 68 67 65 65 61 59 58 56 54 52 52 50 52 50 49 48 46 45
51 46 48 41 37 45 41 44 61 62 62 64 64 65 67 64 64 65 65 63 62 61 62 62 63 63 63 63 62 63 66 64 61 61 59 56 54 53 53 51 50 50 49 50 49 47 47 45 42

GFSSGP_sfc_temp_120.txt.gz
Temp
78 87 82 75 61 61 58 60 70 67 67 69 75 71 66 66 62 55 74 79 79 77 76 75 74 75 75 75 75 75 75 76 77 77 77 77 77 77 77 77 76 77 77 76 75 75 74 73 73
77 83 77 70 58 54 57 66 66 68 71 72 71 70 68 61 69 70 71 79 80 78 77 75 73 75 75 75 75 75 76 76 77 77 77 77 77 77 76 76 76 77 76 76 75 74 74 73 73
80 85 68 63 60 57 56 64 67 69 72 70 68 72 69 64 69 72 76 81 80 76 76 73 73 75 75 75 75 75 76 77 76 77 77 76 76 76 75 75 75 76 76 75 74 74 73 72 72
79 76 72 60 59 63 65 68 71 68 67 71 70 62 68 74 72 76 79 80 77 76 74 72 73 74 75 74 75 75 75 76 76 77 76 76 76 76 74 74 75 75 75 74 74 73 72 72 72
78 72 59 57 61 66 69 72 73 68 68 69 68 62 61 71 74 79 78 78 73 74 73 73 72 73 74 74 74 74 75 75 75 75 75 76 75 75 74 74 74 74 74 73 73 72 71 71 71
66 70 56 54 61 67 69 69 72 71 70 69 64 65 61 72 72 76 79 78 75 74 73 73 68 70 72 73 73 73 74 75 75 75 74 74 75 74 74 73 73 73 72 72 72 71 71 70 70
63 62 58 60 63 65 68 72 68 69 69 67 69 62 61 64 74 75 76 77 75 75 73 71 70 68 68 69 70 71 73 73 73 73 72 72 72 73 72 72 72 72 72 71 71 70 70 70 69
67 65 59 62 63 61 69 71 72 71 67 73 72 61 56 68 71 74 75 75 73 73 72 73 70 71 69 68 66 67 69 69 69 68 68 67 67 68 68 67 70 71 70 70 69 69 69 69 68
72 58 55 61 63 65 70 67 69 69 67 66 68 66 69 69 70 71 70 72 72 71 72 74 70 71 71 68 64 64 65 66 66 66 65 65 66 67 66 65 67 69 69 69 69 69 68 67 67
60 56 60 69 70 66 70 69 68 64 66 64 64 67 67 68 67 68 67 65 65 67 70 73 70 71 71 73 67 66 67 66 67 67 65 67 65 65 65 61 64 66 66 68 69 68 67 64 64
55 58 66 66 66 68 68 65 71 65 62 67 63 62 66 66 66 66 68 67 65 68 70 72 70 70 70 69 67 66 65 66 68 67 67 67 65 63 62 59 61 60 61 62 64 64 65 66 65
54 60 64 65 65 67 64 69 65 66 61 69 72 66 65 63 65 66 66 68 67 66 70 71 71 69 69 68 67 66 65 66 65 67 67 65 63 63 63 62 63 62 62 63 63 63 65 66 66
54 57 60 62 64 66 67 63 65 65 68 71 71 65 64 64 66 68 70 70 69 66 68 70 71 69 69 68 67 67 66 65 66 66 67 66 64 63 64 64 63 63 64 64 64 64 65 65 66
62 59 58 59 60 62 63 63 62 66 69 70 67 63 62 65 68 69 69 69 69 69 67 68 70 71 69 67 67 67 66 67 66 65 66 68 65 64 63 63 64 64 64 64 64 64 63 64 64
62 55 57 58 59 60 61 59 58 67 68 68 66 64 64 64 68 68 70 69 70 70 69 67 69 69 67 66 66 67 66 68 66 66 67 67 67 66 65 63 63 63 64 64 64 64 64 63 64
56 55 46 54 59 59 58 52 65 70 67 65 66 65 65 66 67 69 72 71 71 69 69 69 71 69 68 67 65 67 67 65 65 66 66 67 68 67 65 64 64 64 63 63 62 62 61 61 62
50 43 48 52 58 56 54 52 63 64 65 64 65 66 66 66 67 69 72 72 71 70 69 68 68 68 67 69 65 65 67 66 66 66 66 67 67 67 65 64 64 64 63 62 62 60 60 59 60
43 46 50 50 55 55 52 54 59 62 63 63 63 66 65 66 68 71 71 71 71 71 70 69 69 68 66 67 66 66 65 65 66 65 66 67 67 67 65 65 65 64 62 61 60 59 60 59 61
54 52 50 55 58 53 53 55 59 64 63 61 61 63 65 66 69 70 71 70 70 68 68 69 68 68 68 66 64 65 66 64 64 65 67 67 67 66 64 63 64 64 61 61 61 60 59 60 61
53 51 53 55 57 53 53 53 60 62 63 63 63 63 64 66 67 69 67 68 69 69 69 68 68 68 69 68 68 66 66 65 65 65 66 66 66 65 63 63 63 64 61 61 61 59 58 59 61
50 52 53 51 51 51 47 47 51 59 63 65 66 66 67 66 67 66 67 67 68 68 68 69 69 69 69 68 68 66 66 64 63 63 64 65 65 64 63 62 62 62 62 62 62 59 59 57 58
45 52 53 50 47 42 49 38 51 57 58 62 64 65 66 65 66 68 68 67 69 70 70 71 71 70 70 69 67 66 65 64 66 66 65 65 65 64 64 63 62 61 61 61 61 60 59 59 56
47 53 48 47 45 42 43 37 46 53 54 58 62 64 66 67 66 66 67 69 70 69 70 70 70 71 71 70 70 67 65 66 67 66 65 64 64 64 64 64 63 62 63 63 60 59 59 59 57
52 48 46 43 43 33 41 40 41 49 54 57 61 65 67 66 64 67 67 69 69 68 68 69 69 70 71 71 70 68 67 66 65 65 64 64 64 64 64 64 63 63 64 62 61 59 59 59 58
45 44 32 31 30 31 41 38 46 54 57 56 59 60 62 66 63 63 63 62 65 65 67 68 68 68 70 70 70 69 68 68 66 66 66 64 63 63 64 63 63 63 63 61 59 58 57 57 57
42 44 33 27 27 31 34 33 43 55 58 57 59 60 58 59 62 62 63 62 62 63 65 66 65 67 68 69 69 70 69 68 68 68 68 66 65 64 64 63 63 60 56 55 56 56 55 54 54
43 40 45 34 25 27 35 42 51 53 54 55 56 54 53 55 60 58 59 60 60 59 60 63 64 63 65 67 69 69 69 68 68 68 68 67 66 65 60 61 59 55 54 53 53 52 51 51 48
47 49 37 37 23 23 33 34 40 47 51 55 54 55 57 58 58 59 59 59 59 59 59 58 59 59 62 62 66 68 68 68 68 68 66 66 66 63 61 58 57 53 53 52 52 49 48 46 45
41 40 43 44 38 28 26 36 49 52 53 52 55 56 56 55 55 56 56 56 56 55 55 55 55 56 56 58 59 61 64 65 65 65 64 62 60 58 58 56 53 52 51 51 50 47 45 44 42
46 44 46 38 32 36 33 34 53 53 54 54 54 56 54 55 54 53 54 53 52 52 52 52 53 54 54 55 56 56 58 59 59 59 59 58 56 54 54 52 51 50 50 49 48 47 45 44 41

GFSSGP_sfc_temp_123.txt.gz
Temp
72 76 70 69 58 54 49 55 62 63 61 63 68 66 59 60 58 54 69 72 73 72 74 74 74 75 75 75 75 75 76 77 77 77 77 77 77 77 77 76 76 76 76 76 75 74 74 74 74
73 77 69 62 53 46 50 57 59 63 66 67 68 64 61 56 65 66 69 74 74 74 73 73 72 74 75 75 75 75 76 76 77 77 77 77 76 77 77 76 76 76 75 75 75 74 74 74 74
77 77 64 58 51 47 50 57 60 63 67 65 64 66 62 59 65 67 75 75 75 72 72 72 72 74 75 75 75 75 76 76 76 77 77 77 76 76 76 76 75 75 75 74 74 74 73 73 73
73 68 64 56 51 57 58 59 63 62 66 67 63 57 63 69 69 74 77 75 72 71 71 71 73 74 74 75 75 76 75 76 76 76 76 76 75 75 75 74 75 75 74 74 73 73 72 72 73
70 62 54 51 55 58 62 65 65 62 63 64 65 55 57 65 71 74 75 74 69 68 69 71 72 73 74 74 75 75 75 75 75 75 75 75 75 74 75 74 74 73 73 73 72 72 72 72 72
62 61 51 49 56 61 60 68 66 64 63 65 61 56 57 68 75 74 73 71 71 69 69 70 68 70 72 73 74 74 74 74 74 74 75 74 74 74 73 73 73 73 72 72 72 71 71 71 71
58 57 52 54 55 59 64 67 63 64 63 62 65 55 59 67 72 74 71 71 70 70 68 67 68 69 68 69 70 72 73 73 73 73 73 72 73 72 72 71 72 72 72 71 71 70 70 70 70
63 58 51 51 55 60 63 66 66 65 61 67 68 54 56 63 71 74 72 71 69 69 68 66 66 68 67 67 66 67 69 70 70 69 68 67 68 68 67 67 70 71 70 70 70 70 70 70 70
65 54 49 55 58 60 64 62 65 65 65 63 63 61 64 67 70 71 69 67 69 69 68 67 66 66 66 65 63 64 65 66 66 66 65 64 64 64 64 64 67 69 69 69 69 69 68 67 67
56 51 56 64 60 59 64 63 64 62 61 59 58 61 67 65 68 68 66 64 67 67 66 68 66 66 66 70 64 63 65 63 64 64 63 64 63 63 63 61 64 66 66 68 69 69 67 64 62
53 53 62 61 62 64 66 62 64 62 55 61 57 59 61 63 64 67 67 63 63 66 69 67 66 67 65 66 63 62 62 62 62 63 63 63 62 60 59 58 59 59 60 61 63 63 63 63 62
50 56 60 63 64 63 61 65 62 62 62 67 63 62 62 66 64 67 67 62 63 65 68 68 66 66 64 65 63 62 62 62 62 63 64 61 59 59 58 58 58 58 59 59 60 61 63 63 64
53 55 59 61 63 63 64 62 61 61 62 65 63 63 61 64 67 69 64 64 64 63 65 69 66 65 66 64 64 64 62 62 63 63 64 63 61 59 60 60 60 60 60 61 60 61 62 62 63
57 58 56 58 59 62 61 62 61 64 62 61 61 59 60 63 67 64 64 64 65 66 64 68 68 66 65 64 63 63 63 63 63 63 64 64 62 61 61 61 61 60 61 61 61 61 61 61 62
59 52 55 56 57 58 61 58 57 68 62 59 58 58 60 62 64 64 66 65 66 67 66 66 70 66 65 65 64 63 64 64 62 62 64 64 63 62 61 61 60 61 61 62 61 62 61 60 61
55 54 46 53 56 59 58 51 62 68 62 58 57 56 58 60 63 64 68 66 68 67 65 66 70 69 65 63 63 64 64 63 63 63 63 64 65 64 62 61 61 61 61 61 60 59 59 59 59
50 42 46 50 55 53 56 50 60 65 63 60 57 57 59 60 61 63 67 67 67 67 67 64 65 67 68 65 63 63 64 64 64 64 65 64 65 64 62 61 61 62 60 59 60 59 59 58 58
41 44 48 48 50 51 51 51 56 60 60 60 59 58 60 60 62 66 67 68 68 66 67 66 65 65 69 68 63 61 61 63 63 64 65 65 65 64 62 61 62 61 60 59 59 58 58 58 59
50 47 48 52 55 49 50 49 55 57 56 56 57 57 58 62 65 67 68 67 67 66 65 65 64 64 66 66 62 62 62 63 61 62 64 65 64 63 62 61 61 61 60 59 59 58 57 57 61
49 49 46 51 54 51 48 49 53 56 56 57 58 58 59 60 60 65 66 65 66 66 66 65 65 65 65 65 65 64 64 62 66 65 65 65 64 64 63 61 61 62 61 59 58 57 56 56 60
48 48 48 48 51 50 46 44 49 54 60 59 61 61 62 61 62 63 64 65 67 64 65 66 66 65 66 65 65 61 61 60 61 62 63 65 65 64 64 62 62 60 60 60 59 59 57 56 58
44 51 50 49 48 39 47 35 45 53 55 59 63 59 64 62 62 66 65 65 66 67 68 67 66 66 67 66 65 64 64 63 65 65 65 63 64 64 64 63 62 62 61 59 59 60 59 58 56
48 50 47 46 43 40 40 36 42 48 49 56 60 61 58 60 62 62 66 66 67 68 66 68 66 66 67 67 67 65 65 66 66 65 62 63 64 64 64 63 62 61 61 61 60 59 59 60 57
49 47 45 43 42 33 39 39 38 46 52 52 56 60 61 59 61 61 62 67 66 67 66 66 66 66 67 67 66 65 65 64 63 63 62 63 64 64 64 63 62 62 61 60 60 60 59 59 60
46 44 32 31 32 32 38 36 44 50 53 55 57 57 57 59 59 62 61 59 62 62 64 65 66 66 67 65 66 66 65 65 63 64 63 62 62 63 64 62 62 62 62 61 61 59 59 58 58
44 45 36 28 27 30 34 32 42 53 57 55 58 56 57 57 57 58 63 59 62 62 64 65 64 65 66 67 66 67 67 66 66 66 66 65 64 65 65 64 63 62 62 61 60 59 59 58 58
41 38 46 33 21 27 33 39 48 51 52 52 53 52 55 55 56 56 57 57 57 56 58 62 63 64 64 66 66 66 67 66 66 66 65 66 65 65 63 63 62 62 61 59 58 58 56 55 54
48 49 39 37 24 22 30 31 39 46 50 53 52 52 53 55 54 55 55 56 55 56 57 57 59 60 61 60 63 66 65 65 67 65 64 64 64 63 61 60 61 57 57 56 56 55 52 53 48
41 42 42 41 35 27 25 32 45 50 51 53 53 54 53 53 52 53 53 54 54 53 53 53 53 55 55 57 58 59 60 61 61 64 63 63 61 61 61 61 60 57 55 54 54 52 50 50 46
46 46 45 40 32 33 32 35 49 51 52 53 52 53 51 51 51 51 52 51 51 51 51 51 51 51 52 53 54 55 56 57 58 61 61 59 60 57 58 57 56 54 53 52 52 50 49 49 46

GFSSGP_sfc_temp_126.txt.gz
Temp
72 73 67 67 58 53 49 52 57 59 59 63 65 63 59 58 57 52 65 69 71 70 72 73 74 75 76 75 75 75 76 76 77 77 77 77 77 76 76 76 75 75 76 75 75 75 75 74 75
72 75 69 59 52 46 49 54 57 59 63 64 63 60 58 55 63 63 65 71 72 72 72 71 72 74 75 75 75 75 76 76 77 77 77 77 77 76 76 76 76 75 75 75 75 75 74 74 74
77 75 64 55 47 47 49 55 58 60 63 64 61 62 59 58 63 64 70 72 71 70 70 71 72 74 75 75 75 75 76 76 76 77 76 76 76 76 75 76 75 74 74 74 74 74 74 74 74
71 67 64 55 48 54 55 58 60 61 61 65 61 55 62 67 67 69 72 72 69 69 69 70 73 74 74 75 75 75 76 75 76 76 76 76 75 75 74 74 74 74 74 74 74 74 73 73 74
70 62 54 53 52 56 57 60 62 61 61 61 60 54 56 67 72 71 71 70 67 66 68 70 72 73 74 75 75 75 75 74 75 75 75 75 75 74 74 74 74 73 73 73 73 72 72 72 72
63 60 50 50 54 58 60 63 63 59 60 59 57 56 57 68 70 71 71 69 68 67 68 70 68 70 72 73 73 73 74 74 74 75 74 74 74 74 73 73 73 72 72 72 72 72 71 71 72
60 54 50 52 52 56 61 65 61 61 61 59 61 54 56 61 70 71 70 68 67 67 66 66 68 68 68 69 70 72 73 73 73 74 73 72 71 71 72 71 72 72 72 71 71 71 71 71 71
62 56 51 49 52 55 60 63 62 62 60 66 63 53 54 62 70 70 69 67 65 65 65 65 66 66 66 66 66 68 69 70 70 70 68 67 67 67 67 67 70 71 71 70 70 70 70 70 70
63 53 48 53 56 57 60 59 62 62 62 58 59 59 63 65 70 67 66 66 64 64 64 65 65 64 64 64 63 64 66 66 66 65 64 63 62 63 63 64 67 69 69 70 70 69 69 67 65
56 52 54 60 57 56 61 59 62 59 57 56 56 61 65 64 66 65 64 63 62 61 62 64 64 63 64 68 63 63 64 63 63 62 62 62 62 61 63 61 64 66 66 68 69 69 67 63 61
52 53 61 61 62 60 60 58 61 59 54 59 56 58 61 61 63 66 67 66 63 64 64 64 64 64 63 64 62 61 60 60 60 61 61 61 61 59 59 58 59 58 59 60 62 61 61 61 60
49 55 58 62 62 60 59 61 58 59 61 64 62 62 61 61 62 65 65 64 62 64 65 64 64 64 63 62 61 61 61 60 59 61 62 59 58 57 57 56 57 57 58 58 58 59 60 61 62
49 55 53 59 61 59 61 59 59 59 60 61 61 61 61 62 62 63 64 65 62 63 64 64 64 63 63 62 60 60 60 61 61 61 62 61 58 58 57 57 57 57 58 58 58 59 61 61 61
56 56 54 54 57 60 57 58 57 60 58 58 59 59 61 62 63 64 63 63 62 64 63 63 64 64 63 62 61 60 60 61 61 61 62 61 60 58 58 58 58 58 58 59 59 59 59 59 60
56 50 52 52 55 57 60 58 55 61 58 56 57 57 59 61 62 67 66 64 65 65 65 64 64 64 63 63 63 62 62 62 61 61 62 62 62 60 59 58 58 59 59 59 59 59 59 58 59
51 52 45 52 55 57 59 49 59 63 57 55 54 54 57 58 62 66 65 65 65 66 64 64 68 65 64 62 62 63 63 62 62 63 63 62 62 61 59 59 59 59 59 59 58 58 57 57 57
47 39 43 48 55 55 55 51 62 63 59 55 54 55 56 58 59 61 64 66 65 66 65 64 65 65 64 63 63 62 63 63 62 62 63 63 63 62 60 59 59 60 59 58 58 57 57 56 56
38 43 45 45 51 50 48 51 55 56 57 58 56 55 56 57 59 62 63 66 66 66 66 66 65 64 65 63 61 60 59 60 61 63 64 63 63 63 61 60 60 59 58 58 57 57 57 57 56
49 45 45 48 52 50 49 51 54 57 54 53 53 54 55 57 63 63 64 65 64 65 65 65 64 64 65 65 61 59 60 59 59 61 63 63 63 62 61 61 61 60 59 59 58 57 56 55 57
46 43 44 49 52 51 46 47 52 53 56 55 56 55 57 59 59 61 63 62 64 63 65 64 64 64 65 68 69 62 60 59 61 61 62 63 62 62 62 61 61 61 60 58 58 57 55 55 56
45 44 43 46 48 51 45 42 47 53 56 57 56 58 59 59 59 59 61 62 64 63 63 65 65 65 66 67 67 64 59 58 58 59 62 62 63 63 63 62 62 60 60 59 58 57 56 55 55
41 49 49 47 46 40 47 34 43 49 53 55 60 60 60 58 59 62 62 62 63 65 66 66 65 65 65 65 64 65 62 61 63 64 64 63 63 63 63 63 62 61 60 59 59 59 58 56 57
45 50 47 47 43 41 39 40 41 45 47 54 57 60 61 61 59 61 63 65 66 66 66 66 64 64 65 64 64 62 61 63 64 65 61 61 61 63 63 63 61 61 60 60 60 57 58 58 59
48 45 44 42 40 33 41 41 38 43 50 51 56 60 60 58 59 61 64 66 66 66 65 64 63 63 64 64 63 62 61 62 60 59 59 60 61 62 62 62 62 61 61 60 59 59 59 59 59
46 44 33 32 31 33 39 38 46 49 51 53 55 54 55 56 58 58 57 58 62 60 62 63 63 63 63 63 63 63 63 63 61 61 61 60 60 61 62 62 61 61 61 60 60 59 59 58 58
45 46 36 31 29 32 35 32 41 52 57 55 54 56 54 54 56 57 58 59 61 60 62 63 63 63 63 64 64 64 64 64 63 63 64 62 62 62 63 62 62 62 62 61 60 59 59 59 58
43 41 46 32 21 26 32 37 47 50 50 51 52 51 52 54 55 54 55 57 58 58 61 62 62 63 63 63 64 64 64 63 64 64 63 64 64 63 63 62 63 63 62 61 60 59 58 58 58
45 49 37 36 26 23 30 31 39 45 48 50 50 51 51 52 53 54 53 53 54 56 58 60 62 62 63 63 64 64 64 64 65 64 63 63 65 63 61 61 61 62 61 61 60 60 59 57 57
42 41 42 40 36 28 24 31 44 51 50 52 52 53 51 51 52 53 52 52 52 52 51 53 55 56 57 58 62 63 63 63 64 64 63 63 63 62 62 61 61 61 61 59 58 58 58 54 56
43 47 47 40 31 31 32 35 46 49 51 51 51 52 50 50 50 49 50 50 50 50 50 50 50 53 55 56 56 58 59 57 59 61 63 61 60 58 61 61 61 61 60 58 57 56 54 54 53